Wetterdaten: Dienstag, 11.07.2017
Datum Zeit Temp. A. Pool Temp. Feuchte A. Luftdruck Regen Wind Richtung Richtung Sonnenschein ET UV Solar Taupunkt Windchill Windben Empfang
11.07.2017 00:00 17,8 C 26,1 C 93 % 1010,2 hPa 0,0 l/m 9,8 km/h (2 Bft) S-SW 198 0 min 0,000 mm 0,0 UV-I 0 W/m 16,7 C 16,3 C 16,1 km/h (3 Bft) 92,00 %
11.07.2017 00:02 17,8 C 26,1 C 93 % 1010,2 hPa 0,0 l/m 9,4 km/h (2 Bft) S 169 0 min 0,000 mm 0,0 UV-I 0 W/m 16,7 C 16,4 C 16,1 km/h (3 Bft) 91,11 %
11.07.2017 00:04 17,8 C 26,1 C 93 % 1010,1 hPa 0,0 l/m 8,3 km/h (2 Bft) S 180 0 min 0,000 mm 0,0 UV-I 0 W/m 16,7 C 16,9 C 16,1 km/h (3 Bft) 91,49 %
11.07.2017 00:06 17,8 C 26,1 C 93 % 1010,1 hPa 0,0 l/m 8,8 km/h (2 Bft) S-SO 165 0 min 0,000 mm 0,0 UV-I 0 W/m 16,7 C 16,7 C 14,5 km/h (3 Bft) 95,74 %
11.07.2017 00:08 17,8 C 26,1 C 93 % 1010,2 hPa 0,0 l/m 7,3 km/h (2 Bft) SW 216 0 min 0,000 mm 0,0 UV-I 0 W/m 16,7 C 17,4 C 12,9 km/h (3 Bft) 95,74 %
11.07.2017 00:10 17,8 C 26,1 C 93 % 1010,2 hPa 0,0 l/m 8,2 km/h (2 Bft) S-SW 213 0 min 0,000 mm 0,0 UV-I 0 W/m 16,7 C 17,0 C 12,9 km/h (3 Bft) 91,49 %
11.07.2017 00:12 17,8 C 26,1 C 93 % 1010,1 hPa 0,0 l/m 7,2 km/h (2 Bft) SW 226 0 min 0,000 mm 0,0 UV-I 0 W/m 16,7 C 17,4 C 14,5 km/h (3 Bft) 95,74 %
11.07.2017 00:14 17,9 C 26,1 C 93 % 1010,0 hPa 0,0 l/m 7,6 km/h (2 Bft) S-SW 209 0 min 0,000 mm 0,0 UV-I 0 W/m 16,8 C 17,3 C 11,3 km/h (2 Bft) 93,62 %
11.07.2017 00:16 17,8 C 26,1 C 93 % 1010,0 hPa 0,0 l/m 6,0 km/h (2 Bft) SW 225 0 min 0,000 mm 0,0 UV-I 0 W/m 16,7 C 17,8 C 11,3 km/h (2 Bft) 95,74 %
11.07.2017 00:18 17,8 C 26,1 C 93 % 1010,0 hPa 0,0 l/m 7,8 km/h (2 Bft) S-SW 211 0 min 0,000 mm 0,0 UV-I 0 W/m 16,7 C 17,1 C 12,9 km/h (3 Bft) 91,49 %
11.07.2017 00:20 17,8 C 26,1 C 93 % 1010,1 hPa 0,0 l/m 7,6 km/h (2 Bft) S-SW 192 0 min 0,000 mm 0,0 UV-I 0 W/m 16,7 C 17,2 C 9,7 km/h (2 Bft) 91,49 %
11.07.2017 00:22 17,8 C 26,1 C 93 % 1010,0 hPa 0,0 l/m 5,7 km/h (1 Bft) S 187 0 min 0,000 mm 0,0 UV-I 0 W/m 16,7 C 17,8 C 12,9 km/h (3 Bft) 93,62 %
11.07.2017 00:24 17,9 C 26,1 C 93 % 1010,0 hPa 0,2 l/m 4,3 km/h (1 Bft) S 173 0 min 0,000 mm 0,0 UV-I 0 W/m 16,8 C 17,9 C 8,0 km/h (2 Bft) 95,74 %
11.07.2017 00:26 17,8 C 26,1 C 93 % 1010,0 hPa 0,0 l/m 5,9 km/h (2 Bft) S 184 0 min 0,000 mm 0,0 UV-I 0 W/m 16,7 C 17,8 C 11,3 km/h (2 Bft) 95,74 %
11.07.2017 00:28 17,8 C 26,1 C 93 % 1009,9 hPa 0,0 l/m 6,8 km/h (2 Bft) S-SW 192 0 min 0,000 mm 0,0 UV-I 0 W/m 16,7 C 17,6 C 12,9 km/h (3 Bft) 97,22 %
11.07.2017 00:30 17,8 C 26,1 C 93 % 1009,9 hPa 0,0 l/m 6,3 km/h (2 Bft) S-SW 200 0 min 0,000 mm 0,0 UV-I 0 W/m 16,7 C 17,8 C 9,7 km/h (2 Bft) 95,74 %
11.07.2017 00:32 17,8 C 26,1 C 93 % 1010,0 hPa 0,0 l/m 5,4 km/h (1 Bft) S-SW 211 0 min 0,000 mm 0,0 UV-I 0 W/m 16,7 C 17,8 C 9,7 km/h (2 Bft) 94,00 %
11.07.2017 00:34 17,8 C 26,1 C 93 % 1009,9 hPa 0,0 l/m 5,9 km/h (2 Bft) S-SW 202 0 min 0,000 mm 0,0 UV-I 0 W/m 16,7 C 17,8 C 11,3 km/h (2 Bft) 95,74 %
11.07.2017 00:36 17,8 C 26,1 C 93 % 1009,9 hPa 0,0 l/m 6,3 km/h (2 Bft) S-SW 201 0 min 0,000 mm 0,0 UV-I 0 W/m 16,7 C 17,8 C 11,3 km/h (2 Bft) 93,62 %
11.07.2017 00:38 17,8 C 26,1 C 93 % 1010,0 hPa 0,0 l/m 7,9 km/h (2 Bft) S 179 0 min 0,000 mm 0,0 UV-I 0 W/m 16,7 C 17,1 C 11,3 km/h (2 Bft) 95,74 %
11.07.2017 00:40 17,8 C 26,1 C 93 % 1010,1 hPa 0,0 l/m 5,6 km/h (1 Bft) S 190 0 min 0,000 mm 0,0 UV-I 0 W/m 16,7 C 17,8 C 11,3 km/h (2 Bft) 96,00 %
11.07.2017 00:42 17,8 C 26,1 C 93 % 1010,1 hPa 0,0 l/m 8,9 km/h (2 Bft) S-SW 193 0 min 0,000 mm 0,0 UV-I 0 W/m 16,7 C 16,7 C 16,1 km/h (3 Bft) 93,62 %
11.07.2017 00:44 17,8 C 26,1 C 93 % 1010,1 hPa 0,0 l/m 6,9 km/h (2 Bft) SW 214 0 min 0,000 mm 0,0 UV-I 0 W/m 16,7 C 17,6 C 11,3 km/h (2 Bft) 96,00 %
11.07.2017 00:46 17,8 C 26,1 C 92 % 1010,1 hPa 0,0 l/m 6,6 km/h (2 Bft) S 175 0 min 0,000 mm 0,0 UV-I 0 W/m 16,5 C 17,7 C 12,9 km/h (3 Bft) 93,62 %
11.07.2017 00:48 17,8 C 26,1 C 92 % 1010,1 hPa 0,0 l/m 7,2 km/h (2 Bft) S-SW 192 0 min 0,000 mm 0,0 UV-I 0 W/m 16,5 C 17,4 C 14,5 km/h (3 Bft) 95,74 %
11.07.2017 00:50 17,8 C 26,1 C 92 % 1010,1 hPa 0,0 l/m 6,7 km/h (2 Bft) SW 224 0 min 0,000 mm 0,0 UV-I 0 W/m 16,5 C 17,7 C 11,3 km/h (2 Bft) 97,14 %
11.07.2017 00:52 17,8 C 26,1 C 92 % 1010,1 hPa 0,0 l/m 7,3 km/h (2 Bft) S-SW 211 0 min 0,000 mm 0,0 UV-I 0 W/m 16,5 C 17,4 C 11,3 km/h (2 Bft) 98,00 %
11.07.2017 00:54 17,9 C 26,1 C 92 % 1010,1 hPa 0,0 l/m 7,5 km/h (2 Bft) W 269 0 min 0,000 mm 0,0 UV-I 0 W/m 16,6 C 17,4 C 11,3 km/h (2 Bft) 95,74 %
11.07.2017 00:56 17,9 C 26,1 C 92 % 1010,1 hPa 0,0 l/m 8,1 km/h (2 Bft) W-SW 242 0 min 0,000 mm 0,0 UV-I 0 W/m 16,6 C 17,1 C 12,9 km/h (3 Bft) 97,87 %
11.07.2017 00:58 17,8 C 26,1 C 92 % 1010,0 hPa 0,0 l/m 8,9 km/h (2 Bft) SW 227 0 min 0,000 mm 0,0 UV-I 0 W/m 16,5 C 16,7 C 14,5 km/h (3 Bft) 94,00 %
11.07.2017 01:00 17,8 C 26,1 C 92 % 1010,0 hPa 0,0 l/m 6,9 km/h (2 Bft) W-SW 244 0 min 0,000 mm 0,0 UV-I 0 W/m 16,5 C 17,6 C 11,3 km/h (2 Bft) 95,45 %
11.07.2017 01:02 17,8 C 26,1 C 92 % 1010,1 hPa 0,0 l/m 8,2 km/h (2 Bft) SW 236 0 min 0,000 mm 0,0 UV-I 0 W/m 16,5 C 17,0 C 12,9 km/h (3 Bft) 95,74 %
11.07.2017 01:04 17,8 C 26,1 C 92 % 1010,0 hPa 0,0 l/m 6,2 km/h (2 Bft) SW 235 0 min 0,000 mm 0,0 UV-I 0 W/m 16,5 C 17,8 C 9,7 km/h (2 Bft) 93,62 %
11.07.2017 01:06 17,8 C 26,1 C 92 % 1010,1 hPa 0,0 l/m 8,1 km/h (2 Bft) SW 224 0 min 0,000 mm 0,0 UV-I 0 W/m 16,5 C 17,0 C 11,3 km/h (2 Bft) 97,87 %
11.07.2017 01:08 17,8 C 26,1 C 92 % 1010,1 hPa 0,0 l/m 6,7 km/h (2 Bft) S-SW 200 0 min 0,000 mm 0,0 UV-I 0 W/m 16,5 C 17,7 C 11,3 km/h (2 Bft) 97,87 %
11.07.2017 01:10 17,8 C 26,1 C 92 % 1010,1 hPa 0,0 l/m 3,2 km/h (1 Bft) S 175 0 min 0,000 mm 0,0 UV-I 0 W/m 16,5 C 17,8 C 6,4 km/h (2 Bft) 89,36 %
11.07.2017 01:12 17,8 C 26,1 C 92 % 1010,1 hPa 0,0 l/m 4,4 km/h (1 Bft) S-SW 194 0 min 0,000 mm 0,0 UV-I 0 W/m 16,5 C 17,8 C 8,0 km/h (2 Bft) 95,83 %
11.07.2017 01:14 17,8 C 26,1 C 92 % 1010,0 hPa 0,0 l/m 2,7 km/h (1 Bft) S-SW 211 0 min 0,000 mm 0,0 UV-I 0 W/m 16,5 C 17,8 C 8,0 km/h (2 Bft) 92,00 %
11.07.2017 01:16 17,8 C 26,1 C 93 % 1010,1 hPa 0,0 l/m 2,7 km/h (1 Bft) S-SW 211 0 min 0,000 mm 0,0 UV-I 0 W/m 16,7 C 17,8 C 4,8 km/h (1 Bft) 100,00 %
11.07.2017 01:18 17,8 C 26,1 C 93 % 1010,1 hPa 0,0 l/m 3,9 km/h (1 Bft) S-SW 192 0 min 0,000 mm 0,0 UV-I 0 W/m 16,7 C 17,8 C 6,4 km/h (2 Bft) 97,87 %
11.07.2017 01:20 17,8 C 26,1 C 93 % 1010,1 hPa 0,0 l/m 2,1 km/h (1 Bft) S 183 0 min 0,000 mm 0,0 UV-I 0 W/m 16,7 C 17,8 C 4,8 km/h (1 Bft) 100,00 %
11.07.2017 01:22 17,8 C 26,1 C 93 % 1010,1 hPa 0,0 l/m 1,1 km/h (1 Bft) S 183 0 min 0,000 mm 0,0 UV-I 0 W/m 16,7 C 17,8 C 4,8 km/h (1 Bft) 95,74 %
11.07.2017 01:24 17,8 C 26,1 C 93 % 1010,1 hPa 0,0 l/m 4,3 km/h (1 Bft) SW 232 0 min 0,000 mm 0,0 UV-I 0 W/m 16,7 C 17,8 C 8,0 km/h (2 Bft) 97,87 %
11.07.2017 01:26 17,7 C 26,1 C 93 % 1010,1 hPa 0,0 l/m 4,2 km/h (1 Bft) SW 232 0 min 0,000 mm 0,0 UV-I 0 W/m 16,6 C 17,7 C 6,4 km/h (2 Bft) 97,87 %
11.07.2017 01:28 17,7 C 26,1 C 93 % 1010,1 hPa 0,0 l/m 3,7 km/h (1 Bft) SW 232 0 min 0,000 mm 0,0 UV-I 0 W/m 16,6 C 17,7 C 6,4 km/h (2 Bft) 97,87 %
11.07.2017 01:30 17,7 C 26,1 C 93 % 1010,1 hPa 0,0 l/m 5,5 km/h (1 Bft) W-SW 240 0 min 0,000 mm 0,0 UV-I 0 W/m 16,6 C 17,7 C 8,0 km/h (2 Bft) 97,37 %
11.07.2017 01:32 17,7 C 26,1 C 93 % 1010,1 hPa 0,0 l/m 4,3 km/h (1 Bft) W-SW 240 0 min 0,000 mm 0,0 UV-I 0 W/m 16,6 C 17,7 C 6,4 km/h (2 Bft) 97,87 %
11.07.2017 01:34 17,7 C 26,1 C 93 % 1010,1 hPa 0,0 l/m 4,5 km/h (1 Bft) W-SW 239 0 min 0,000 mm 0,0 UV-I 0 W/m 16,6 C 17,7 C 6,4 km/h (2 Bft) 97,87 %
11.07.2017 01:36 17,7 C 26,1 C 93 % 1010,1 hPa 0,0 l/m 5,6 km/h (1 Bft) SW 231 0 min 0,000 mm 0,0 UV-I 0 W/m 16,6 C 17,7 C 8,0 km/h (2 Bft) 95,74 %
11.07.2017 01:38 17,7 C 26,1 C 93 % 1010,0 hPa 0,0 l/m 4,6 km/h (1 Bft) SW 231 0 min 0,000 mm 0,0 UV-I 0 W/m 16,6 C 17,7 C 8,0 km/h (2 Bft) 95,74 %
11.07.2017 01:40 17,7 C 26,1 C 93 % 1010,0 hPa 0,0 l/m 3,4 km/h (1 Bft) SW 231 0 min 0,000 mm 0,0 UV-I 0 W/m 16,6 C 17,7 C 4,8 km/h (1 Bft) 91,49 %
11.07.2017 01:42 17,7 C 26,1 C 93 % 1010,1 hPa 0,0 l/m 4,5 km/h (1 Bft) SW 232 0 min 0,000 mm 0,0 UV-I 0 W/m 16,6 C 17,7 C 6,4 km/h (2 Bft) 95,74 %
11.07.2017 01:44 17,7 C 26,1 C 93 % 1010,1 hPa 0,0 l/m 5,3 km/h (1 Bft) SW 232 0 min 0,000 mm 0,0 UV-I 0 W/m 16,6 C 17,7 C 9,7 km/h (2 Bft) 95,74 %
11.07.2017 01:46 17,7 C 26,1 C 94 % 1010,1 hPa 0,0 l/m 4,5 km/h (1 Bft) W-SW 239 0 min 0,000 mm 0,0 UV-I 0 W/m 16,7 C 17,7 C 6,4 km/h (2 Bft) 95,74 %
11.07.2017 01:48 17,7 C 26,1 C 94 % 1010,2 hPa 0,0 l/m 4,2 km/h (1 Bft) SW 216 0 min 0,000 mm 0,0 UV-I 0 W/m 16,7 C 17,7 C 8,0 km/h (2 Bft) 95,83 %
11.07.2017 01:50 17,7 C 26,1 C 94 % 1010,2 hPa 0,0 l/m 4,8 km/h (1 Bft) SW 225 0 min 0,000 mm 0,0 UV-I 0 W/m 16,7 C 17,7 C 8,0 km/h (2 Bft) 95,74 %
11.07.2017 01:52 17,6 C 26,1 C 94 % 1010,2 hPa 0,0 l/m 5,6 km/h (1 Bft) SW 222 0 min 0,000 mm 0,0 UV-I 0 W/m 16,6 C 17,6 C 8,0 km/h (2 Bft) 91,49 %
11.07.2017 01:54 17,7 C 26,1 C 94 % 1010,2 hPa 0,0 l/m 5,6 km/h (1 Bft) SW 226 0 min 0,000 mm 0,0 UV-I 0 W/m 16,7 C 17,7 C 8,0 km/h (2 Bft) 93,62 %
11.07.2017 01:56 17,7 C 26,1 C 94 % 1010,2 hPa 0,0 l/m 5,9 km/h (2 Bft) SW 232 0 min 0,000 mm 0,0 UV-I 0 W/m 16,7 C 17,7 C 8,0 km/h (2 Bft) 95,83 %
11.07.2017 01:58 17,7 C 26,1 C 94 % 1010,2 hPa 0,0 l/m 4,5 km/h (1 Bft) W-SW 237 0 min 0,000 mm 0,0 UV-I 0 W/m 16,7 C 17,7 C 6,4 km/h (2 Bft) 95,74 %
11.07.2017 02:00 17,7 C 26,1 C 94 % 1010,1 hPa 0,0 l/m 3,6 km/h (1 Bft) SW 230 0 min 0,000 mm 0,0 UV-I 0 W/m 16,7 C 17,7 C 8,0 km/h (2 Bft) 96,00 %
11.07.2017 02:02 17,7 C 26,1 C 94 % 1010,1 hPa 0,0 l/m 4,8 km/h (1 Bft) W-SW 237 0 min 0,000 mm 0,0 UV-I 0 W/m 16,7 C 17,7 C 8,0 km/h (2 Bft) 95,74 %
11.07.2017 02:04 17,7 C 26,1 C 94 % 1010,1 hPa 0,0 l/m 5,0 km/h (1 Bft) SW 236 0 min 0,000 mm 0,0 UV-I 0 W/m 16,7 C 17,7 C 9,7 km/h (2 Bft) 95,74 %
11.07.2017 02:06 17,7 C 26,1 C 94 % 1010,1 hPa 0,0 l/m 5,5 km/h (1 Bft) W-SW 250 0 min 0,000 mm 0,0 UV-I 0 W/m 16,7 C 17,7 C 8,0 km/h (2 Bft) 95,74 %
11.07.2017 02:08 17,7 C 26,1 C 94 % 1010,1 hPa 0,0 l/m 5,8 km/h (2 Bft) W-SW 250 0 min 0,000 mm 0,0 UV-I 0 W/m 16,7 C 17,7 C 8,0 km/h (2 Bft) 97,87 %
11.07.2017 02:10 17,7 C 26,1 C 94 % 1010,1 hPa 0,0 l/m 4,5 km/h (1 Bft) W-SW 242 0 min 0,000 mm 0,0 UV-I 0 W/m 16,7 C 17,7 C 6,4 km/h (2 Bft) 97,87 %
11.07.2017 02:12 17,7 C 26,1 C 94 % 1010,0 hPa 0,0 l/m 5,5 km/h (1 Bft) W-SW 241 0 min 0,000 mm 0,0 UV-I 0 W/m 16,7 C 17,7 C 8,0 km/h (2 Bft) 97,87 %
11.07.2017 02:14 17,7 C 26,1 C 94 % 1010,0 hPa 0,0 l/m 7,4 km/h (2 Bft) SW 216 0 min 0,000 mm 0,0 UV-I 0 W/m 16,7 C 17,2 C 11,3 km/h (2 Bft) 97,87 %
11.07.2017 02:16 17,7 C 25,6 C 94 % 1010,0 hPa 0,0 l/m 6,2 km/h (2 Bft) SW 235 0 min 0,000 mm 0,0 UV-I 0 W/m 16,7 C 17,7 C 9,7 km/h (2 Bft) 95,74 %
11.07.2017 02:18 17,7 C 25,6 C 94 % 1010,1 hPa 0,0 l/m 6,3 km/h (2 Bft) SW 226 0 min 0,000 mm 0,0 UV-I 0 W/m 16,7 C 17,7 C 8,0 km/h (2 Bft) 97,87 %
11.07.2017 02:20 17,7 C 25,6 C 94 % 1010,1 hPa 0,0 l/m 4,5 km/h (1 Bft) SW 227 0 min 0,000 mm 0,0 UV-I 0 W/m 16,7 C 17,7 C 6,4 km/h (2 Bft) 97,87 %
11.07.2017 02:22 17,7 C 25,6 C 94 % 1010,1 hPa 0,0 l/m 4,6 km/h (1 Bft) W-SW 244 0 min 0,000 mm 0,0 UV-I 0 W/m 16,7 C 17,7 C 8,0 km/h (2 Bft) 95,74 %
11.07.2017 02:24 17,7 C 25,6 C 94 % 1010,1 hPa 0,0 l/m 4,9 km/h (1 Bft) W-SW 241 0 min 0,000 mm 0,0 UV-I 0 W/m 16,7 C 17,7 C 9,7 km/h (2 Bft) 97,87 %
11.07.2017 02:26 17,7 C 25,6 C 94 % 1010,1 hPa 0,0 l/m 4,9 km/h (1 Bft) W-SW 253 0 min 0,000 mm 0,0 UV-I 0 W/m 16,7 C 17,7 C 6,4 km/h (2 Bft) 97,37 %
11.07.2017 02:28 17,7 C 25,6 C 94 % 1010,1 hPa 0,0 l/m 5,3 km/h (1 Bft) W-SW 255 0 min 0,000 mm 0,0 UV-I 0 W/m 16,7 C 17,7 C 8,0 km/h (2 Bft) 97,92 %
11.07.2017 02:30 17,7 C 25,6 C 94 % 1010,2 hPa 0,0 l/m 4,9 km/h (1 Bft) SW 229 0 min 0,000 mm 0,0 UV-I 0 W/m 16,7 C 17,7 C 8,0 km/h (2 Bft) 93,62 %
11.07.2017 02:32 17,7 C 25,6 C 94 % 1010,2 hPa 0,0 l/m 4,8 km/h (1 Bft) W-SW 244 0 min 0,000 mm 0,0 UV-I 0 W/m 16,7 C 17,7 C 6,4 km/h (2 Bft) 100,00 %
11.07.2017 02:34 17,7 C 25,6 C 94 % 1010,1 hPa 0,0 l/m 3,0 km/h (1 Bft) W-SW 252 0 min 0,000 mm 0,0 UV-I 0 W/m 16,7 C 17,7 C 6,4 km/h (2 Bft) 93,62 %
11.07.2017 02:36 17,7 C 25,6 C 94 % 1010,2 hPa 0,0 l/m 4,7 km/h (1 Bft) W 259 0 min 0,000 mm 0,0 UV-I 0 W/m 16,7 C 17,7 C 8,0 km/h (2 Bft) 100,00 %
11.07.2017 02:38 17,7 C 25,6 C 94 % 1010,2 hPa 0,0 l/m 4,5 km/h (1 Bft) W-SW 250 0 min 0,000 mm 0,0 UV-I 0 W/m 16,7 C 17,7 C 8,0 km/h (2 Bft) 95,74 %
11.07.2017 02:40 17,7 C 25,6 C 94 % 1010,2 hPa 0,0 l/m 3,1 km/h (1 Bft) W 265 0 min 0,000 mm 0,0 UV-I 0 W/m 16,7 C 17,7 C 6,4 km/h (2 Bft) 98,00 %
11.07.2017 02:42 17,7 C 25,6 C 94 % 1010,3 hPa 0,0 l/m 3,0 km/h (1 Bft) W 266 0 min 0,000 mm 0,0 UV-I 0 W/m 16,7 C 17,7 C 6,4 km/h (2 Bft) 98,00 %
11.07.2017 02:44 17,7 C 25,6 C 94 % 1010,3 hPa 0,0 l/m 2,4 km/h (1 Bft) W 266 0 min 0,000 mm 0,0 UV-I 0 W/m 16,7 C 17,7 C 4,8 km/h (1 Bft) 97,87 %
11.07.2017 02:46 17,7 C 25,6 C 94 % 1010,4 hPa 0,0 l/m 3,4 km/h (1 Bft) W-NW 285 0 min 0,000 mm 0,0 UV-I 0 W/m 16,7 C 17,7 C 4,8 km/h (1 Bft) 97,87 %
11.07.2017 02:48 17,7 C 25,6 C 94 % 1010,4 hPa 0,0 l/m 4,1 km/h (1 Bft) W 262 0 min 0,000 mm 0,0 UV-I 0 W/m 16,7 C 17,7 C 6,4 km/h (2 Bft) 95,74 %
11.07.2017 02:50 17,6 C 25,6 C 95 % 1010,4 hPa 0,0 l/m 1,2 km/h (1 Bft) W 262 0 min 0,000 mm 0,0 UV-I 0 W/m 16,8 C 17,6 C 3,2 km/h (1 Bft) 91,49 %
11.07.2017 02:52 17,6 C 25,6 C 95 % 1010,4 hPa 0,0 l/m 2,4 km/h (1 Bft) W 262 0 min 0,000 mm 0,0 UV-I 0 W/m 16,8 C 17,6 C 4,8 km/h (1 Bft) 91,49 %
11.07.2017 02:54 17,6 C 25,6 C 95 % 1010,4 hPa 0,0 l/m 1,4 km/h (1 Bft) W 262 0 min 0,000 mm 0,0 UV-I 0 W/m 16,8 C 17,6 C 3,2 km/h (1 Bft) 93,62 %
11.07.2017 02:56 17,6 C 25,6 C 95 % 1010,5 hPa 0,0 l/m 3,2 km/h (1 Bft) W-SW 256 0 min 0,000 mm 0,0 UV-I 0 W/m 16,8 C 17,6 C 6,4 km/h (2 Bft) 95,74 %
11.07.2017 02:58 17,6 C 25,6 C 95 % 1010,5 hPa 0,0 l/m 3,8 km/h (1 Bft) W-SW 257 0 min 0,000 mm 0,0 UV-I 0 W/m 16,8 C 17,6 C 6,4 km/h (2 Bft) 100,00 %
11.07.2017 03:00 17,6 C 25,6 C 95 % 1010,6 hPa 0,0 l/m 2,7 km/h (1 Bft) W 279 0 min 0,000 mm 0,0 UV-I 0 W/m 16,8 C 17,6 C 6,4 km/h (2 Bft) 95,74 %
11.07.2017 03:02 17,5 C 25,6 C 95 % 1010,6 hPa 0,0 l/m 1,8 km/h (1 Bft) W 279 0 min 0,000 mm 0,0 UV-I 0 W/m 16,7 C 17,5 C 4,8 km/h (1 Bft) 95,74 %
11.07.2017 03:04 17,5 C 25,6 C 95 % 1010,6 hPa 0,0 l/m 2,4 km/h (1 Bft) W 279 0 min 0,000 mm 0,0 UV-I 0 W/m 16,7 C 17,5 C 4,8 km/h (1 Bft) 95,74 %
11.07.2017 03:06 17,5 C 25,6 C 95 % 1010,6 hPa 0,0 l/m 3,1 km/h (1 Bft) W 279 0 min 0,000 mm 0,0 UV-I 0 W/m 16,7 C 17,5 C 4,8 km/h (1 Bft) 93,75 %
11.07.2017 03:08 17,5 C 25,6 C 95 % 1010,7 hPa 0,0 l/m 4,5 km/h (1 Bft) W 279 0 min 0,000 mm 0,0 UV-I 0 W/m 16,7 C 17,5 C 6,4 km/h (2 Bft) 97,87 %
11.07.2017 03:10 17,6 C 25,6 C 95 % 1010,7 hPa 0,0 l/m 5,1 km/h (1 Bft) W-SW 252 0 min 0,000 mm 0,0 UV-I 0 W/m 16,8 C 17,6 C 6,4 km/h (2 Bft) 95,74 %
11.07.2017 03:12 17,6 C 25,6 C 95 % 1010,8 hPa 0,0 l/m 6,1 km/h (2 Bft) W-SW 251 0 min 0,000 mm 0,0 UV-I 0 W/m 16,8 C 17,6 C 9,7 km/h (2 Bft) 98,00 %
11.07.2017 03:14 17,6 C 25,6 C 95 % 1010,8 hPa 0,0 l/m 6,5 km/h (2 Bft) W-SW 248 0 min 0,000 mm 0,0 UV-I 0 W/m 16,8 C 17,6 C 9,7 km/h (2 Bft) 95,74 %
11.07.2017 03:16 17,6 C 25,6 C 95 % 1010,8 hPa 0,0 l/m 6,2 km/h (2 Bft) W-SW 252 0 min 0,000 mm 0,0 UV-I 0 W/m 16,8 C 17,6 C 9,7 km/h (2 Bft) 96,23 %
11.07.2017 03:18 17,6 C 25,6 C 95 % 1010,8 hPa 0,0 l/m 6,1 km/h (2 Bft) W-SW 248 0 min 0,000 mm 0,0 UV-I 0 W/m 16,8 C 17,6 C 11,3 km/h (2 Bft) 100,00 %
11.07.2017 03:20 17,7 C 25,6 C 96 % 1010,9 hPa 0,0 l/m 6,0 km/h (2 Bft) W-SW 253 0 min 0,000 mm 0,0 UV-I 0 W/m 17,1 C 17,7 C 8,0 km/h (2 Bft) 97,37 %
11.07.2017 03:22 17,7 C 25,6 C 95 % 1010,8 hPa 0,0 l/m 7,8 km/h (2 Bft) W-SW 250 0 min 0,000 mm 0,0 UV-I 0 W/m 16,9 C 17,0 C 12,9 km/h (3 Bft) 100,00 %
11.07.2017 03:24 17,7 C 25,6 C 96 % 1010,8 hPa 0,0 l/m 6,7 km/h (2 Bft) SW 226 0 min 0,000 mm 0,0 UV-I 0 W/m 17,1 C 17,6 C 11,3 km/h (2 Bft) 95,74 %
11.07.2017 03:26 17,7 C 25,6 C 96 % 1010,8 hPa 0,0 l/m 7,5 km/h (2 Bft) W 274 0 min 0,000 mm 0,0 UV-I 0 W/m 17,1 C 17,2 C 14,5 km/h (3 Bft) 96,00 %
11.07.2017 03:28 17,7 C 25,6 C 96 % 1010,9 hPa 0,0 l/m 9,2 km/h (2 Bft) SW 234 0 min 0,000 mm 0,0 UV-I 0 W/m 17,1 C 16,4 C 16,1 km/h (3 Bft) 95,74 %
11.07.2017 03:30 17,7 C 25,6 C 95 % 1010,9 hPa 0,0 l/m 8,1 km/h (2 Bft) W-SW 257 0 min 0,000 mm 0,0 UV-I 0 W/m 16,9 C 16,9 C 12,9 km/h (3 Bft) 98,00 %
11.07.2017 03:32 17,8 C 25,6 C 95 % 1010,9 hPa 0,0 l/m 9,7 km/h (2 Bft) W-SW 250 0 min 0,000 mm 0,0 UV-I 0 W/m 17,0 C 16,3 C 14,5 km/h (3 Bft) 100,00 %
11.07.2017 03:34 17,7 C 25,6 C 95 % 1010,9 hPa 0,0 l/m 7,2 km/h (2 Bft) W-SW 249 0 min 0,000 mm 0,0 UV-I 0 W/m 16,9 C 17,3 C 14,5 km/h (3 Bft) 95,74 %
11.07.2017 03:36 17,7 C 25,6 C 95 % 1011,0 hPa 0,0 l/m 8,9 km/h (2 Bft) W 269 0 min 0,000 mm 0,0 UV-I 0 W/m 16,9 C 16,5 C 14,5 km/h (3 Bft) 87,23 %
11.07.2017 03:38 17,7 C 25,6 C 95 % 1011,0 hPa 0,0 l/m 8,6 km/h (2 Bft) W-SW 237 0 min 0,000 mm 0,0 UV-I 0 W/m 16,9 C 16,7 C 14,5 km/h (3 Bft) 95,74 %
11.07.2017 03:40 17,8 C 25,6 C 95 % 1011,1 hPa 0,0 l/m 8,5 km/h (2 Bft) SW 234 0 min 0,000 mm 0,0 UV-I 0 W/m 17,0 C 16,8 C 12,9 km/h (3 Bft) 95,74 %
11.07.2017 03:42 17,8 C 25,6 C 95 % 1011,2 hPa 0,2 l/m 10,2 km/h (2 Bft) SW 227 0 min 0,000 mm 0,0 UV-I 0 W/m 17,0 C 16,1 C 17,7 km/h (3 Bft) 93,62 %
11.07.2017 03:44 17,8 C 25,6 C 95 % 1011,2 hPa 0,0 l/m 12,5 km/h (3 Bft) W-SW 238 0 min 0,000 mm 0,0 UV-I 0 W/m 17,0 C 15,3 C 16,1 km/h (3 Bft) 89,36 %
11.07.2017 03:46 17,8 C 25,6 C 95 % 1011,2 hPa 0,0 l/m 9,1 km/h (2 Bft) W-SW 255 0 min 0,000 mm 0,0 UV-I 0 W/m 17,0 C 16,6 C 12,9 km/h (3 Bft) 93,62 %
11.07.2017 03:48 17,8 C 25,6 C 95 % 1011,2 hPa 0,0 l/m 11,7 km/h (2 Bft) W 269 0 min 0,000 mm 0,0 UV-I 0 W/m 17,0 C 15,6 C 17,7 km/h (3 Bft) 93,62 %
11.07.2017 03:50 17,8 C 25,6 C 95 % 1011,1 hPa 0,0 l/m 9,0 km/h (2 Bft) W-SW 249 0 min 0,000 mm 0,0 UV-I 0 W/m 17,0 C 16,6 C 14,5 km/h (3 Bft) 91,49 %
11.07.2017 03:52 17,8 C 25,6 C 95 % 1011,1 hPa 0,0 l/m 8,4 km/h (2 Bft) W 274 0 min 0,000 mm 0,0 UV-I 0 W/m 17,0 C 16,9 C 12,9 km/h (3 Bft) 89,74 %
11.07.2017 03:54 17,8 C 25,6 C 95 % 1011,2 hPa 0,0 l/m 6,1 km/h (2 Bft) W-SW 252 0 min 0,000 mm 0,0 UV-I 0 W/m 17,0 C 17,8 C 11,3 km/h (2 Bft) 92,00 %
11.07.2017 03:56 17,8 C 25,6 C 95 % 1011,2 hPa 0,2 l/m 8,5 km/h (2 Bft) W-SW 253 0 min 0,000 mm 0,0 UV-I 0 W/m 17,0 C 16,8 C 12,9 km/h (3 Bft) 91,49 %
11.07.2017 03:58 17,8 C 25,6 C 95 % 1011,2 hPa 0,0 l/m 8,1 km/h (2 Bft) W 270 0 min 0,000 mm 0,0 UV-I 0 W/m 17,0 C 17,0 C 12,9 km/h (3 Bft) 93,62 %
11.07.2017 04:00 17,8 C 25,6 C 94 % 1011,1 hPa 0,0 l/m 7,6 km/h (2 Bft) W-NW 283 0 min 0,000 mm 0,0 UV-I 0 W/m 16,8 C 17,2 C 12,9 km/h (3 Bft) 92,68 %
11.07.2017 04:02 17,8 C 25,6 C 95 % 1011,2 hPa 0,0 l/m 6,3 km/h (2 Bft) W-SW 252 0 min 0,000 mm 0,0 UV-I 0 W/m 17,0 C 17,8 C 8,0 km/h (2 Bft) 100,00 %
11.07.2017 04:04 17,8 C 25,6 C 94 % 1011,1 hPa 0,0 l/m 6,8 km/h (2 Bft) W-SW 257 0 min 0,000 mm 0,0 UV-I 0 W/m 16,8 C 17,6 C 11,3 km/h (2 Bft) 89,36 %
11.07.2017 04:06 17,8 C 25,6 C 94 % 1011,1 hPa 0,0 l/m 5,5 km/h (1 Bft) W 270 0 min 0,000 mm 0,0 UV-I 0 W/m 16,8 C 17,8 C 11,3 km/h (2 Bft) 91,49 %
11.07.2017 04:08 17,8 C 25,6 C 94 % 1011,1 hPa 0,0 l/m 6,9 km/h (2 Bft) SW 223 0 min 0,000 mm 0,0 UV-I 0 W/m 16,8 C 17,6 C 11,3 km/h (2 Bft) 95,74 %
11.07.2017 04:10 17,8 C 25,6 C 94 % 1011,2 hPa 0,0 l/m 7,8 km/h (2 Bft) W-SW 238 0 min 0,000 mm 0,0 UV-I 0 W/m 16,8 C 17,1 C 12,9 km/h (3 Bft) 94,00 %
11.07.2017 04:12 17,8 C 25,6 C 94 % 1011,2 hPa 0,0 l/m 6,0 km/h (2 Bft) W-SW 238 0 min 0,000 mm 0,0 UV-I 0 W/m 16,8 C 17,8 C 11,3 km/h (2 Bft) 94,34 %
11.07.2017 04:14 17,8 C 25,6 C 94 % 1011,2 hPa 0,0 l/m 7,4 km/h (2 Bft) W-SW 252 0 min 0,000 mm 0,0 UV-I 0 W/m 16,8 C 17,3 C 16,1 km/h (3 Bft) 91,49 %
11.07.2017 04:16 17,7 C 25,6 C 94 % 1011,2 hPa 0,0 l/m 8,2 km/h (2 Bft) SW 222 0 min 0,000 mm 0,0 UV-I 0 W/m 16,7 C 16,8 C 14,5 km/h (3 Bft) 93,62 %
11.07.2017 04:18 17,8 C 25,6 C 94 % 1011,3 hPa 0,0 l/m 7,7 km/h (2 Bft) SW 232 0 min 0,000 mm 0,0 UV-I 0 W/m 16,8 C 17,2 C 12,9 km/h (3 Bft) 100,00 %
11.07.2017 04:20 17,8 C 25,6 C 94 % 1011,3 hPa 0,0 l/m 7,2 km/h (2 Bft) SW 235 0 min 0,000 mm 0,0 UV-I 0 W/m 16,8 C 17,4 C 11,3 km/h (2 Bft) 93,62 %
11.07.2017 04:22 17,8 C 25,6 C 94 % 1011,4 hPa 0,0 l/m 6,0 km/h (2 Bft) W-SW 242 0 min 0,000 mm 0,0 UV-I 0 W/m 16,8 C 17,8 C 9,7 km/h (2 Bft) 96,00 %
11.07.2017 04:24 17,8 C 25,6 C 94 % 1011,4 hPa 0,0 l/m 6,0 km/h (2 Bft) W-SW 237 0 min 0,000 mm 0,0 UV-I 0 W/m 16,8 C 17,8 C 9,7 km/h (2 Bft) 95,74 %
11.07.2017 04:26 17,8 C 25,6 C 94 % 1011,5 hPa 0,0 l/m 10,7 km/h (2 Bft) W-SW 246 0 min 0,000 mm 0,0 UV-I 0 W/m 16,8 C 15,9 C 16,1 km/h (3 Bft) 93,75 %
11.07.2017 04:28 17,8 C 25,6 C 94 % 1011,5 hPa 0,0 l/m 10,4 km/h (2 Bft) SW 223 0 min 0,000 mm 0,0 UV-I 0 W/m 16,8 C 16,1 C 16,1 km/h (3 Bft) 95,74 %
11.07.2017 04:30 17,8 C 25,6 C 94 % 1011,5 hPa 0,0 l/m 9,8 km/h (2 Bft) W-SW 248 0 min 0,000 mm 0,0 UV-I 0 W/m 16,8 C 16,3 C 16,1 km/h (3 Bft) 93,62 %
11.07.2017 04:32 17,8 C 25,6 C 94 % 1011,6 hPa 0,0 l/m 9,9 km/h (2 Bft) SW 234 0 min 0,000 mm 0,0 UV-I 0 W/m 16,8 C 16,2 C 16,1 km/h (3 Bft) 94,00 %
11.07.2017 04:34 17,8 C 25,6 C 94 % 1011,5 hPa 0,0 l/m 8,8 km/h (2 Bft) SW 232 0 min 0,000 mm 0,0 UV-I 0 W/m 16,8 C 16,7 C 17,7 km/h (3 Bft) 95,74 %
11.07.2017 04:36 17,8 C 25,6 C 94 % 1011,5 hPa 0,0 l/m 11,5 km/h (2 Bft) W-SW 238 0 min 0,000 mm 0,0 UV-I 0 W/m 16,8 C 15,7 C 17,7 km/h (3 Bft) 94,00 %
11.07.2017 04:38 17,8 C 25,6 C 94 % 1011,5 hPa 0,0 l/m 10,4 km/h (2 Bft) W-SW 243 0 min 0,000 mm 0,0 UV-I 0 W/m 16,8 C 16,1 C 17,7 km/h (3 Bft) 100,00 %
11.07.2017 04:40 17,8 C 25,6 C 94 % 1011,5 hPa 0,0 l/m 11,2 km/h (2 Bft) SW 231 0 min 0,000 mm 0,0 UV-I 0 W/m 16,8 C 15,8 C 20,9 km/h (4 Bft) 91,49 %
11.07.2017 04:42 17,8 C 25,6 C 93 % 1011,5 hPa 0,0 l/m 11,3 km/h (2 Bft) SW 220 0 min 0,000 mm 0,0 UV-I 0 W/m 16,7 C 15,7 C 17,7 km/h (3 Bft) 94,00 %
11.07.2017 04:44 17,8 C 25,6 C 93 % 1011,5 hPa 0,0 l/m 13,5 km/h (3 Bft) W-SW 246 0 min 0,000 mm 0,0 UV-I 0 W/m 16,7 C 15,0 C 20,9 km/h (4 Bft) 95,74 %
11.07.2017 04:46 17,8 C 25,6 C 93 % 1011,5 hPa 0,0 l/m 9,3 km/h (2 Bft) SW 215 0 min 0,000 mm 0,0 UV-I 0 W/m 16,7 C 16,5 C 19,3 km/h (3 Bft) 97,87 %
11.07.2017 04:48 17,8 C 25,6 C 93 % 1011,5 hPa 0,0 l/m 9,8 km/h (2 Bft) S-SW 207 0 min 0,000 mm 0,0 UV-I 0 W/m 16,7 C 16,3 C 14,5 km/h (3 Bft) 97,87 %
11.07.2017 04:50 17,8 C 25,6 C 93 % 1011,5 hPa 0,0 l/m 12,6 km/h (3 Bft) S-SW 208 0 min 0,000 mm 0,0 UV-I 0 W/m 16,7 C 15,3 C 22,5 km/h (4 Bft) 98,00 %
11.07.2017 04:52 17,7 C 25,6 C 92 % 1011,5 hPa 0,0 l/m 12,8 km/h (3 Bft) SW 225 0 min 0,000 mm 0,0 UV-I 0 W/m 16,4 C 15,1 C 20,9 km/h (4 Bft) 97,14 %
11.07.2017 04:54 17,7 C 25,6 C 92 % 1011,6 hPa 0,0 l/m 14,6 km/h (3 Bft) S 183 0 min 0,000 mm 0,0 UV-I 0 W/m 16,4 C 14,6 C 22,5 km/h (4 Bft) 96,77 %
11.07.2017 04:56 17,7 C 25,6 C 91 % 1011,7 hPa 0,0 l/m 19,3 km/h (3 Bft) W 262 0 min 0,000 mm 0,0 UV-I 0 W/m 16,2 C 13,4 C 27,4 km/h (4 Bft) 95,74 %
11.07.2017 04:58 17,6 C 25,6 C 91 % 1011,8 hPa 0,0 l/m 17,5 km/h (3 Bft) W-SW 239 0 min 0,000 mm 0,0 UV-I 0 W/m 16,1 C 13,7 C 24,1 km/h (4 Bft) 97,37 %
11.07.2017 05:00 17,6 C 25,6 C 90 % 1011,8 hPa 0,0 l/m 20,5 km/h (4 Bft) W-SW 246 0 min 0,000 mm 0,0 UV-I 0 W/m 15,9 C 13,0 C 25,7 km/h (4 Bft) 95,74 %
11.07.2017 05:02 17,6 C 25,6 C 90 % 1011,9 hPa 0,0 l/m 15,9 km/h (3 Bft) W 265 0 min 0,000 mm 0,0 UV-I 0 W/m 15,9 C 14,1 C 22,5 km/h (4 Bft) 100,00 %
11.07.2017 05:04 17,6 C 25,6 C 90 % 1011,8 hPa 0,0 l/m 15,0 km/h (3 Bft) SW 227 0 min 0,000 mm 0,0 UV-I 0 W/m 15,9 C 14,3 C 24,1 km/h (4 Bft) 98,00 %
11.07.2017 05:06 17,6 C 25,6 C 90 % 1011,9 hPa 0,0 l/m 18,1 km/h (3 Bft) S-SW 213 0 min 0,000 mm 0,0 UV-I 0 W/m 15,9 C 13,5 C 27,4 km/h (4 Bft) 97,92 %
11.07.2017 05:08 17,5 C 25,6 C 90 % 1011,8 hPa 0,0 l/m 18,2 km/h (3 Bft) SW 219 0 min 0,000 mm 0,0 UV-I 0 W/m 15,8 C 13,4 C 27,4 km/h (4 Bft) 95,74 %
11.07.2017 05:10 17,5 C 25,6 C 90 % 1011,8 hPa 0,0 l/m 16,2 km/h (3 Bft) SW 219 0 min 0,000 mm 0,0 UV-I 0 W/m 15,8 C 13,9 C 27,4 km/h (4 Bft) 95,74 %
11.07.2017 05:12 17,4 C 25,6 C 90 % 1011,8 hPa 0,0 l/m 13,9 km/h (3 Bft) S 171 0 min 0,000 mm 0,0 UV-I 0 W/m 15,7 C 14,4 C 19,3 km/h (3 Bft) 93,62 %
11.07.2017 05:14 17,4 C 25,6 C 90 % 1011,8 hPa 0,0 l/m 17,2 km/h (3 Bft) SW 218 0 min 0,000 mm 0,0 UV-I 0 W/m 15,7 C 13,5 C 27,4 km/h (4 Bft) 97,87 %
11.07.2017 05:16 17,4 C 25,6 C 90 % 1011,8 hPa 0,0 l/m 12,2 km/h (2 Bft) SW 223 0 min 0,000 mm 0,0 UV-I 0 W/m 15,7 C 15,0 C 19,3 km/h (3 Bft) 95,74 %
11.07.2017 05:18 17,4 C 25,6 C 90 % 1011,8 hPa 0,0 l/m 11,8 km/h (2 Bft) W-SW 243 0 min 0,000 mm 0,0 UV-I 0 W/m 15,7 C 15,1 C 19,3 km/h (3 Bft) 97,87 %
11.07.2017 05:20 17,4 C 25,6 C 90 % 1011,8 hPa 0,0 l/m 12,4 km/h (3 Bft) W-SW 241 0 min 0,000 mm 0,0 UV-I 0 W/m 15,7 C 14,9 C 19,3 km/h (3 Bft) 97,87 %
11.07.2017 05:22 17,3 C 25,6 C 90 % 1011,7 hPa 0,0 l/m 13,2 km/h (3 Bft) SW 221 0 min 0,000 mm 0,0 UV-I 3 W/m 15,6 C 14,5 C 19,3 km/h (3 Bft) 96,00 %
11.07.2017 05:24 17,3 C 25,6 C 90 % 1011,8 hPa 0,0 l/m 12,4 km/h (3 Bft) W-SW 254 0 min 0,000 mm 0,0 UV-I 5 W/m 15,6 C 14,8 C 17,7 km/h (3 Bft) 93,62 %
11.07.2017 05:26 17,3 C 25,6 C 90 % 1011,8 hPa 0,0 l/m 10,9 km/h (2 Bft) S-SW 211 0 min 0,000 mm 0,0 UV-I 5 W/m 15,6 C 15,3 C 19,3 km/h (3 Bft) 95,74 %
11.07.2017 05:28 17,3 C 25,6 C 90 % 1011,9 hPa 0,0 l/m 12,3 km/h (3 Bft) S-SW 211 0 min 0,000 mm 0,0 UV-I 5 W/m 15,6 C 14,8 C 20,9 km/h (4 Bft) 97,87 %
11.07.2017 05:30 17,3 C 25,6 C 90 % 1012,0 hPa 0,0 l/m 13,5 km/h (3 Bft) SW 232 0 min 0,000 mm 0,0 UV-I 5 W/m 15,6 C 14,4 C 17,7 km/h (3 Bft) 97,37 %
11.07.2017 05:32 17,3 C 25,0 C 90 % 1011,9 hPa 0,0 l/m 10,5 km/h (2 Bft) W-SW 245 0 min 0,000 mm 0,0 UV-I 5 W/m 15,6 C 15,5 C 16,1 km/h (3 Bft) 97,87 %
11.07.2017 05:34 17,3 C 25,0 C 89 % 1011,9 hPa 0,0 l/m 13,2 km/h (3 Bft) W-SW 242 0 min 0,000 mm 0,0 UV-I 5 W/m 15,5 C 14,5 C 20,9 km/h (4 Bft) 97,87 %
11.07.2017 05:36 17,3 C 25,0 C 89 % 1011,8 hPa 0,0 l/m 11,2 km/h (2 Bft) SW 217 0 min 0,000 mm 0,0 UV-I 5 W/m 15,5 C 15,2 C 19,3 km/h (3 Bft) 93,62 %
11.07.2017 05:38 17,3 C 25,0 C 89 % 1011,7 hPa 0,0 l/m 10,4 km/h (2 Bft) S-SW 213 0 min 0,000 mm 0,0 UV-I 5 W/m 15,5 C 15,5 C 16,1 km/h (3 Bft) 95,74 %
11.07.2017 05:40 17,2 C 25,0 C 89 % 1011,7 hPa 0,0 l/m 10,8 km/h (2 Bft) W-SW 248 0 min 0,000 mm 0,0 UV-I 5 W/m 15,4 C 15,2 C 16,1 km/h (3 Bft) 95,74 %
11.07.2017 05:42 17,2 C 25,0 C 89 % 1011,7 hPa 0,0 l/m 8,9 km/h (2 Bft) SW 223 0 min 0,000 mm 0,0 UV-I 5 W/m 15,4 C 16,0 C 14,5 km/h (3 Bft) 96,00 %
11.07.2017 05:44 17,2 C 25,0 C 89 % 1011,7 hPa 0,0 l/m 12,7 km/h (3 Bft) W-SW 238 0 min 0,000 mm 0,0 UV-I 5 W/m 15,4 C 14,6 C 19,3 km/h (3 Bft) 92,00 %
11.07.2017 05:46 17,2 C 25,0 C 89 % 1011,7 hPa 0,0 l/m 13,5 km/h (3 Bft) SW 235 0 min 0,000 mm 0,0 UV-I 5 W/m 15,4 C 14,3 C 17,7 km/h (3 Bft) 95,74 %
11.07.2017 05:48 17,2 C 25,0 C 89 % 1011,8 hPa 0,0 l/m 13,3 km/h (3 Bft) SW 223 0 min 0,000 mm 0,0 UV-I 5 W/m 15,4 C 14,4 C 19,3 km/h (3 Bft) 95,83 %
11.07.2017 05:50 17,2 C 25,0 C 89 % 1011,7 hPa 0,0 l/m 13,1 km/h (3 Bft) W-SW 244 0 min 0,000 mm 0,0 UV-I 5 W/m 15,4 C 14,4 C 19,3 km/h (3 Bft) 93,62 %
11.07.2017 05:53 17,2 C 25,0 C 89 % 1011,8 hPa 0,0 l/m 12,8 km/h (3 Bft) SW 215 0 min 0,000 mm 0,0 UV-I 7 W/m 15,4 C 14,5 C 20,9 km/h (4 Bft) 95,08 %
11.07.2017 05:54 17,2 C 25,0 C 89 % 1011,8 hPa 0,0 l/m 8,7 km/h (2 Bft) SW 232 0 min 0,000 mm 0,0 UV-I 7 W/m 15,4 C 16,1 C 14,5 km/h (3 Bft) 95,83 %
11.07.2017 05:56 17,2 C 25,0 C 89 % 1011,8 hPa 0,0 l/m 9,5 km/h (2 Bft) SW 232 0 min 0,000 mm 0,0 UV-I 7 W/m 15,4 C 15,8 C 16,1 km/h (3 Bft) 93,62 %
11.07.2017 05:58 17,1 C 25,0 C 89 % 1011,8 hPa 0,0 l/m 10,8 km/h (2 Bft) W-SW 243 0 min 0,000 mm 0,0 UV-I 9 W/m 15,3 C 15,1 C 16,1 km/h (3 Bft) 95,74 %
11.07.2017 06:00 17,1 C 25,0 C 89 % 1011,8 hPa 0,0 l/m 7,1 km/h (2 Bft) W-SW 238 0 min 0,025 mm 0,0 UV-I 10 W/m 15,3 C 16,7 C 14,5 km/h (3 Bft) 93,62 %
11.07.2017 06:03 17,1 C 25,0 C 89 % 1011,8 hPa 0,0 l/m 8,3 km/h (2 Bft) S-SW 213 0 min 0,000 mm 0,0 UV-I 12 W/m 15,3 C 16,2 C 14,5 km/h (3 Bft) 94,37 %
11.07.2017 06:04 17,1 C 25,0 C 89 % 1011,8 hPa 0,0 l/m 6,6 km/h (2 Bft) S-SW 200 0 min 0,000 mm 0,0 UV-I 18 W/m 15,3 C 17,0 C 11,3 km/h (2 Bft) 95,65 %
11.07.2017 06:06 17,1 C 25,0 C 89 % 1011,8 hPa 0,0 l/m 9,5 km/h (2 Bft) SW 233 0 min 0,000 mm 0,0 UV-I 21 W/m 15,3 C 15,6 C 14,5 km/h (3 Bft) 96,00 %
11.07.2017 06:08 17,1 C 25,0 C 89 % 1011,8 hPa 0,0 l/m 7,3 km/h (2 Bft) SW 232 0 min 0,000 mm 0,0 UV-I 30 W/m 15,3 C 16,6 C 11,3 km/h (2 Bft) 97,87 %
11.07.2017 06:10 17,1 C 25,0 C 89 % 1011,7 hPa 0,0 l/m 7,6 km/h (2 Bft) SW 223 0 min 0,000 mm 0,0 UV-I 40 W/m 15,3 C 16,5 C 11,3 km/h (2 Bft) 95,83 %
11.07.2017 06:12 17,1 C 25,0 C 89 % 1011,8 hPa 0,0 l/m 8,0 km/h (2 Bft) SW 232 0 min 0,000 mm 0,0 UV-I 51 W/m 15,3 C 16,3 C 12,9 km/h (3 Bft) 97,87 %
11.07.2017 06:14 17,1 C 25,0 C 89 % 1011,8 hPa 0,0 l/m 7,2 km/h (2 Bft) SW 234 0 min 0,000 mm 0,0 UV-I 55 W/m 15,3 C 16,7 C 11,3 km/h (2 Bft) 100,00 %
11.07.2017 06:16 17,1 C 25,0 C 89 % 1011,8 hPa 0,0 l/m 8,5 km/h (2 Bft) SW 220 0 min 0,000 mm 0,0 UV-I 55 W/m 15,3 C 16,1 C 12,9 km/h (3 Bft) 93,62 %
11.07.2017 06:18 17,1 C 25,0 C 89 % 1011,8 hPa 0,0 l/m 7,8 km/h (2 Bft) SW 218 0 min 0,000 mm 0,0 UV-I 54 W/m 15,3 C 16,4 C 11,3 km/h (2 Bft) 97,14 %
11.07.2017 06:20 17,1 C 25,0 C 89 % 1011,8 hPa 0,0 l/m 7,3 km/h (2 Bft) S 186 0 min 0,000 mm 0,0 UV-I 54 W/m 15,3 C 16,6 C 11,3 km/h (2 Bft) 95,92 %
11.07.2017 06:22 17,1 C 25,0 C 88 % 1011,7 hPa 0,0 l/m 6,7 km/h (2 Bft) SW 214 0 min 0,000 mm 0,0 UV-I 53 W/m 15,1 C 17,0 C 9,7 km/h (2 Bft) 97,87 %
11.07.2017 06:24 17,1 C 25,0 C 89 % 1011,7 hPa 0,0 l/m 6,7 km/h (2 Bft) SW 227 0 min 0,000 mm 0,0 UV-I 51 W/m 15,3 C 17,0 C 11,3 km/h (2 Bft) 96,00 %
11.07.2017 06:26 17,1 C 25,0 C 88 % 1011,7 hPa 0,0 l/m 6,7 km/h (2 Bft) S-SW 210 0 min 0,000 mm 0,0 UV-I 52 W/m 15,1 C 17,0 C 9,7 km/h (2 Bft) 97,87 %
11.07.2017 06:28 17,1 C 25,0 C 88 % 1011,7 hPa 0,0 l/m 6,8 km/h (2 Bft) W-SW 242 0 min 0,000 mm 0,0 UV-I 53 W/m 15,1 C 16,9 C 9,7 km/h (2 Bft) 93,62 %
11.07.2017 06:30 17,2 C 25,0 C 88 % 1011,7 hPa 0,0 l/m 5,3 km/h (1 Bft) S 190 0 min 0,000 mm 0,0 UV-I 53 W/m 15,2 C 17,2 C 8,0 km/h (2 Bft) 95,74 %
11.07.2017 06:32 17,2 C 25,0 C 88 % 1011,8 hPa 0,0 l/m 5,6 km/h (1 Bft) SW 217 0 min 0,000 mm 0,0 UV-I 53 W/m 15,2 C 17,2 C 9,7 km/h (2 Bft) 98,00 %
11.07.2017 06:34 17,2 C 25,0 C 88 % 1011,8 hPa 0,0 l/m 6,7 km/h (2 Bft) S-SW 197 0 min 0,000 mm 0,0 UV-I 53 W/m 15,2 C 17,1 C 9,7 km/h (2 Bft) 96,00 %
11.07.2017 06:36 17,2 C 25,0 C 88 % 1011,8 hPa 0,0 l/m 6,7 km/h (2 Bft) SW 228 0 min 0,000 mm 0,0 UV-I 53 W/m 15,2 C 17,1 C 9,7 km/h (2 Bft) 94,29 %
11.07.2017 06:38 17,2 C 25,0 C 88 % 1011,9 hPa 0,0 l/m 5,2 km/h (1 Bft) SW 221 0 min 0,000 mm 0,0 UV-I 55 W/m 15,2 C 17,2 C 8,0 km/h (2 Bft) 95,74 %
11.07.2017 06:40 17,2 C 25,0 C 88 % 1011,9 hPa 0,0 l/m 5,9 km/h (2 Bft) W-SW 238 0 min 0,000 mm 0,0 UV-I 59 W/m 15,2 C 17,2 C 8,0 km/h (2 Bft) 95,74 %
11.07.2017 06:42 17,2 C 25,0 C 88 % 1011,9 hPa 0,0 l/m 5,9 km/h (2 Bft) W-SW 240 0 min 0,000 mm 0,0 UV-I 63 W/m 15,2 C 17,2 C 8,0 km/h (2 Bft) 97,87 %
11.07.2017 06:44 17,2 C 25,0 C 87 % 1011,9 hPa 0,0 l/m 4,3 km/h (1 Bft) W-SW 239 0 min 0,000 mm 0,0 UV-I 65 W/m 15,0 C 17,2 C 6,4 km/h (2 Bft) 97,87 %
11.07.2017 06:46 17,3 C 25,0 C 87 % 1011,9 hPa 0,0 l/m 5,6 km/h (1 Bft) SW 221 0 min 0,000 mm 0,0 UV-I 64 W/m 15,1 C 17,3 C 8,0 km/h (2 Bft) 98,00 %
11.07.2017 06:48 17,3 C 25,0 C 87 % 1012,0 hPa 0,0 l/m 5,6 km/h (1 Bft) SW 232 0 min 0,000 mm 0,0 UV-I 62 W/m 15,1 C 17,3 C 9,7 km/h (2 Bft) 97,87 %
11.07.2017 06:50 17,3 C 25,0 C 87 % 1012,0 hPa 0,0 l/m 6,5 km/h (2 Bft) W-SW 243 0 min 0,000 mm 0,0 UV-I 67 W/m 15,1 C 17,3 C 9,7 km/h (2 Bft) 93,62 %
11.07.2017 06:52 17,3 C 25,0 C 87 % 1012,0 hPa 0,0 l/m 6,7 km/h (2 Bft) SW 229 0 min 0,000 mm 0,0 UV-I 77 W/m 15,1 C 17,2 C 11,3 km/h (2 Bft) 97,87 %
11.07.2017 06:54 17,4 C 25,0 C 87 % 1012,0 hPa 0,0 l/m 7,2 km/h (2 Bft) W-SW 249 0 min 0,000 mm 0,0 UV-I 86 W/m 15,2 C 17,0 C 12,9 km/h (3 Bft) 94,00 %
11.07.2017 06:56 17,4 C 25,0 C 87 % 1012,0 hPa 0,0 l/m 7,2 km/h (2 Bft) W-SW 250 0 min 0,000 mm 0,0 UV-I 91 W/m 15,2 C 17,0 C 12,9 km/h (3 Bft) 95,74 %
11.07.2017 06:58 17,4 C 25,0 C 87 % 1012,0 hPa 0,0 l/m 7,7 km/h (2 Bft) SW 222 0 min 0,000 mm 0,0 UV-I 91 W/m 15,2 C 16,8 C 11,3 km/h (2 Bft) 92,00 %
11.07.2017 07:00 17,4 C 25,0 C 87 % 1012,1 hPa 0,0 l/m 7,4 km/h (2 Bft) SW 236 0 min 0,051 mm 0,0 UV-I 97 W/m 15,2 C 16,9 C 11,3 km/h (2 Bft) 95,74 %
11.07.2017 07:02 17,4 C 25,0 C 87 % 1012,1 hPa 0,0 l/m 8,9 km/h (2 Bft) S-SW 205 0 min 0,000 mm 0,0 UV-I 106 W/m 15,2 C 16,2 C 12,9 km/h (3 Bft) 94,44 %
11.07.2017 07:04 17,4 C 25,0 C 87 % 1012,0 hPa 0,0 l/m 7,5 km/h (2 Bft) W-SW 237 0 min 0,000 mm 0,0 UV-I 103 W/m 15,2 C 16,9 C 14,5 km/h (3 Bft) 96,00 %
11.07.2017 07:06 17,5 C 25,0 C 87 % 1012,1 hPa 0,0 l/m 7,7 km/h (2 Bft) SW 223 0 min 0,000 mm 0,0 UV-I 110 W/m 15,3 C 16,9 C 11,3 km/h (2 Bft) 97,87 %
11.07.2017 07:08 17,6 C 25,0 C 88 % 1012,2 hPa 0,0 l/m 6,7 km/h (2 Bft) W-SW 240 0 min 0,000 mm 0,0 UV-I 132 W/m 15,6 C 17,5 C 11,3 km/h (2 Bft) 97,87 %
11.07.2017 07:10 17,6 C 25,0 C 87 % 1012,2 hPa 0,0 l/m 6,9 km/h (2 Bft) S-SW 207 0 min 0,000 mm 0,0 UV-I 152 W/m 15,4 C 17,4 C 9,7 km/h (2 Bft) 95,74 %
11.07.2017 07:12 17,6 C 25,0 C 88 % 1012,2 hPa 0,0 l/m 8,7 km/h (2 Bft) SW 215 0 min 0,000 mm 0,0 UV-I 155 W/m 15,6 C 16,5 C 14,5 km/h (3 Bft) 95,74 %
11.07.2017 07:14 17,7 C 25,0 C 87 % 1012,2 hPa 0,0 l/m 8,5 km/h (2 Bft) SW 230 0 min 0,000 mm 0,0 UV-I 156 W/m 15,5 C 16,7 C 12,9 km/h (3 Bft) 100,00 %
11.07.2017 07:16 17,7 C 25,0 C 86 % 1012,2 hPa 0,0 l/m 10,4 km/h (2 Bft) W-NW 289 0 min 0,000 mm 0,0 UV-I 159 W/m 15,3 C 15,9 C 14,5 km/h (3 Bft) 95,74 %
11.07.2017 07:18 17,8 C 25,0 C 86 % 1012,2 hPa 0,0 l/m 10,3 km/h (2 Bft) W-SW 245 0 min 0,000 mm 0,0 UV-I 146 W/m 15,4 C 16,1 C 14,5 km/h (3 Bft) 98,00 %
11.07.2017 07:20 17,8 C 25,0 C 86 % 1012,2 hPa 0,0 l/m 7,5 km/h (2 Bft) W 272 0 min 0,000 mm 0,0 UV-I 127 W/m 15,4 C 17,3 C 11,3 km/h (2 Bft) 97,87 %
11.07.2017 07:22 17,8 C 25,0 C 86 % 1012,2 hPa 0,0 l/m 9,1 km/h (2 Bft) W-SW 255 0 min 0,000 mm 0,0 UV-I 114 W/m 15,4 C 16,6 C 12,9 km/h (3 Bft) 98,00 %
11.07.2017 07:24 17,8 C 25,0 C 87 % 1012,3 hPa 0,0 l/m 7,2 km/h (2 Bft) W 271 0 min 0,000 mm 0,0 UV-I 118 W/m 15,6 C 17,4 C 11,3 km/h (2 Bft) 97,87 %
11.07.2017 07:26 17,8 C 25,0 C 87 % 1012,2 hPa 0,0 l/m 10,4 km/h (2 Bft) W 263 0 min 0,000 mm 0,0 UV-I 135 W/m 15,6 C 16,1 C 16,1 km/h (3 Bft) 100,00 %
11.07.2017 07:28 17,8 C 25,0 C 86 % 1012,3 hPa 0,0 l/m 7,0 km/h (2 Bft) S-SW 213 0 min 0,000 mm 0,0 UV-I 158 W/m 15,4 C 17,5 C 11,3 km/h (2 Bft) 98,00 %
11.07.2017 07:30 17,9 C 25,0 C 86 % 1012,3 hPa 0,0 l/m 8,1 km/h (2 Bft) SW 217 0 min 0,000 mm 0,0 UV-I 181 W/m 15,5 C 17,1 C 16,1 km/h (3 Bft) 97,87 %
11.07.2017 07:32 18,0 C 25,0 C 86 % 1012,3 hPa 0,0 l/m 8,0 km/h (2 Bft) SW 227 2 min 0,000 mm 0,0 UV-I 200 W/m 15,6 C 17,3 C 12,9 km/h (3 Bft) 100,00 %
11.07.2017 07:34 18,1 C 25,0 C 85 % 1012,3 hPa 0,0 l/m 9,2 km/h (2 Bft) SW 232 2 min 0,000 mm 0,2 UV-I 255 W/m 15,5 C 16,9 C 12,9 km/h (3 Bft) 100,00 %
11.07.2017 07:36 18,2 C 25,0 C 84 % 1012,2 hPa 0,0 l/m 11,6 km/h (2 Bft) W-NW 286 2 min 0,000 mm 0,0 UV-I 206 W/m 15,4 C 16,1 C 14,5 km/h (3 Bft) 97,87 %
11.07.2017 07:38 18,2 C 25,0 C 83 % 1012,2 hPa 0,0 l/m 11,7 km/h (2 Bft) W 265 0 min 0,000 mm 0,0 UV-I 143 W/m 15,3 C 16,1 C 17,7 km/h (3 Bft) 100,00 %
11.07.2017 07:40 18,2 C 25,0 C 84 % 1012,2 hPa 0,0 l/m 7,5 km/h (2 Bft) W 259 0 min 0,000 mm 0,0 UV-I 127 W/m 15,4 C 17,7 C 11,3 km/h (2 Bft) 97,87 %
11.07.2017 07:42 18,3 C 25,0 C 84 % 1012,2 hPa 0,0 l/m 6,4 km/h (2 Bft) W-SW 242 0 min 0,000 mm 0,0 UV-I 128 W/m 15,5 C 18,3 C 11,3 km/h (2 Bft) 97,87 %
11.07.2017 07:44 18,3 C 25,0 C 84 % 1012,2 hPa 0,0 l/m 6,2 km/h (2 Bft) W-SW 257 0 min 0,000 mm 0,0 UV-I 129 W/m 15,5 C 18,3 C 12,9 km/h (3 Bft) 90,00 %
11.07.2017 07:46 18,3 C 25,0 C 85 % 1012,2 hPa 0,0 l/m 6,8 km/h (2 Bft) W-SW 252 0 min 0,000 mm 0,0 UV-I 133 W/m 15,7 C 18,1 C 11,3 km/h (2 Bft) 93,75 %
11.07.2017 07:48 18,2 C 25,0 C 84 % 1012,1 hPa 0,0 l/m 7,4 km/h (2 Bft) W-SW 239 0 min 0,000 mm 0,0 UV-I 139 W/m 15,4 C 17,7 C 12,9 km/h (3 Bft) 89,36 %
11.07.2017 07:50 18,2 C 25,0 C 84 % 1012,2 hPa 0,0 l/m 8,0 km/h (2 Bft) W 262 0 min 0,000 mm 0,0 UV-I 144 W/m 15,4 C 17,5 C 11,3 km/h (2 Bft) 89,36 %
11.07.2017 07:52 18,2 C 25,0 C 84 % 1012,2 hPa 0,0 l/m 9,6 km/h (2 Bft) W 259 0 min 0,000 mm 0,0 UV-I 148 W/m 15,4 C 16,8 C 12,9 km/h (3 Bft) 92,11 %
11.07.2017 07:54 18,3 C 25,0 C 84 % 1012,3 hPa 0,0 l/m 7,7 km/h (2 Bft) W-SW 250 0 min 0,000 mm 0,0 UV-I 143 W/m 15,5 C 17,7 C 12,9 km/h (3 Bft) 89,36 %
11.07.2017 07:56 18,3 C 25,0 C 84 % 1012,3 hPa 0,0 l/m 9,2 km/h (2 Bft) W 267 0 min 0,000 mm 0,0 UV-I 131 W/m 15,5 C 17,1 C 14,5 km/h (3 Bft) 93,62 %
11.07.2017 07:58 18,2 C 25,0 C 84 % 1012,2 hPa 0,0 l/m 10,5 km/h (2 Bft) S-SW 210 0 min 0,000 mm 0,5 UV-I 126 W/m 15,4 C 16,5 C 14,5 km/h (3 Bft) 96,00 %
11.07.2017 08:00 18,2 C 25,0 C 84 % 1012,3 hPa 0,0 l/m 7,9 km/h (2 Bft) W-SW 240 0 min 0,102 mm 0,5 UV-I 136 W/m 15,4 C 17,5 C 11,3 km/h (2 Bft) 92,00 %
11.07.2017 08:02 18,2 C 25,0 C 84 % 1012,3 hPa 0,0 l/m 5,6 km/h (1 Bft) SW 223 0 min 0,000 mm 0,5 UV-I 144 W/m 15,4 C 18,2 C 11,3 km/h (2 Bft) 93,62 %
11.07.2017 08:04 18,2 C 25,0 C 85 % 1012,3 hPa 0,0 l/m 8,0 km/h (2 Bft) SW 230 0 min 0,000 mm 0,6 UV-I 145 W/m 15,6 C 17,5 C 11,3 km/h (2 Bft) 86,84 %
11.07.2017 08:06 18,3 C 25,0 C 85 % 1012,3 hPa 0,0 l/m 4,5 km/h (1 Bft) SW 226 0 min 0,000 mm 0,6 UV-I 153 W/m 15,7 C 18,3 C 8,0 km/h (2 Bft) 95,74 %
11.07.2017 08:08 18,3 C 25,0 C 85 % 1012,3 hPa 0,0 l/m 4,6 km/h (1 Bft) SW 226 0 min 0,000 mm 0,6 UV-I 165 W/m 15,7 C 18,3 C 6,4 km/h (2 Bft) 90,00 %
11.07.2017 08:10 18,4 C 25,0 C 85 % 1012,3 hPa 0,0 l/m 5,2 km/h (1 Bft) W-SW 241 0 min 0,000 mm 0,7 UV-I 179 W/m 15,8 C 18,4 C 6,4 km/h (2 Bft) 93,62 %
11.07.2017 08:12 18,4 C 25,0 C 85 % 1012,3 hPa 0,0 l/m 4,8 km/h (1 Bft) SW 216 0 min 0,000 mm 0,7 UV-I 178 W/m 15,8 C 18,4 C 6,4 km/h (2 Bft) 93,62 %
11.07.2017 08:14 18,4 C 25,0 C 85 % 1012,3 hPa 0,0 l/m 4,2 km/h (1 Bft) W-SW 251 0 min 0,000 mm 0,7 UV-I 173 W/m 15,8 C 18,4 C 9,7 km/h (2 Bft) 91,49 %
11.07.2017 08:16 18,4 C 25,0 C 85 % 1012,3 hPa 0,0 l/m 7,1 km/h (2 Bft) W-SW 242 0 min 0,000 mm 0,8 UV-I 176 W/m 15,8 C 18,1 C 11,3 km/h (2 Bft) 93,62 %
11.07.2017 08:18 18,4 C 25,0 C 85 % 1012,4 hPa 0,0 l/m 6,1 km/h (2 Bft) S-SW 207 0 min 0,000 mm 0,8 UV-I 182 W/m 15,8 C 18,4 C 9,7 km/h (2 Bft) 97,87 %
11.07.2017 08:20 18,6 C 25,0 C 86 % 1012,4 hPa 0,0 l/m 6,2 km/h (2 Bft) W-SW 240 0 min 0,000 mm 1,0 UV-I 234 W/m 16,2 C 18,6 C 9,7 km/h (2 Bft) 96,00 %
11.07.2017 08:22 18,6 C 25,0 C 85 % 1012,4 hPa 0,0 l/m 7,0 km/h (2 Bft) S-SW 206 0 min 0,000 mm 0,9 UV-I 200 W/m 16,0 C 18,3 C 9,7 km/h (2 Bft) 95,74 %
11.07.2017 08:24 18,7 C 25,0 C 84 % 1012,5 hPa 0,0 l/m 9,1 km/h (2 Bft) SW 221 0 min 0,000 mm 1,0 UV-I 172 W/m 15,9 C 17,5 C 14,5 km/h (3 Bft) 93,75 %
11.07.2017 08:26 18,7 C 25,0 C 84 % 1012,5 hPa 0,0 l/m 7,6 km/h (2 Bft) W-SW 248 2 min 0,000 mm 1,2 UV-I 491 W/m 15,9 C 18,2 C 9,7 km/h (2 Bft) 97,56 %
11.07.2017 08:28 18,8 C 25,0 C 84 % 1012,4 hPa 0,0 l/m 6,4 km/h (2 Bft) SW 223 2 min 0,000 mm 1,2 UV-I 394 W/m 16,0 C 18,8 C 12,9 km/h (3 Bft) 93,62 %
11.07.2017 08:30 19,1 C 25,0 C 84 % 1012,4 hPa 0,0 l/m 5,2 km/h (1 Bft) W-SW 257 2 min 0,000 mm 1,3 UV-I 412 W/m 16,3 C 19,1 C 9,7 km/h (2 Bft) 96,00 %
11.07.2017 08:32 19,2 C 25,0 C 84 % 1012,4 hPa 0,0 l/m 6,7 km/h (2 Bft) S-SW 213 2 min 0,000 mm 1,2 UV-I 383 W/m 16,4 C 19,1 C 9,7 km/h (2 Bft) 95,12 %
11.07.2017 08:34 19,3 C 25,0 C 84 % 1012,4 hPa 0,0 l/m 7,5 km/h (2 Bft) W-SW 238 2 min 0,000 mm 1,5 UV-I 404 W/m 16,5 C 18,8 C 12,9 km/h (3 Bft) 97,87 %
11.07.2017 08:36 19,5 C 25,0 C 82 % 1012,4 hPa 0,0 l/m 10,2 km/h (2 Bft) SW 223 2 min 0,000 mm 1,4 UV-I 499 W/m 16,3 C 18,0 C 14,5 km/h (3 Bft) 94,00 %
11.07.2017 08:38 19,6 C 25,0 C 81 % 1012,4 hPa 0,0 l/m 7,1 km/h (2 Bft) S-SW 195 2 min 0,000 mm 1,5 UV-I 534 W/m 16,2 C 19,3 C 11,3 km/h (2 Bft) 97,87 %
11.07.2017 08:40 19,8 C 25,0 C 82 % 1012,3 hPa 0,0 l/m 5,9 km/h (2 Bft) W-SW 237 2 min 0,000 mm 1,6 UV-I 528 W/m 16,6 C 19,8 C 8,0 km/h (2 Bft) 95,74 %
11.07.2017 08:42 19,9 C 25,0 C 81 % 1012,3 hPa 0,0 l/m 8,0 km/h (2 Bft) SW 225 2 min 0,000 mm 1,6 UV-I 526 W/m 16,5 C 19,2 C 12,9 km/h (3 Bft) 95,74 %
11.07.2017 08:44 20,1 C 25,0 C 81 % 1012,3 hPa 0,0 l/m 7,3 km/h (2 Bft) W-SW 240 2 min 0,000 mm 1,6 UV-I 518 W/m 16,7 C 19,7 C 12,9 km/h (3 Bft) 95,74 %
11.07.2017 08:46 20,3 C 25,0 C 79 % 1012,3 hPa 0,0 l/m 8,4 km/h (2 Bft) S-SW 194 2 min 0,000 mm 1,7 UV-I 540 W/m 16,5 C 19,5 C 12,9 km/h (3 Bft) 96,00 %
11.07.2017 08:48 20,3 C 25,0 C 78 % 1012,3 hPa 0,0 l/m 10,2 km/h (2 Bft) SW 215 2 min 0,000 mm 1,6 UV-I 518 W/m 16,3 C 18,9 C 17,7 km/h (3 Bft) 95,74 %
11.07.2017 08:50 20,4 C 25,0 C 79 % 1012,3 hPa 0,0 l/m 9,0 km/h (2 Bft) S-SW 206 2 min 0,000 mm 1,5 UV-I 527 W/m 16,6 C 19,4 C 12,9 km/h (3 Bft) 97,87 %
11.07.2017 08:52 20,4 C 25,6 C 77 % 1012,4 hPa 0,0 l/m 12,1 km/h (2 Bft) SW 216 2 min 0,000 mm 1,8 UV-I 435 W/m 16,2 C 18,5 C 17,7 km/h (3 Bft) 93,62 %
11.07.2017 08:54 20,4 C 25,0 C 76 % 1012,4 hPa 0,0 l/m 11,3 km/h (2 Bft) W 259 2 min 0,000 mm 1,8 UV-I 538 W/m 16,0 C 18,7 C 19,3 km/h (3 Bft) 100,00 %
11.07.2017 08:56 20,5 C 25,0 C 76 % 1012,3 hPa 0,0 l/m 9,5 km/h (2 Bft) W-SW 252 2 min 0,000 mm 1,9 UV-I 538 W/m 16,1 C 19,4 C 16,1 km/h (3 Bft) 97,87 %
11.07.2017 08:58 20,6 C 25,0 C 76 % 1012,3 hPa 0,0 l/m 10,7 km/h (2 Bft) W-SW 240 2 min 0,000 mm 1,9 UV-I 539 W/m 16,2 C 19,1 C 16,1 km/h (3 Bft) 100,00 %
11.07.2017 09:00 20,7 C 25,6 C 75 % 1012,4 hPa 0,0 l/m 12,9 km/h (3 Bft) W 269 2 min 0,228 mm 1,9 UV-I 540 W/m 16,1 C 18,6 C 20,9 km/h (4 Bft) 97,87 %
11.07.2017 09:02 20,8 C 25,0 C 76 % 1012,3 hPa 0,0 l/m 12,0 km/h (2 Bft) W-SW 240 2 min 0,000 mm 2,0 UV-I 541 W/m 16,4 C 19,0 C 17,7 km/h (3 Bft) 97,87 %
11.07.2017 09:04 20,8 C 25,0 C 74 % 1012,4 hPa 0,0 l/m 12,8 km/h (3 Bft) S 186 2 min 0,000 mm 2,0 UV-I 545 W/m 16,0 C 18,7 C 17,7 km/h (3 Bft) 98,00 %
11.07.2017 09:06 20,9 C 25,0 C 76 % 1012,4 hPa 0,0 l/m 10,8 km/h (2 Bft) W-SW 244 2 min 0,000 mm 2,1 UV-I 549 W/m 16,5 C 19,4 C 16,1 km/h (3 Bft) 100,00 %
11.07.2017 09:08 20,9 C 25,0 C 74 % 1012,3 hPa 0,0 l/m 13,6 km/h (3 Bft) S-SW 205 2 min 0,000 mm 2,1 UV-I 553 W/m 16,1 C 18,7 C 20,9 km/h (4 Bft) 97,87 %
11.07.2017 09:10 21,0 C 25,0 C 74 % 1012,4 hPa 0,0 l/m 15,4 km/h (3 Bft) W-SW 251 2 min 0,000 mm 2,2 UV-I 560 W/m 16,2 C 18,4 C 24,1 km/h (4 Bft) 100,00 %
11.07.2017 09:12 21,0 C 25,6 C 74 % 1012,4 hPa 0,0 l/m 17,2 km/h (3 Bft) SW 231 2 min 0,000 mm 2,2 UV-I 564 W/m 16,2 C 18,0 C 32,2 km/h (5 Bft) 98,11 %
11.07.2017 09:14 21,1 C 25,6 C 74 % 1012,3 hPa 0,0 l/m 14,5 km/h (3 Bft) W-SW 258 2 min 0,000 mm 2,2 UV-I 569 W/m 16,3 C 18,7 C 32,2 km/h (5 Bft) 93,62 %
11.07.2017 09:16 21,1 C 25,6 C 72 % 1012,5 hPa 0,0 l/m 21,2 km/h (4 Bft) SW 232 2 min 0,000 mm 2,3 UV-I 575 W/m 15,8 C 17,4 C 35,4 km/h (5 Bft) 100,00 %
11.07.2017 09:18 21,1 C 25,6 C 71 % 1012,4 hPa 0,0 l/m 20,7 km/h (4 Bft) W-SW 255 2 min 0,000 mm 2,3 UV-I 581 W/m 15,6 C 17,5 C 30,6 km/h (5 Bft) 100,00 %
11.07.2017 09:20 21,2 C 25,6 C 72 % 1012,4 hPa 0,0 l/m 16,5 km/h (3 Bft) W-SW 254 2 min 0,000 mm 2,3 UV-I 585 W/m 15,9 C 18,4 C 22,5 km/h (4 Bft) 97,87 %
11.07.2017 09:22 21,2 C 25,6 C 70 % 1012,5 hPa 0,0 l/m 22,1 km/h (4 Bft) W-NW 294 2 min 0,000 mm 2,4 UV-I 592 W/m 15,5 C 17,4 C 32,2 km/h (5 Bft) 100,00 %
11.07.2017 09:24 21,2 C 25,6 C 70 % 1012,4 hPa 0,0 l/m 26,1 km/h (4 Bft) W 281 2 min 0,000 mm 2,4 UV-I 598 W/m 15,5 C 16,9 C 37,0 km/h (5 Bft) 95,74 %
11.07.2017 09:26 21,2 C 25,6 C 70 % 1012,4 hPa 0,0 l/m 21,1 km/h (4 Bft) W-SW 242 2 min 0,000 mm 2,5 UV-I 604 W/m 15,5 C 17,6 C 30,6 km/h (5 Bft) 97,87 %
11.07.2017 09:28 21,2 C 25,6 C 71 % 1012,5 hPa 0,0 l/m 22,5 km/h (4 Bft) W-SW 249 2 min 0,000 mm 2,6 UV-I 611 W/m 15,7 C 17,4 C 37,0 km/h (5 Bft) 94,00 %
11.07.2017 09:30 21,2 C 25,6 C 70 % 1012,4 hPa 0,0 l/m 17,9 km/h (3 Bft) SW 219 2 min 0,000 mm 2,6 UV-I 622 W/m 15,5 C 18,1 C 25,7 km/h (4 Bft) 91,49 %
11.07.2017 09:32 21,3 C 25,6 C 71 % 1012,5 hPa 0,0 l/m 17,9 km/h (3 Bft) W-SW 240 2 min 0,000 mm 2,7 UV-I 654 W/m 15,8 C 18,3 C 27,4 km/h (4 Bft) 97,87 %
11.07.2017 09:34 21,4 C 25,6 C 71 % 1012,5 hPa 0,0 l/m 14,7 km/h (3 Bft) SW 218 2 min 0,000 mm 2,7 UV-I 696 W/m 15,9 C 19,0 C 29,0 km/h (5 Bft) 97,30 %
11.07.2017 09:36 21,4 C 25,0 C 72 % 1012,4 hPa 0,0 l/m 16,1 km/h (3 Bft) SW 236 2 min 0,000 mm 2,4 UV-I 717 W/m 16,1 C 18,7 C 22,5 km/h (4 Bft) 98,11 %
11.07.2017 09:38 21,5 C 25,0 C 71 % 1012,4 hPa 0,0 l/m 19,4 km/h (3 Bft) W-SW 253 2 min 0,000 mm 2,2 UV-I 454 W/m 16,0 C 18,2 C 29,0 km/h (5 Bft) 96,23 %
11.07.2017 09:40 21,4 C 25,6 C 69 % 1012,5 hPa 0,0 l/m 20,5 km/h (4 Bft) W-SW 240 0 min 0,000 mm 2,4 UV-I 288 W/m 15,5 C 17,9 C 30,6 km/h (5 Bft) 97,44 %
11.07.2017 09:42 21,4 C 25,0 C 69 % 1012,6 hPa 0,0 l/m 25,7 km/h (4 Bft) W-SW 251 0 min 0,000 mm 1,8 UV-I 257 W/m 15,5 C 17,2 C 35,4 km/h (5 Bft) 97,87 %
11.07.2017 09:44 21,3 C 25,0 C 67 % 1012,5 hPa 0,0 l/m 25,9 km/h (4 Bft) W-SW 249 0 min 0,000 mm 1,9 UV-I 218 W/m 14,9 C 17,0 C 38,6 km/h (5 Bft) 95,83 %
11.07.2017 09:46 21,2 C 25,0 C 67 % 1012,5 hPa 0,0 l/m 22,3 km/h (4 Bft) W-SW 240 0 min 0,000 mm 1,4 UV-I 210 W/m 14,8 C 17,4 C 32,2 km/h (5 Bft) 98,00 %
11.07.2017 09:48 21,1 C 25,6 C 67 % 1012,5 hPa 0,0 l/m 20,1 km/h (4 Bft) S-SW 212 0 min 0,000 mm 1,6 UV-I 211 W/m 14,7 C 17,6 C 29,0 km/h (5 Bft) 93,62 %
11.07.2017 09:50 21,0 C 25,6 C 68 % 1012,5 hPa 0,0 l/m 15,8 km/h (3 Bft) S-SW 205 0 min 0,000 mm 1,9 UV-I 207 W/m 14,9 C 18,3 C 22,5 km/h (4 Bft) 94,00 %
11.07.2017 09:52 21,2 C 25,6 C 69 % 1012,6 hPa 0,0 l/m 17,8 km/h (3 Bft) W-SW 257 2 min 0,000 mm 3,1 UV-I 672 W/m 15,3 C 18,1 C 24,1 km/h (4 Bft) 95,74 %
11.07.2017 09:54 21,4 C 25,6 C 69 % 1012,5 hPa 0,0 l/m 16,1 km/h (3 Bft) W-NW 288 2 min 0,000 mm 2,2 UV-I 866 W/m 15,5 C 18,7 C 24,1 km/h (4 Bft) 95,83 %
11.07.2017 09:56 21,5 C 25,6 C 68 % 1012,5 hPa 0,0 l/m 17,4 km/h (3 Bft) W-SW 242 2 min 0,000 mm 3,2 UV-I 812 W/m 15,3 C 18,6 C 29,0 km/h (5 Bft) 100,00 %
11.07.2017 09:58 21,6 C 25,6 C 67 % 1012,6 hPa 0,0 l/m 19,5 km/h (3 Bft) W 271 2 min 0,000 mm 2,9 UV-I 723 W/m 15,2 C 18,4 C 29,0 km/h (5 Bft) 96,00 %
11.07.2017 10:00 21,6 C 25,6 C 68 % 1012,6 hPa 0,0 l/m 14,0 km/h (3 Bft) W 266 2 min 0,000 mm 3,4 UV-I 770 W/m 15,4 C 19,4 C 20,9 km/h (4 Bft) 96,00 %
11.07.2017 10:02 21,8 C 25,6 C 68 % 1012,6 hPa 0,0 l/m 16,5 km/h (3 Bft) W-NW 284 2 min 0,407 mm 3,5 UV-I 812 W/m 15,6 C 19,1 C 25,7 km/h (4 Bft) 97,87 %
11.07.2017 10:04 21,9 C 25,6 C 65 % 1012,6 hPa 0,0 l/m 16,8 km/h (3 Bft) W-SW 247 2 min 0,000 mm 2,6 UV-I 642 W/m 15,0 C 19,2 C 29,0 km/h (5 Bft) 95,74 %
11.07.2017 10:06 21,8 C 25,6 C 65 % 1012,6 hPa 0,0 l/m 23,2 km/h (4 Bft) W 273 0 min 0,000 mm 3,2 UV-I 236 W/m 14,9 C 18,1 C 35,4 km/h (5 Bft) 97,37 %
11.07.2017 10:08 21,8 C 25,6 C 66 % 1012,5 hPa 0,0 l/m 20,3 km/h (4 Bft) W 267 2 min 0,000 mm 3,6 UV-I 749 W/m 15,2 C 18,5 C 29,0 km/h (5 Bft) 97,87 %
11.07.2017 10:10 21,9 C 25,6 C 67 % 1012,6 hPa 0,0 l/m 15,4 km/h (3 Bft) W-SW 238 2 min 0,000 mm 3,7 UV-I 750 W/m 15,5 C 19,5 C 30,6 km/h (5 Bft) 100,00 %
11.07.2017 10:12 22,1 C 25,6 C 64 % 1012,6 hPa 0,0 l/m 24,3 km/h (4 Bft) W-SW 241 2 min 0,000 mm 3,7 UV-I 792 W/m 15,0 C 18,3 C 40,2 km/h (6 Bft) 96,23 %
11.07.2017 10:14 22,1 C 25,6 C 65 % 1012,6 hPa 0,0 l/m 21,5 km/h (4 Bft) W 263 2 min 0,000 mm 3,2 UV-I 781 W/m 15,2 C 18,7 C 33,8 km/h (5 Bft) 100,00 %
11.07.2017 10:16 22,2 C 25,6 C 63 % 1012,6 hPa 0,0 l/m 24,5 km/h (4 Bft) W-SW 254 2 min 0,000 mm 3,8 UV-I 791 W/m 14,8 C 18,4 C 37,0 km/h (5 Bft) 97,87 %
11.07.2017 10:18 22,3 C 25,6 C 65 % 1012,6 hPa 0,0 l/m 19,8 km/h (3 Bft) W-SW 238 2 min 0,000 mm 3,8 UV-I 784 W/m 15,4 C 19,2 C 27,4 km/h (4 Bft) 100,00 %
11.07.2017 10:20 22,3 C 25,6 C 63 % 1012,6 hPa 0,0 l/m 17,4 km/h (3 Bft) W-SW 253 2 min 0,000 mm 3,8 UV-I 769 W/m 14,9 C 19,6 C 30,6 km/h (5 Bft) 95,74 %
11.07.2017 10:22 22,3 C 25,6 C 62 % 1012,7 hPa 0,0 l/m 22,7 km/h (4 Bft) W-SW 248 2 min 0,000 mm 3,9 UV-I 767 W/m 14,7 C 18,8 C 35,4 km/h (5 Bft) 100,00 %
11.07.2017 10:24 22,3 C 25,6 C 63 % 1012,6 hPa 0,0 l/m 17,6 km/h (3 Bft) W 261 2 min 0,000 mm 4,0 UV-I 800 W/m 14,9 C 19,6 C 27,4 km/h (4 Bft) 91,49 %
11.07.2017 10:26 22,4 C 25,6 C 63 % 1012,6 hPa 0,0 l/m 21,9 km/h (4 Bft) SW 233 2 min 0,000 mm 3,5 UV-I 838 W/m 15,0 C 19,0 C 38,6 km/h (5 Bft) 94,74 %
11.07.2017 10:28 22,4 C 25,6 C 61 % 1012,7 hPa 0,0 l/m 21,0 km/h (4 Bft) W-SW 254 2 min 0,000 mm 3,6 UV-I 844 W/m 14,5 C 19,2 C 30,6 km/h (5 Bft) 100,00 %
11.07.2017 10:30 22,4 C 25,6 C 62 % 1012,7 hPa 0,0 l/m 20,2 km/h (4 Bft) W-SW 254 2 min 0,000 mm 4,2 UV-I 824 W/m 14,8 C 19,3 C 32,2 km/h (5 Bft) 100,00 %
11.07.2017 10:32 22,6 C 25,6 C 62 % 1012,8 hPa 0,0 l/m 22,4 km/h (4 Bft) W-SW 253 2 min 0,000 mm 4,2 UV-I 857 W/m 14,9 C 19,2 C 33,8 km/h (5 Bft) 98,00 %
11.07.2017 10:34 22,6 C 25,6 C 60 % 1012,8 hPa 0,0 l/m 27,9 km/h (4 Bft) SW 224 2 min 0,000 mm 4,2 UV-I 834 W/m 14,4 C 18,6 C 38,6 km/h (5 Bft) 95,74 %
11.07.2017 10:36 22,6 C 25,6 C 60 % 1012,7 hPa 0,0 l/m 21,0 km/h (4 Bft) S-SO 160 2 min 0,000 mm 4,3 UV-I 852 W/m 14,4 C 19,4 C 30,6 km/h (5 Bft) 95,83 %
11.07.2017 10:38 22,8 C 25,6 C 62 % 1012,7 hPa 0,0 l/m 16,6 km/h (3 Bft) W-SW 254 2 min 0,000 mm 4,3 UV-I 865 W/m 15,1 C 20,4 C 30,6 km/h (5 Bft) 97,87 %
11.07.2017 10:40 23,0 C 25,6 C 60 % 1012,7 hPa 0,0 l/m 18,7 km/h (3 Bft) W 261 2 min 0,000 mm 4,1 UV-I 910 W/m 14,8 C 20,3 C 29,0 km/h (5 Bft) 100,00 %
11.07.2017 10:42 23,1 C 25,6 C 59 % 1012,8 hPa 0,0 l/m 19,6 km/h (3 Bft) W 259 0 min 0,000 mm 3,9 UV-I 377 W/m 14,6 C 20,3 C 29,0 km/h (5 Bft) 97,87 %
11.07.2017 10:44 22,9 C 25,6 C 60 % 1012,7 hPa 0,0 l/m 16,5 km/h (3 Bft) S-SW 209 0 min 0,000 mm 4,1 UV-I 366 W/m 14,7 C 20,5 C 27,4 km/h (4 Bft) 97,87 %
11.07.2017 10:46 22,8 C 25,6 C 61 % 1012,8 hPa 0,0 l/m 10,2 km/h (2 Bft) W-NW 286 0 min 0,000 mm 2,2 UV-I 296 W/m 14,9 C 21,7 C 22,5 km/h (4 Bft) 93,62 %
11.07.2017 10:48 22,6 C 25,6 C 61 % 1012,8 hPa 0,0 l/m 10,9 km/h (2 Bft) W-SW 254 0 min 0,000 mm 4,1 UV-I 211 W/m 14,7 C 21,3 C 25,7 km/h (4 Bft) 97,87 %
11.07.2017 10:50 22,6 C 25,6 C 61 % 1012,8 hPa 0,0 l/m 12,9 km/h (3 Bft) W-NW 285 0 min 0,000 mm 2,3 UV-I 208 W/m 14,7 C 20,8 C 24,1 km/h (4 Bft) 100,00 %
11.07.2017 10:52 22,3 C 25,6 C 63 % 1012,9 hPa 0,0 l/m 13,2 km/h (3 Bft) W 259 0 min 0,000 mm 3,0 UV-I 159 W/m 14,9 C 20,4 C 22,5 km/h (4 Bft) 100,00 %
11.07.2017 10:54 22,2 C 25,6 C 62 % 1012,9 hPa 0,0 l/m 17,1 km/h (3 Bft) W-NW 298 0 min 0,000 mm 2,9 UV-I 161 W/m 14,6 C 19,5 C 25,7 km/h (4 Bft) 98,00 %
11.07.2017 10:56 22,1 C 25,6 C 61 % 1012,9 hPa 0,0 l/m 18,5 km/h (3 Bft) SW 236 0 min 0,000 mm 4,0 UV-I 171 W/m 14,2 C 19,2 C 32,2 km/h (5 Bft) 98,00 %
11.07.2017 10:58 22,1 C 25,6 C 62 % 1012,9 hPa 0,0 l/m 16,1 km/h (3 Bft) W-SW 257 0 min 0,000 mm 3,1 UV-I 115 W/m 14,5 C 19,6 C 27,4 km/h (4 Bft) 97,87 %
11.07.2017 11:00 22,2 C 25,6 C 62 % 1012,9 hPa 0,0 l/m 18,0 km/h (3 Bft) W-SW 242 2 min 0,482 mm 4,8 UV-I 858 W/m 14,6 C 19,4 C 30,6 km/h (5 Bft) 100,00 %
11.07.2017 11:02 22,4 C 25,6 C 62 % 1012,9 hPa 0,0 l/m 9,5 km/h (2 Bft) W 266 2 min 0,000 mm 5,0 UV-I 858 W/m 14,8 C 21,4 C 17,7 km/h (3 Bft) 97,87 %
11.07.2017 11:04 22,6 C 25,6 C 61 % 1012,9 hPa 0,0 l/m 11,9 km/h (2 Bft) W 273 0 min 0,000 mm 3,2 UV-I 363 W/m 14,7 C 21,0 C 20,9 km/h (4 Bft) 97,87 %
11.07.2017 11:06 22,6 C 25,6 C 60 % 1012,8 hPa 0,0 l/m 18,6 km/h (3 Bft) W-SW 238 0 min 0,000 mm 2,8 UV-I 279 W/m 14,4 C 19,8 C 29,0 km/h (5 Bft) 98,00 %
11.07.2017 11:08 22,5 C 25,6 C 60 % 1012,9 hPa 0,0 l/m 19,9 km/h (4 Bft) SW 227 2 min 0,000 mm 3,8 UV-I 495 W/m 14,3 C 19,5 C 24,1 km/h (4 Bft) 96,00 %
11.07.2017 11:10 22,6 C 25,6 C 61 % 1013,0 hPa 0,0 l/m 16,8 km/h (3 Bft) W-SW 242 2 min 0,000 mm 4,0 UV-I 962 W/m 14,7 C 20,1 C 25,7 km/h (4 Bft) 97,14 %
11.07.2017 11:12 22,8 C 25,6 C 63 % 1013,0 hPa 0,0 l/m 13,2 km/h (3 Bft) NW 314 2 min 0,000 mm 4,2 UV-I 986 W/m 15,4 C 21,0 C 17,7 km/h (3 Bft) 98,00 %
11.07.2017 11:14 23,0 C 25,6 C 57 % 1012,9 hPa 0,0 l/m 13,1 km/h (3 Bft) W-SW 248 2 min 0,000 mm 4,7 UV-I 986 W/m 14,0 C 21,3 C 32,2 km/h (5 Bft) 100,00 %
11.07.2017 11:16 23,0 C 25,6 C 58 % 1013,0 hPa 0,0 l/m 20,4 km/h (4 Bft) W 267 2 min 0,000 mm 5,2 UV-I 947 W/m 14,3 C 20,0 C 32,2 km/h (5 Bft) 97,87 %
11.07.2017 11:18 23,1 C 25,6 C 58 % 1013,0 hPa 0,0 l/m 21,0 km/h (4 Bft) SW 229 2 min 0,000 mm 5,2 UV-I 923 W/m 14,4 C 20,1 C 33,8 km/h (5 Bft) 100,00 %
11.07.2017 11:20 23,1 C 25,6 C 59 % 1013,0 hPa 0,0 l/m 18,4 km/h (3 Bft) W-SW 247 2 min 0,000 mm 5,3 UV-I 911 W/m 14,6 C 20,4 C 27,4 km/h (4 Bft) 97,87 %
11.07.2017 11:22 23,2 C 25,6 C 58 % 1012,9 hPa 0,0 l/m 14,6 km/h (3 Bft) SW 223 2 min 0,000 mm 5,0 UV-I 935 W/m 14,5 C 21,2 C 25,7 km/h (4 Bft) 100,00 %
11.07.2017 11:24 23,4 C 25,6 C 60 % 1013,0 hPa 0,0 l/m 18,9 km/h (3 Bft) W-SW 243 2 min 0,000 mm 4,3 UV-I 981 W/m 15,2 C 20,8 C 27,4 km/h (4 Bft) 98,00 %
11.07.2017 11:26 23,3 C 25,6 C 55 % 1013,0 hPa 0,0 l/m 19,7 km/h (3 Bft) W-SW 249 0 min 0,000 mm 3,0 UV-I 328 W/m 13,7 C 20,5 C 30,6 km/h (5 Bft) 96,00 %
11.07.2017 11:28 23,1 C 25,6 C 58 % 1013,1 hPa 0,0 l/m 17,0 km/h (3 Bft) W 263 0 min 0,000 mm 4,0 UV-I 188 W/m 14,4 C 20,7 C 30,6 km/h (5 Bft) 94,00 %
11.07.2017 11:30 23,1 C 25,6 C 59 % 1013,0 hPa 0,0 l/m 17,7 km/h (3 Bft) W 274 0 min 0,000 mm 5,0 UV-I 188 W/m 14,6 C 20,6 C 29,0 km/h (5 Bft) 97,87 %
11.07.2017 11:32 22,9 C 25,6 C 58 % 1013,0 hPa 0,0 l/m 18,4 km/h (3 Bft) W 269 0 min 0,000 mm 3,4 UV-I 209 W/m 14,2 C 20,2 C 33,8 km/h (5 Bft) 96,00 %
11.07.2017 11:34 22,9 C 25,6 C 58 % 1013,0 hPa 0,0 l/m 15,3 km/h (3 Bft) N-NW 340 2 min 0,000 mm 5,6 UV-I 462 W/m 14,2 C 20,7 C 32,2 km/h (5 Bft) 88,89 %
11.07.2017 11:36 22,9 C 25,6 C 59 % 1013,1 hPa 0,0 l/m 19,1 km/h (3 Bft) W 259 0 min 0,000 mm 3,2 UV-I 298 W/m 14,5 C 20,1 C 32,2 km/h (5 Bft) 94,00 %
11.07.2017 11:38 22,8 C 25,6 C 59 % 1013,0 hPa 0,0 l/m 21,2 km/h (4 Bft) W 281 0 min 0,000 mm 2,5 UV-I 175 W/m 14,4 C 19,7 C 29,0 km/h (5 Bft) 94,00 %
11.07.2017 11:40 22,9 C 25,6 C 60 % 1013,0 hPa 0,0 l/m 18,0 km/h (3 Bft) W-SW 242 2 min 0,000 mm 5,2 UV-I 608 W/m 14,7 C 20,3 C 24,1 km/h (4 Bft) 94,00 %
11.07.2017 11:42 23,1 C 25,6 C 60 % 1013,0 hPa 0,0 l/m 15,8 km/h (3 Bft) W-SW 238 2 min 0,000 mm 5,8 UV-I 937 W/m 14,9 C 20,9 C 22,5 km/h (4 Bft) 93,62 %
11.07.2017 11:44 23,3 C 25,6 C 59 % 1013,0 hPa 0,0 l/m 17,8 km/h (3 Bft) W-SW 246 2 min 0,000 mm 5,8 UV-I 926 W/m 14,8 C 20,8 C 27,4 km/h (4 Bft) 93,62 %
11.07.2017 11:46 23,6 C 25,6 C 57 % 1013,0 hPa 0,0 l/m 17,4 km/h (3 Bft) W-SW 249 2 min 0,000 mm 5,9 UV-I 911 W/m 14,6 C 21,2 C 27,4 km/h (4 Bft) 93,62 %
11.07.2017 11:48 23,7 C 25,6 C 57 % 1012,9 hPa 0,0 l/m 13,4 km/h (3 Bft) W 263 2 min 0,000 mm 5,9 UV-I 926 W/m 14,7 C 22,0 C 20,9 km/h (4 Bft) 93,62 %
11.07.2017 11:50 23,8 C 25,6 C 58 % 1012,9 hPa 0,0 l/m 11,7 km/h (2 Bft) SW 225 2 min 0,000 mm 5,9 UV-I 930 W/m 15,0 C 22,5 C 27,4 km/h (4 Bft) 89,36 %
11.07.2017 11:52 24,1 C 25,6 C 56 % 1013,0 hPa 0,0 l/m 16,1 km/h (3 Bft) W 262 2 min 0,000 mm 5,9 UV-I 911 W/m 14,8 C 22,0 C 25,7 km/h (4 Bft) 93,62 %
11.07.2017 11:54 24,2 C 25,6 C 56 % 1013,0 hPa 0,0 l/m 13,9 km/h (3 Bft) W-NW 296 2 min 0,000 mm 5,1 UV-I 998 W/m 14,9 C 22,5 C 29,0 km/h (5 Bft) 93,62 %
11.07.2017 11:56 24,2 C 25,6 C 55 % 1012,9 hPa 0,0 l/m 10,8 km/h (2 Bft) W 277 2 min 0,000 mm 5,9 UV-I 1014 W/m 14,6 C 23,1 C 17,7 km/h (3 Bft) 91,49 %
11.07.2017 11:58 24,2 C 25,6 C 55 % 1012,9 hPa 0,0 l/m 11,6 km/h (2 Bft) W 269 2 min 0,000 mm 5,9 UV-I 1014 W/m 14,6 C 22,9 C 20,9 km/h (4 Bft) 89,36 %
11.07.2017 12:00 24,1 C 25,6 C 54 % 1013,0 hPa 0,0 l/m 12,8 km/h (3 Bft) SW 223 2 min 0,508 mm 3,6 UV-I 1014 W/m 14,2 C 22,6 C 25,7 km/h (4 Bft) 93,62 %
11.07.2017 12:02 24,1 C 25,6 C 55 % 1012,9 hPa 0,0 l/m 11,6 km/h (2 Bft) W-NW 288 2 min 0,000 mm 5,9 UV-I 983 W/m 14,5 C 22,8 C 22,5 km/h (4 Bft) 91,49 %
11.07.2017 12:04 24,0 C 25,6 C 55 % 1013,0 hPa 0,0 l/m 10,8 km/h (2 Bft) W-SW 257 2 min 0,000 mm 4,1 UV-I 879 W/m 14,4 C 22,9 C 17,7 km/h (3 Bft) 93,62 %
11.07.2017 12:06 23,9 C 25,6 C 54 % 1013,0 hPa 0,0 l/m 17,3 km/h (3 Bft) W 272 0 min 0,000 mm 4,6 UV-I 359 W/m 14,0 C 21,6 C 25,7 km/h (4 Bft) 94,44 %
11.07.2017 12:08 23,9 C 25,6 C 55 % 1012,9 hPa 0,0 l/m 16,2 km/h (3 Bft) W 274 2 min 0,000 mm 5,7 UV-I 884 W/m 14,3 C 21,8 C 27,4 km/h (4 Bft) 95,92 %
11.07.2017 12:10 24,0 C 25,6 C 54 % 1013,0 hPa 0,0 l/m 14,0 km/h (3 Bft) SW 236 2 min 0,000 mm 4,7 UV-I 778 W/m 14,1 C 22,3 C 22,5 km/h (4 Bft) 95,74 %
11.07.2017 12:12 24,0 C 25,6 C 54 % 1013,0 hPa 0,0 l/m 18,1 km/h (3 Bft) W-SW 251 0 min 0,000 mm 4,2 UV-I 423 W/m 14,1 C 21,6 C 33,8 km/h (5 Bft) 92,16 %
11.07.2017 12:14 23,9 C 25,6 C 53 % 1013,0 hPa 0,0 l/m 17,9 km/h (3 Bft) W 261 2 min 0,000 mm 6,4 UV-I 733 W/m 13,7 C 21,5 C 30,6 km/h (5 Bft) 95,65 %
11.07.2017 12:16 23,9 C 25,6 C 55 % 1013,0 hPa 0,0 l/m 14,9 km/h (3 Bft) SW 221 2 min 0,000 mm 6,3 UV-I 1057 W/m 14,3 C 22,0 C 25,7 km/h (4 Bft) 95,83 %
11.07.2017 12:18 23,9 C 25,6 C 55 % 1013,0 hPa 0,0 l/m 16,4 km/h (3 Bft) W-SW 257 2 min 0,000 mm 4,6 UV-I 1074 W/m 14,3 C 21,8 C 27,4 km/h (4 Bft) 95,74 %
11.07.2017 12:20 23,9 C 25,6 C 54 % 1013,0 hPa 0,0 l/m 16,1 km/h (3 Bft) W-NW 298 0 min 0,000 mm 4,6 UV-I 450 W/m 14,0 C 21,8 C 27,4 km/h (4 Bft) 97,87 %
11.07.2017 12:22 23,9 C 25,6 C 55 % 1012,9 hPa 0,0 l/m 12,9 km/h (3 Bft) W-SW 249 2 min 0,000 mm 5,4 UV-I 1078 W/m 14,3 C 22,3 C 20,9 km/h (4 Bft) 94,00 %
11.07.2017 12:24 23,9 C 25,6 C 54 % 1012,9 hPa 0,0 l/m 14,7 km/h (3 Bft) W 276 2 min 0,000 mm 5,1 UV-I 1062 W/m 14,0 C 22,0 C 27,4 km/h (4 Bft) 95,74 %
11.07.2017 12:26 23,8 C 25,6 C 54 % 1013,0 hPa 0,0 l/m 14,0 km/h (3 Bft) W 274 2 min 0,000 mm 2,6 UV-I 634 W/m 13,9 C 22,0 C 25,7 km/h (4 Bft) 97,37 %
11.07.2017 12:28 23,7 C 25,6 C 55 % 1012,9 hPa 0,0 l/m 12,7 km/h (3 Bft) W 261 0 min 0,000 mm 3,6 UV-I 239 W/m 14,1 C 22,2 C 20,9 km/h (4 Bft) 95,74 %
11.07.2017 12:30 23,6 C 25,6 C 54 % 1012,9 hPa 0,0 l/m 17,3 km/h (3 Bft) W 281 0 min 0,000 mm 2,8 UV-I 264 W/m 13,7 C 21,2 C 25,7 km/h (4 Bft) 96,00 %
11.07.2017 12:32 23,4 C 25,6 C 55 % 1013,0 hPa 0,0 l/m 10,5 km/h (2 Bft) W 272 0 min 0,000 mm 4,0 UV-I 327 W/m 13,8 C 22,3 C 16,1 km/h (3 Bft) 93,62 %
11.07.2017 12:34 23,4 C 25,6 C 55 % 1012,9 hPa 0,0 l/m 12,6 km/h (3 Bft) W-NW 288 0 min 0,000 mm 3,2 UV-I 327 W/m 13,8 C 21,8 C 22,5 km/h (4 Bft) 95,74 %
11.07.2017 12:36 23,4 C 25,6 C 55 % 1012,9 hPa 0,0 l/m 12,1 km/h (2 Bft) W-SW 242 0 min 0,000 mm 3,3 UV-I 338 W/m 13,8 C 21,9 C 19,3 km/h (3 Bft) 95,74 %
11.07.2017 12:38 23,4 C 25,6 C 55 % 1012,9 hPa 0,0 l/m 11,3 km/h (2 Bft) W-SW 254 0 min 0,000 mm 3,4 UV-I 333 W/m 13,8 C 22,1 C 19,3 km/h (3 Bft) 100,00 %
11.07.2017 12:40 23,4 C 25,6 C 55 % 1012,8 hPa 0,0 l/m 13,2 km/h (3 Bft) W-SW 244 0 min 0,000 mm 3,2 UV-I 362 W/m 13,8 C 21,7 C 20,9 km/h (4 Bft) 97,87 %
11.07.2017 12:42 23,5 C 25,6 C 55 % 1012,8 hPa 0,0 l/m 13,1 km/h (3 Bft) W 273 0 min 0,000 mm 3,7 UV-I 370 W/m 13,9 C 21,8 C 20,9 km/h (4 Bft) 97,87 %
11.07.2017 12:44 23,6 C 25,6 C 54 % 1012,8 hPa 0,0 l/m 10,9 km/h (2 Bft) W 280 0 min 0,000 mm 4,4 UV-I 405 W/m 13,7 C 22,4 C 22,5 km/h (4 Bft) 95,74 %
11.07.2017 12:46 23,6 C 25,6 C 55 % 1012,8 hPa 0,0 l/m 8,0 km/h (2 Bft) W-SW 250 0 min 0,000 mm 2,7 UV-I 236 W/m 14,0 C 23,1 C 12,9 km/h (3 Bft) 91,49 %
11.07.2017 12:48 23,8 C 25,6 C 56 % 1012,8 hPa 0,0 l/m 11,5 km/h (2 Bft) W-NW 285 2 min 0,000 mm 5,5 UV-I 507 W/m 14,5 C 22,5 C 19,3 km/h (3 Bft) 100,00 %
11.07.2017 12:50 23,9 C 25,6 C 55 % 1012,8 hPa 0,0 l/m 11,2 km/h (2 Bft) W-NW 290 2 min 0,000 mm 5,3 UV-I 1052 W/m 14,3 C 22,7 C 19,3 km/h (3 Bft) 97,87 %
11.07.2017 12:52 23,9 C 25,6 C 56 % 1012,7 hPa 0,0 l/m 9,4 km/h (2 Bft) W 277 0 min 0,000 mm 3,1 UV-I 258 W/m 14,6 C 23,1 C 17,7 km/h (3 Bft) 100,00 %
11.07.2017 12:54 23,9 C 25,6 C 55 % 1012,7 hPa 0,0 l/m 7,7 km/h (2 Bft) W 270 0 min 0,000 mm 2,9 UV-I 258 W/m 14,3 C 23,5 C 20,9 km/h (4 Bft) 97,44 %
11.07.2017 12:56 23,7 C 25,6 C 56 % 1012,7 hPa 0,0 l/m 12,9 km/h (3 Bft) SW 219 0 min 0,000 mm 2,4 UV-I 188 W/m 14,4 C 22,1 C 19,3 km/h (3 Bft) 100,00 %
11.07.2017 12:58 23,6 C 25,6 C 56 % 1012,7 hPa 0,0 l/m 9,5 km/h (2 Bft) W-SW 255 0 min 0,000 mm 2,2 UV-I 168 W/m 14,3 C 22,7 C 16,1 km/h (3 Bft) 96,00 %
11.07.2017 13:00 23,4 C 25,6 C 56 % 1012,8 hPa 0,0 l/m 11,9 km/h (2 Bft) W 267 0 min 0,407 mm 2,8 UV-I 219 W/m 14,1 C 22,0 C 19,3 km/h (3 Bft) 100,00 %
11.07.2017 13:02 23,4 C 25,6 C 57 % 1012,8 hPa 0,0 l/m 14,3 km/h (3 Bft) W-NW 287 0 min 0,000 mm 3,6 UV-I 265 W/m 14,4 C 21,5 C 24,1 km/h (4 Bft) 96,00 %
11.07.2017 13:04 23,5 C 25,6 C 56 % 1012,8 hPa 0,0 l/m 19,4 km/h (3 Bft) W-SW 250 0 min 0,000 mm 5,8 UV-I 301 W/m 14,2 C 20,8 C 25,7 km/h (4 Bft) 97,37 %
11.07.2017 13:06 23,6 C 25,6 C 56 % 1012,8 hPa 0,0 l/m 14,0 km/h (3 Bft) W 260 0 min 0,000 mm 2,8 UV-I 270 W/m 14,3 C 21,8 C 20,9 km/h (4 Bft) 95,74 %
11.07.2017 13:08 23,5 C 25,6 C 55 % 1012,8 hPa 0,0 l/m 9,6 km/h (2 Bft) W 261 0 min 0,000 mm 2,6 UV-I 244 W/m 13,9 C 22,6 C 16,1 km/h (3 Bft) 100,00 %
11.07.2017 13:10 23,4 C 25,6 C 56 % 1012,9 hPa 0,0 l/m 13,2 km/h (3 Bft) SW 229 0 min 0,000 mm 3,0 UV-I 328 W/m 14,1 C 21,7 C 25,7 km/h (4 Bft) 98,00 %
11.07.2017 13:12 23,6 C 25,6 C 57 % 1012,8 hPa 0,0 l/m 12,9 km/h (3 Bft) SW 223 0 min 0,000 mm 5,4 UV-I 348 W/m 14,6 C 22,0 C 20,9 km/h (4 Bft) 100,00 %
11.07.2017 13:14 23,9 C 25,6 C 56 % 1012,8 hPa 0,0 l/m 16,8 km/h (3 Bft) SW 223 0 min 0,000 mm 3,8 UV-I 346 W/m 14,6 C 21,7 C 25,7 km/h (4 Bft) 97,87 %
11.07.2017 13:16 24,0 C 25,6 C 53 % 1012,9 hPa 0,0 l/m 15,8 km/h (3 Bft) W-SW 257 0 min 0,000 mm 4,0 UV-I 384 W/m 13,8 C 22,0 C 20,9 km/h (4 Bft) 100,00 %
11.07.2017 13:18 24,1 C 25,6 C 55 % 1012,8 hPa 0,0 l/m 12,5 km/h (3 Bft) S-SW 205 0 min 0,000 mm 3,3 UV-I 362 W/m 14,5 C 22,7 C 19,3 km/h (3 Bft) 100,00 %
11.07.2017 13:20 24,2 C 25,6 C 54 % 1012,8 hPa 0,0 l/m 12,9 km/h (3 Bft) W-SW 248 0 min 0,000 mm 2,9 UV-I 317 W/m 14,3 C 22,7 C 22,5 km/h (4 Bft) 100,00 %
11.07.2017 13:22 24,1 C 25,6 C 53 % 1012,9 hPa 0,0 l/m 14,8 km/h (3 Bft) W-SW 244 0 min 0,000 mm 2,6 UV-I 290 W/m 13,9 C 22,2 C 20,9 km/h (4 Bft) 100,00 %
11.07.2017 13:24 24,0 C 25,6 C 54 % 1012,9 hPa 0,0 l/m 13,6 km/h (3 Bft) W-SW 248 0 min 0,000 mm 4,4 UV-I 337 W/m 14,1 C 22,3 C 19,3 km/h (3 Bft) 98,00 %
11.07.2017 13:26 24,3 C 25,6 C 54 % 1012,9 hPa 0,0 l/m 10,5 km/h (2 Bft) W 281 2 min 0,000 mm 6,9 UV-I 1050 W/m 14,4 C 23,3 C 17,7 km/h (3 Bft) 96,00 %
11.07.2017 13:28 24,4 C 25,6 C 53 % 1012,9 hPa 0,0 l/m 13,6 km/h (3 Bft) W 268 2 min 0,000 mm 6,8 UV-I 994 W/m 14,2 C 22,8 C 20,9 km/h (4 Bft) 95,74 %
11.07.2017 13:30 24,6 C 25,6 C 54 % 1012,9 hPa 0,0 l/m 13,8 km/h (3 Bft) W-SW 250 2 min 0,000 mm 6,7 UV-I 985 W/m 14,7 C 23,0 C 24,1 km/h (4 Bft) 93,62 %
11.07.2017 13:32 24,9 C 25,6 C 53 % 1012,8 hPa 0,0 l/m 14,0 km/h (3 Bft) W-SW 243 2 min 0,000 mm 6,6 UV-I 963 W/m 14,6 C 23,3 C 27,4 km/h (4 Bft) 97,87 %
11.07.2017 13:34 24,9 C 25,6 C 52 % 1012,9 hPa 0,0 l/m 12,8 km/h (3 Bft) W 265 2 min 0,000 mm 4,5 UV-I 940 W/m 14,4 C 23,5 C 22,5 km/h (4 Bft) 93,62 %
11.07.2017 13:36 24,8 C 25,6 C 52 % 1012,8 hPa 0,0 l/m 13,0 km/h (3 Bft) W-SW 243 2 min 0,000 mm 4,3 UV-I 745 W/m 14,3 C 23,4 C 20,9 km/h (4 Bft) 97,44 %
11.07.2017 13:38 24,6 C 25,6 C 52 % 1012,8 hPa 0,0 l/m 11,7 km/h (2 Bft) W-SW 253 2 min 0,000 mm 5,8 UV-I 601 W/m 14,1 C 23,4 C 16,1 km/h (3 Bft) 98,00 %
11.07.2017 13:40 24,7 C 25,6 C 53 % 1012,7 hPa 0,0 l/m 13,6 km/h (3 Bft) W-SW 242 2 min 0,000 mm 5,9 UV-I 971 W/m 14,5 C 23,2 C 22,5 km/h (4 Bft) 93,88 %
11.07.2017 13:42 24,8 C 25,6 C 52 % 1012,6 hPa 0,0 l/m 8,8 km/h (2 Bft) SW 221 2 min 0,000 mm 5,9 UV-I 1001 W/m 14,3 C 24,2 C 12,9 km/h (3 Bft) 93,62 %
11.07.2017 13:44 24,7 C 25,6 C 52 % 1012,6 hPa 0,0 l/m 11,5 km/h (2 Bft) W 277 2 min 0,000 mm 3,7 UV-I 620 W/m 14,2 C 23,5 C 16,1 km/h (3 Bft) 97,87 %
11.07.2017 13:46 24,7 C 26,1 C 54 % 1012,5 hPa 0,0 l/m 17,3 km/h (3 Bft) SW 232 0 min 0,000 mm 5,3 UV-I 315 W/m 14,8 C 22,6 C 25,7 km/h (4 Bft) 93,62 %
11.07.2017 13:48 24,9 C 26,1 C 52 % 1012,5 hPa 0,0 l/m 14,8 km/h (3 Bft) W 266 2 min 0,000 mm 6,3 UV-I 907 W/m 14,4 C 23,2 C 20,9 km/h (4 Bft) 96,15 %
11.07.2017 13:50 25,1 C 26,1 C 53 % 1012,6 hPa 0,0 l/m 13,2 km/h (3 Bft) W 269 2 min 0,000 mm 6,5 UV-I 949 W/m 14,8 C 23,7 C 17,7 km/h (3 Bft) 94,59 %
11.07.2017 13:52 25,3 C 26,1 C 50 % 1012,5 hPa 0,0 l/m 11,2 km/h (2 Bft) W 262 2 min 0,000 mm 6,2 UV-I 962 W/m 14,1 C 24,3 C 17,7 km/h (3 Bft) 96,00 %
11.07.2017 13:54 25,2 C 26,1 C 50 % 1012,5 hPa 0,0 l/m 10,6 km/h (2 Bft) W 275 2 min 0,000 mm 4,6 UV-I 780 W/m 14,0 C 24,3 C 16,1 km/h (3 Bft) 93,62 %
11.07.2017 13:56 25,2 C 26,1 C 51 % 1012,5 hPa 0,0 l/m 16,7 km/h (3 Bft) W-SW 252 2 min 0,000 mm 4,6 UV-I 623 W/m 14,3 C 23,3 C 24,1 km/h (4 Bft) 93,62 %
11.07.2017 13:58 25,2 C 26,1 C 51 % 1012,5 hPa 0,0 l/m 16,6 km/h (3 Bft) W 269 2 min 0,000 mm 5,8 UV-I 897 W/m 14,3 C 23,3 C 24,1 km/h (4 Bft) 97,96 %
11.07.2017 14:00 25,2 C 26,1 C 51 % 1012,5 hPa 0,0 l/m 10,9 km/h (2 Bft) SW 229 2 min 0,508 mm 3,9 UV-I 868 W/m 14,3 C 24,2 C 17,7 km/h (3 Bft) 97,87 %
11.07.2017 14:03 25,1 C 26,1 C 51 % 1012,5 hPa 0,0 l/m 14,7 km/h (3 Bft) SW 228 0 min 0,000 mm 4,6 UV-I 323 W/m 14,2 C 23,5 C 24,1 km/h (4 Bft) 95,77 %
11.07.2017 14:04 25,1 C 26,1 C 51 % 1012,5 hPa 0,0 l/m 17,2 km/h (3 Bft) W 267 0 min 0,000 mm 5,1 UV-I 334 W/m 14,2 C 23,1 C 20,9 km/h (4 Bft) 91,30 %
11.07.2017 14:06 25,2 C 26,1 C 51 % 1012,6 hPa 0,0 l/m 14,9 km/h (3 Bft) W 263 2 min 0,000 mm 6,1 UV-I 1042 W/m 14,3 C 23,6 C 19,3 km/h (3 Bft) 93,62 %
11.07.2017 14:08 25,3 C 26,1 C 51 % 1012,4 hPa 0,0 l/m 13,2 km/h (3 Bft) S-SW 210 2 min 0,000 mm 5,5 UV-I 1046 W/m 14,4 C 23,9 C 22,5 km/h (4 Bft) 95,74 %
11.07.2017 14:10 25,3 C 26,1 C 50 % 1012,4 hPa 0,0 l/m 13,0 km/h (3 Bft) SW 223 2 min 0,000 mm 3,6 UV-I 1011 W/m 14,1 C 24,0 C 24,1 km/h (4 Bft) 97,87 %
11.07.2017 14:12 25,2 C 26,1 C 52 % 1012,5 hPa 0,0 l/m 14,4 km/h (3 Bft) W-SW 255 2 min 0,000 mm 5,4 UV-I 1011 W/m 14,6 C 23,6 C 24,1 km/h (4 Bft) 97,44 %
11.07.2017 14:14 25,3 C 26,1 C 51 % 1012,4 hPa 0,0 l/m 17,4 km/h (3 Bft) W-SW 247 2 min 0,000 mm 5,9 UV-I 867 W/m 14,4 C 23,4 C 25,7 km/h (4 Bft) 98,00 %
11.07.2017 14:16 25,3 C 26,1 C 51 % 1012,4 hPa 0,0 l/m 18,0 km/h (3 Bft) W-SW 252 2 min 0,000 mm 5,9 UV-I 893 W/m 14,4 C 23,3 C 24,1 km/h (4 Bft) 100,00 %
11.07.2017 14:18 25,4 C 26,1 C 51 % 1012,4 hPa 0,0 l/m 11,5 km/h (2 Bft) SW 230 2 min 0,000 mm 6,0 UV-I 931 W/m 14,5 C 24,3 C 20,9 km/h (4 Bft) 96,23 %
11.07.2017 14:20 25,6 C 26,1 C 51 % 1012,4 hPa 0,0 l/m 10,2 km/h (2 Bft) SW 226 2 min 0,000 mm 5,3 UV-I 841 W/m 14,7 C 24,8 C 16,1 km/h (3 Bft) 97,87 %
11.07.2017 14:22 25,6 C 26,1 C 50 % 1012,3 hPa 0,0 l/m 8,3 km/h (2 Bft) W-SW 250 2 min 0,000 mm 5,7 UV-I 693 W/m 14,4 C 25,2 C 11,3 km/h (2 Bft) 95,83 %
11.07.2017 14:24 25,8 C 26,1 C 50 % 1012,3 hPa 0,0 l/m 10,8 km/h (2 Bft) W-SW 246 2 min 0,000 mm 4,6 UV-I 981 W/m 14,6 C 24,9 C 16,1 km/h (3 Bft) 97,14 %
11.07.2017 14:26 25,7 C 26,1 C 50 % 1012,3 hPa 0,0 l/m 12,9 km/h (3 Bft) W-SW 252 0 min 0,000 mm 3,2 UV-I 305 W/m 14,5 C 24,5 C 20,9 km/h (4 Bft) 100,00 %
11.07.2017 14:28 25,4 C 26,1 C 48 % 1012,4 hPa 0,0 l/m 11,6 km/h (2 Bft) W-NW 294 0 min 0,000 mm 4,8 UV-I 338 W/m 13,6 C 24,3 C 16,1 km/h (3 Bft) 97,87 %
11.07.2017 14:30 25,4 C 26,1 C 50 % 1012,3 hPa 0,0 l/m 7,8 km/h (2 Bft) S-SW 213 2 min 0,000 mm 5,9 UV-I 942 W/m 14,2 C 25,1 C 12,9 km/h (3 Bft) 100,00 %
11.07.2017 14:32 25,6 C 26,1 C 49 % 1012,3 hPa 0,0 l/m 13,4 km/h (3 Bft) W 271 2 min 0,000 mm 5,5 UV-I 810 W/m 14,1 C 24,3 C 19,3 km/h (3 Bft) 97,87 %
11.07.2017 14:34 25,6 C 26,1 C 50 % 1012,3 hPa 0,0 l/m 7,6 km/h (2 Bft) SW 225 0 min 0,000 mm 5,8 UV-I 290 W/m 14,4 C 25,3 C 16,1 km/h (3 Bft) 97,87 %
11.07.2017 14:36 25,8 C 26,1 C 49 % 1012,2 hPa 0,0 l/m 10,1 km/h (2 Bft) W-NW 288 2 min 0,000 mm 5,9 UV-I 907 W/m 14,3 C 25,0 C 14,5 km/h (3 Bft) 97,87 %
11.07.2017 14:38 26,0 C 26,1 C 49 % 1012,2 hPa 0,0 l/m 11,2 km/h (2 Bft) W 277 2 min 0,000 mm 5,7 UV-I 943 W/m 14,4 C 25,1 C 22,5 km/h (4 Bft) 98,00 %
11.07.2017 14:40 26,2 C 26,1 C 47 % 1012,2 hPa 0,0 l/m 7,8 km/h (2 Bft) S-SW 194 2 min 0,000 mm 5,4 UV-I 950 W/m 14,0 C 25,9 C 16,1 km/h (3 Bft) 100,00 %
11.07.2017 14:42 26,2 C 26,1 C 47 % 1012,2 hPa 0,0 l/m 12,9 km/h (3 Bft) W-SW 245 2 min 0,000 mm 5,0 UV-I 967 W/m 14,0 C 25,0 C 24,1 km/h (4 Bft) 100,00 %
11.07.2017 14:44 26,2 C 26,1 C 49 % 1012,2 hPa 0,0 l/m 12,4 km/h (3 Bft) W 276 2 min 0,000 mm 5,5 UV-I 905 W/m 14,6 C 25,1 C 19,3 km/h (3 Bft) 95,74 %
11.07.2017 14:46 26,4 C 26,1 C 47 % 1012,2 hPa 0,0 l/m 14,3 km/h (3 Bft) W-SW 244 2 min 0,000 mm 5,6 UV-I 941 W/m 14,2 C 25,1 C 20,9 km/h (4 Bft) 97,37 %
11.07.2017 14:48 26,4 C 26,1 C 48 % 1012,2 hPa 0,0 l/m 9,0 km/h (2 Bft) W-SW 258 2 min 0,000 mm 5,5 UV-I 939 W/m 14,5 C 25,9 C 19,3 km/h (3 Bft) 98,11 %
11.07.2017 14:50 26,6 C 26,1 C 48 % 1012,1 hPa 0,0 l/m 5,5 km/h (1 Bft) W 271 2 min 0,000 mm 5,5 UV-I 960 W/m 14,7 C 26,6 C 12,9 km/h (3 Bft) 97,87 %
11.07.2017 14:52 26,6 C 26,1 C 48 % 1012,1 hPa 0,0 l/m 8,6 km/h (2 Bft) W 277 2 min 0,000 mm 5,2 UV-I 978 W/m 14,7 C 26,2 C 14,5 km/h (3 Bft) 97,87 %
11.07.2017 14:54 26,6 C 26,1 C 46 % 1012,1 hPa 0,0 l/m 15,9 km/h (3 Bft) SW 228 2 min 0,000 mm 5,0 UV-I 978 W/m 14,0 C 25,1 C 24,1 km/h (4 Bft) 100,00 %
11.07.2017 14:56 26,7 C 26,1 C 45 % 1012,2 hPa 0,0 l/m 13,2 km/h (3 Bft) W 267 2 min 0,000 mm 5,4 UV-I 925 W/m 13,8 C 25,6 C 22,5 km/h (4 Bft) 97,56 %
11.07.2017 14:58 26,5 C 26,1 C 44 % 1012,1 hPa 0,0 l/m 10,1 km/h (2 Bft) W-SW 246 2 min 0,000 mm 5,4 UV-I 921 W/m 13,2 C 25,8 C 17,7 km/h (3 Bft) 97,87 %
11.07.2017 15:00 26,4 C 26,1 C 46 % 1012,1 hPa 0,0 l/m 9,4 km/h (2 Bft) SW 227 2 min 0,000 mm 5,3 UV-I 937 W/m 13,8 C 25,8 C 19,3 km/h (3 Bft) 93,62 %
11.07.2017 15:02 26,7 C 26,1 C 49 % 1012,1 hPa 0,0 l/m 7,4 km/h (2 Bft) NW 312 2 min 0,584 mm 5,1 UV-I 958 W/m 15,1 C 26,5 C 11,3 km/h (2 Bft) 96,08 %
11.07.2017 15:04 26,8 C 26,1 C 46 % 1012,0 hPa 0,0 l/m 9,1 km/h (2 Bft) W-NW 288 2 min 0,000 mm 5,3 UV-I 898 W/m 14,2 C 26,3 C 19,3 km/h (3 Bft) 97,87 %
11.07.2017 15:06 26,9 C 26,1 C 47 % 1012,0 hPa 0,0 l/m 5,7 km/h (1 Bft) SW 233 2 min 0,000 mm 5,3 UV-I 933 W/m 14,6 C 26,9 C 9,7 km/h (2 Bft) 96,00 %
11.07.2017 15:08 26,9 C 26,1 C 44 % 1012,0 hPa 0,0 l/m 13,0 km/h (3 Bft) W-SW 244 2 min 0,000 mm 5,2 UV-I 944 W/m 13,6 C 25,8 C 20,9 km/h (4 Bft) 94,29 %
11.07.2017 15:10 26,7 C 26,1 C 45 % 1012,0 hPa 0,0 l/m 11,0 km/h (2 Bft) SW 229 2 min 0,000 mm 5,1 UV-I 941 W/m 13,8 C 25,9 C 19,3 km/h (3 Bft) 97,87 %
11.07.2017 15:12 26,6 C 26,1 C 45 % 1011,9 hPa 0,0 l/m 9,7 km/h (2 Bft) W 259 2 min 0,000 mm 5,3 UV-I 964 W/m 13,7 C 26,0 C 17,7 km/h (3 Bft) 100,00 %
11.07.2017 15:14 26,8 C 26,1 C 45 % 1012,0 hPa 0,0 l/m 10,5 km/h (2 Bft) W-SW 245 2 min 0,000 mm 4,9 UV-I 895 W/m 13,9 C 26,1 C 17,7 km/h (3 Bft) 98,00 %
11.07.2017 15:16 26,9 C 26,1 C 44 % 1011,9 hPa 0,0 l/m 14,3 km/h (3 Bft) W-SW 240 2 min 0,000 mm 4,6 UV-I 914 W/m 13,6 C 25,7 C 19,3 km/h (3 Bft) 98,11 %
11.07.2017 15:18 26,9 C 26,1 C 44 % 1011,9 hPa 0,0 l/m 11,8 km/h (2 Bft) W-SW 240 2 min 0,000 mm 5,0 UV-I 940 W/m 13,6 C 26,0 C 19,3 km/h (3 Bft) 97,87 %
11.07.2017 15:20 26,9 C 26,1 C 45 % 1011,8 hPa 0,0 l/m 15,5 km/h (3 Bft) W-SW 248 2 min 0,000 mm 4,5 UV-I 919 W/m 13,9 C 25,6 C 22,5 km/h (4 Bft) 97,87 %
11.07.2017 15:22 26,8 C 26,1 C 44 % 1011,9 hPa 0,0 l/m 8,6 km/h (2 Bft) SW 218 0 min 0,000 mm 2,8 UV-I 284 W/m 13,5 C 26,4 C 16,1 km/h (3 Bft) 100,00 %
11.07.2017 15:24 26,6 C 26,1 C 44 % 1011,8 hPa 0,0 l/m 6,4 km/h (2 Bft) W 262 0 min 0,000 mm 3,6 UV-I 200 W/m 13,3 C 26,6 C 12,9 km/h (3 Bft) 93,62 %
11.07.2017 15:26 26,7 C 26,1 C 46 % 1011,8 hPa 0,0 l/m 8,5 km/h (2 Bft) O 98 2 min 0,000 mm 4,6 UV-I 736 W/m 14,1 C 26,3 C 12,9 km/h (3 Bft) 93,62 %
11.07.2017 15:28 26,7 C 26,1 C 44 % 1011,8 hPa 0,0 l/m 9,0 km/h (2 Bft) W-NW 290 2 min 0,000 mm 4,8 UV-I 896 W/m 13,4 C 26,2 C 16,1 km/h (3 Bft) 93,62 %
11.07.2017 15:30 26,8 C 26,1 C 45 % 1011,8 hPa 0,0 l/m 3,7 km/h (1 Bft) S-SO 150 2 min 0,000 mm 4,7 UV-I 869 W/m 13,9 C 26,8 C 8,0 km/h (2 Bft) 93,62 %
11.07.2017 15:32 27,1 C 26,1 C 44 % 1011,7 hPa 0,0 l/m 12,9 km/h (3 Bft) W 277 2 min 0,000 mm 4,7 UV-I 854 W/m 13,8 C 26,1 C 22,5 km/h (4 Bft) 91,49 %
11.07.2017 15:34 27,3 C 26,1 C 44 % 1011,8 hPa 0,0 l/m 9,2 km/h (2 Bft) S-SW 212 2 min 0,000 mm 4,6 UV-I 857 W/m 14,0 C 26,8 C 24,1 km/h (4 Bft) 90,24 %
11.07.2017 15:36 27,2 C 26,1 C 42 % 1011,8 hPa 0,0 l/m 16,2 km/h (3 Bft) W 271 2 min 0,000 mm 4,1 UV-I 810 W/m 13,2 C 25,8 C 22,5 km/h (4 Bft) 95,74 %
11.07.2017 15:38 27,1 C 26,1 C 42 % 1011,8 hPa 0,0 l/m 9,9 km/h (2 Bft) W 263 2 min 0,000 mm 3,3 UV-I 725 W/m 13,1 C 26,5 C 14,5 km/h (3 Bft) 93,62 %
11.07.2017 15:40 26,8 C 26,1 C 43 % 1011,8 hPa 0,0 l/m 15,6 km/h (3 Bft) W-SW 246 2 min 0,000 mm 3,0 UV-I 472 W/m 13,2 C 25,4 C 20,9 km/h (4 Bft) 97,87 %
11.07.2017 15:42 26,4 C 26,1 C 43 % 1011,9 hPa 0,0 l/m 8,2 km/h (2 Bft) NW 311 0 min 0,000 mm 2,7 UV-I 375 W/m 12,8 C 26,0 C 17,7 km/h (3 Bft) 93,62 %
11.07.2017 15:44 26,3 C 26,1 C 46 % 1011,9 hPa 0,0 l/m 7,4 km/h (2 Bft) W 259 0 min 0,000 mm 2,6 UV-I 367 W/m 13,7 C 26,1 C 14,5 km/h (3 Bft) 91,49 %
11.07.2017 15:46 26,2 C 26,1 C 45 % 1011,9 hPa 0,0 l/m 9,6 km/h (2 Bft) W 262 0 min 0,000 mm 2,6 UV-I 370 W/m 13,3 C 25,6 C 17,7 km/h (3 Bft) 95,74 %
11.07.2017 15:48 26,0 C 26,1 C 45 % 1011,9 hPa 0,0 l/m 12,9 km/h (3 Bft) SW 217 2 min 0,000 mm 2,7 UV-I 454 W/m 13,1 C 24,8 C 20,9 km/h (4 Bft) 94,00 %
11.07.2017 15:50 26,0 C 26,1 C 46 % 1011,9 hPa 0,0 l/m 8,7 km/h (2 Bft) W 274 2 min 0,000 mm 3,0 UV-I 539 W/m 13,5 C 25,5 C 16,1 km/h (3 Bft) 95,12 %
11.07.2017 15:52 26,1 C 26,1 C 45 % 1011,8 hPa 0,0 l/m 12,6 km/h (3 Bft) W-SW 258 2 min 0,000 mm 3,1 UV-I 553 W/m 13,2 C 25,0 C 19,3 km/h (3 Bft) 91,84 %
11.07.2017 15:54 26,1 C 26,1 C 45 % 1011,8 hPa 0,0 l/m 16,0 km/h (3 Bft) W-SW 252 2 min 0,000 mm 3,0 UV-I 571 W/m 13,2 C 24,5 C 24,1 km/h (4 Bft) 89,36 %
11.07.2017 15:56 26,1 C 26,1 C 45 % 1011,8 hPa 0,0 l/m 12,4 km/h (3 Bft) W 279 2 min 0,000 mm 2,7 UV-I 467 W/m 13,2 C 25,0 C 19,3 km/h (3 Bft) 95,74 %
11.07.2017 15:58 26,2 C 26,1 C 45 % 1011,8 hPa 0,0 l/m 10,9 km/h (2 Bft) W-NW 286 2 min 0,000 mm 2,9 UV-I 559 W/m 13,3 C 25,3 C 19,3 km/h (3 Bft) 95,74 %
11.07.2017 16:00 26,2 C 26,1 C 44 % 1011,8 hPa 0,0 l/m 10,5 km/h (2 Bft) W-SW 257 2 min 0,000 mm 3,0 UV-I 555 W/m 13,0 C 25,4 C 16,1 km/h (3 Bft) 97,56 %
11.07.2017 16:02 26,3 C 26,1 C 44 % 1011,8 hPa 0,0 l/m 10,1 km/h (2 Bft) SW 226 2 min 0,533 mm 3,2 UV-I 606 W/m 13,1 C 25,6 C 17,7 km/h (3 Bft) 92,45 %
11.07.2017 16:04 26,3 C 26,1 C 44 % 1011,8 hPa 0,0 l/m 12,0 km/h (2 Bft) SW 227 2 min 0,000 mm 3,3 UV-I 652 W/m 13,1 C 25,3 C 16,1 km/h (3 Bft) 95,74 %
11.07.2017 16:06 26,4 C 26,1 C 44 % 1011,8 hPa 0,0 l/m 8,4 km/h (2 Bft) W 260 2 min 0,000 mm 3,6 UV-I 713 W/m 13,1 C 26,0 C 12,9 km/h (3 Bft) 95,74 %
11.07.2017 16:08 26,6 C 26,1 C 45 % 1011,8 hPa 0,0 l/m 5,2 km/h (1 Bft) NW 319 2 min 0,000 mm 3,7 UV-I 765 W/m 13,7 C 26,6 C 11,3 km/h (2 Bft) 97,87 %
11.07.2017 16:10 26,7 C 26,1 C 44 % 1011,7 hPa 0,0 l/m 5,8 km/h (2 Bft) W 279 2 min 0,000 mm 3,5 UV-I 751 W/m 13,4 C 26,7 C 19,3 km/h (3 Bft) 97,92 %
11.07.2017 16:12 26,7 C 26,1 C 44 % 1011,8 hPa 0,0 l/m 9,4 km/h (2 Bft) W-NW 287 2 min 0,000 mm 3,0 UV-I 666 W/m 13,4 C 26,1 C 16,1 km/h (3 Bft) 95,74 %
11.07.2017 16:14 26,6 C 26,1 C 44 % 1011,8 hPa 0,0 l/m 6,9 km/h (2 Bft) SW 217 2 min 0,000 mm 3,2 UV-I 755 W/m 13,3 C 26,5 C 16,1 km/h (3 Bft) 97,87 %
11.07.2017 16:16 26,5 C 26,1 C 43 % 1011,7 hPa 0,0 l/m 6,0 km/h (2 Bft) W-NW 292 2 min 0,000 mm 2,5 UV-I 502 W/m 12,9 C 26,5 C 11,3 km/h (2 Bft) 95,12 %
11.07.2017 16:18 26,5 C 26,1 C 46 % 1011,7 hPa 0,0 l/m 3,9 km/h (1 Bft) W 260 2 min 0,000 mm 3,1 UV-I 429 W/m 13,9 C 26,5 C 11,3 km/h (2 Bft) 97,87 %
11.07.2017 16:20 26,6 C 26,1 C 44 % 1011,6 hPa 0,0 l/m 9,8 km/h (2 Bft) W-SW 246 2 min 0,000 mm 3,5 UV-I 763 W/m 13,3 C 26,0 C 19,3 km/h (3 Bft) 95,74 %
11.07.2017 16:22 26,7 C 26,1 C 45 % 1011,6 hPa 0,0 l/m 8,8 km/h (2 Bft) W-SW 249 2 min 0,000 mm 3,5 UV-I 753 W/m 13,8 C 26,2 C 17,7 km/h (3 Bft) 97,87 %
11.07.2017 16:24 27,1 C 26,1 C 44 % 1011,6 hPa 0,0 l/m 9,9 km/h (2 Bft) W 263 2 min 0,000 mm 3,4 UV-I 733 W/m 13,8 C 26,5 C 19,3 km/h (3 Bft) 93,62 %
11.07.2017 16:26 27,3 C 26,1 C 44 % 1011,7 hPa 0,0 l/m 7,7 km/h (2 Bft) W-SW 247 2 min 0,000 mm 2,9 UV-I 726 W/m 14,0 C 27,1 C 14,5 km/h (3 Bft) 100,00 %
11.07.2017 16:28 27,4 C 26,7 C 43 % 1011,6 hPa 0,0 l/m 9,3 km/h (2 Bft) S-SW 212 2 min 0,000 mm 3,3 UV-I 707 W/m 13,7 C 26,9 C 16,1 km/h (3 Bft) 98,11 %
11.07.2017 16:30 27,3 C 26,7 C 43 % 1011,6 hPa 0,0 l/m 10,4 km/h (2 Bft) W-SW 250 2 min 0,000 mm 3,2 UV-I 696 W/m 13,6 C 26,6 C 16,1 km/h (3 Bft) 97,30 %
11.07.2017 16:32 27,4 C 26,7 C 42 % 1011,6 hPa 0,0 l/m 9,3 km/h (2 Bft) W 269 2 min 0,000 mm 3,2 UV-I 691 W/m 13,3 C 26,9 C 16,1 km/h (3 Bft) 97,96 %
11.07.2017 16:34 27,4 C 26,7 C 41 % 1011,6 hPa 0,0 l/m 7,4 km/h (2 Bft) W-NW 286 2 min 0,000 mm 3,1 UV-I 689 W/m 13,0 C 27,2 C 19,3 km/h (3 Bft) 97,87 %
11.07.2017 16:36 27,3 C 26,7 C 41 % 1011,6 hPa 0,0 l/m 10,8 km/h (2 Bft) W-SW 246 2 min 0,000 mm 2,9 UV-I 732 W/m 12,9 C 26,6 C 17,7 km/h (3 Bft) 97,87 %
11.07.2017 16:38 27,2 C 26,7 C 42 % 1011,7 hPa 0,0 l/m 12,4 km/h (3 Bft) SW 217 2 min 0,000 mm 2,6 UV-I 743 W/m 13,2 C 26,3 C 22,5 km/h (4 Bft) 95,74 %
11.07.2017 16:40 27,2 C 26,7 C 42 % 1011,7 hPa 0,0 l/m 13,0 km/h (3 Bft) SW 231 2 min 0,000 mm 2,8 UV-I 761 W/m 13,2 C 26,2 C 22,5 km/h (4 Bft) 97,96 %
11.07.2017 16:42 27,3 C 26,7 C 42 % 1011,6 hPa 0,0 l/m 11,3 km/h (2 Bft) W-SW 239 2 min 0,000 mm 3,0 UV-I 743 W/m 13,2 C 26,5 C 16,1 km/h (3 Bft) 100,00 %
11.07.2017 16:44 27,3 C 26,7 C 41 % 1011,6 hPa 0,0 l/m 11,6 km/h (2 Bft) W-SW 248 2 min 0,000 mm 2,9 UV-I 722 W/m 12,9 C 26,5 C 17,7 km/h (3 Bft) 98,00 %
11.07.2017 16:46 27,3 C 26,7 C 42 % 1011,5 hPa 0,0 l/m 9,6 km/h (2 Bft) W 278 2 min 0,000 mm 2,3 UV-I 694 W/m 13,2 C 26,8 C 16,1 km/h (3 Bft) 97,87 %
11.07.2017 16:48 27,1 C 26,7 C 42 % 1011,5 hPa 0,0 l/m 7,8 km/h (2 Bft) W-SW 254 2 min 0,000 mm 2,5 UV-I 686 W/m 13,1 C 26,8 C 16,1 km/h (3 Bft) 100,00 %
11.07.2017 16:50 26,9 C 26,7 C 43 % 1011,5 hPa 0,0 l/m 8,9 km/h (2 Bft) W-SW 250 2 min 0,000 mm 2,1 UV-I 668 W/m 13,2 C 26,4 C 16,1 km/h (3 Bft) 100,00 %
11.07.2017 16:52 26,8 C 26,7 C 42 % 1011,5 hPa 0,0 l/m 9,0 km/h (2 Bft) W 263 2 min 0,000 mm 2,6 UV-I 615 W/m 12,8 C 26,3 C 16,1 km/h (3 Bft) 97,87 %
11.07.2017 16:54 26,7 C 26,7 C 43 % 1011,5 hPa 0,0 l/m 7,6 km/h (2 Bft) SW 235 2 min 0,000 mm 2,4 UV-I 573 W/m 13,1 C 26,5 C 14,5 km/h (3 Bft) 98,00 %
11.07.2017 16:56 26,6 C 26,7 C 44 % 1011,4 hPa 0,0 l/m 9,3 km/h (2 Bft) SW 227 2 min 0,000 mm 2,4 UV-I 545 W/m 13,3 C 26,0 C 14,5 km/h (3 Bft) 100,00 %
11.07.2017 16:58 26,5 C 26,7 C 45 % 1011,4 hPa 0,0 l/m 6,9 km/h (2 Bft) W-SW 247 2 min 0,000 mm 2,2 UV-I 497 W/m 13,6 C 26,4 C 16,1 km/h (3 Bft) 98,00 %
11.07.2017 17:00 26,6 C 26,7 C 44 % 1011,3 hPa 0,0 l/m 7,1 km/h (2 Bft) W-SW 245 2 min 0,483 mm 2,2 UV-I 490 W/m 13,3 C 26,5 C 12,9 km/h (3 Bft) 100,00 %
11.07.2017 17:02 26,6 C 26,7 C 46 % 1011,4 hPa 0,0 l/m 5,5 km/h (1 Bft) W-NW 297 2 min 0,000 mm 2,1 UV-I 472 W/m 14,0 C 26,6 C 11,3 km/h (2 Bft) 97,37 %
11.07.2017 17:04 26,6 C 26,7 C 44 % 1011,3 hPa 0,0 l/m 5,1 km/h (1 Bft) W 273 2 min 0,000 mm 2,1 UV-I 483 W/m 13,3 C 26,6 C 9,7 km/h (2 Bft) 98,00 %
11.07.2017 17:06 26,4 C 26,7 C 44 % 1011,3 hPa 0,0 l/m 3,2 km/h (1 Bft) W 266 2 min 0,000 mm 2,1 UV-I 423 W/m 13,1 C 26,4 C 8,0 km/h (2 Bft) 97,87 %
11.07.2017 17:08 26,4 C 26,7 C 46 % 1011,2 hPa 0,0 l/m 5,0 km/h (1 Bft) N-NW 327 2 min 0,000 mm 2,2 UV-I 558 W/m 13,8 C 26,4 C 12,9 km/h (3 Bft) 93,62 %
11.07.2017 17:10 26,4 C 26,7 C 44 % 1011,2 hPa 0,0 l/m 6,6 km/h (2 Bft) W-SW 245 2 min 0,000 mm 2,2 UV-I 564 W/m 13,1 C 26,4 C 14,5 km/h (3 Bft) 93,62 %
11.07.2017 17:12 26,6 C 26,7 C 46 % 1011,2 hPa 0,0 l/m 12,0 km/h (2 Bft) SW 225 2 min 0,000 mm 2,1 UV-I 588 W/m 14,0 C 25,6 C 17,7 km/h (3 Bft) 100,00 %
11.07.2017 17:14 26,8 C 26,7 C 45 % 1011,1 hPa 0,0 l/m 8,8 km/h (2 Bft) W-SW 254 2 min 0,000 mm 2,1 UV-I 596 W/m 13,9 C 26,3 C 14,5 km/h (3 Bft) 98,11 %
11.07.2017 17:16 26,8 C 26,7 C 43 % 1011,1 hPa 0,0 l/m 9,7 km/h (2 Bft) SW 234 2 min 0,000 mm 1,8 UV-I 540 W/m 13,2 C 26,2 C 16,1 km/h (3 Bft) 94,74 %
11.07.2017 17:18 26,7 C 26,7 C 43 % 1011,1 hPa 0,0 l/m 10,5 km/h (2 Bft) W-NW 291 2 min 0,000 mm 1,6 UV-I 408 W/m 13,1 C 26,0 C 20,9 km/h (4 Bft) 97,87 %
11.07.2017 17:20 26,5 C 26,7 C 44 % 1011,1 hPa 0,0 l/m 7,6 km/h (2 Bft) SW 223 0 min 0,000 mm 1,4 UV-I 183 W/m 13,2 C 26,3 C 12,9 km/h (3 Bft) 96,00 %
11.07.2017 17:22 26,3 C 26,7 C 44 % 1011,0 hPa 0,0 l/m 8,9 km/h (2 Bft) W-SW 252 0 min 0,000 mm 1,3 UV-I 160 W/m 13,1 C 25,8 C 16,1 km/h (3 Bft) 97,87 %
11.07.2017 17:24 25,9 C 26,7 C 45 % 1011,0 hPa 0,0 l/m 7,1 km/h (2 Bft) SW 232 0 min 0,000 mm 1,2 UV-I 144 W/m 13,0 C 25,7 C 14,5 km/h (3 Bft) 94,44 %
11.07.2017 17:26 25,7 C 26,7 C 45 % 1011,1 hPa 0,0 l/m 8,4 km/h (2 Bft) W-SW 255 0 min 0,000 mm 1,2 UV-I 150 W/m 12,9 C 25,3 C 14,5 km/h (3 Bft) 96,23 %
11.07.2017 17:28 25,6 C 26,7 C 46 % 1011,0 hPa 0,0 l/m 6,1 km/h (2 Bft) W 267 0 min 0,000 mm 1,3 UV-I 182 W/m 13,1 C 25,6 C 14,5 km/h (3 Bft) 92,00 %
11.07.2017 17:30 25,5 C 26,7 C 47 % 1011,0 hPa 0,0 l/m 2,8 km/h (1 Bft) SW 221 0 min 0,000 mm 1,3 UV-I 198 W/m 13,3 C 25,5 C 8,0 km/h (2 Bft) 95,74 %
11.07.2017 17:32 25,5 C 26,7 C 47 % 1011,0 hPa 0,0 l/m 1,8 km/h (1 Bft) W 273 0 min 0,000 mm 1,3 UV-I 190 W/m 13,3 C 25,5 C 6,4 km/h (2 Bft) 97,87 %
11.07.2017 17:34 25,5 C 26,7 C 48 % 1011,1 hPa 0,0 l/m 4,5 km/h (1 Bft) W-SW 254 0 min 0,000 mm 1,2 UV-I 169 W/m 13,7 C 25,5 C 6,4 km/h (2 Bft) 95,74 %
11.07.2017 17:36 25,5 C 26,7 C 48 % 1011,0 hPa 0,0 l/m 2,8 km/h (1 Bft) N-NO 18 0 min 0,000 mm 1,2 UV-I 168 W/m 13,7 C 25,5 C 6,4 km/h (2 Bft) 97,87 %
11.07.2017 17:38 25,5 C 26,7 C 47 % 1011,1 hPa 0,0 l/m 5,7 km/h (1 Bft) W 266 0 min 0,000 mm 1,3 UV-I 178 W/m 13,3 C 25,5 C 12,9 km/h (3 Bft) 93,62 %
11.07.2017 17:40 25,6 C 26,7 C 46 % 1011,1 hPa 0,0 l/m 10,1 km/h (2 Bft) W 259 0 min 0,000 mm 1,3 UV-I 178 W/m 13,1 C 24,8 C 19,3 km/h (3 Bft) 94,00 %
11.07.2017 17:42 25,8 C 26,7 C 46 % 1011,1 hPa 0,0 l/m 10,8 km/h (2 Bft) W-SW 252 2 min 0,000 mm 1,5 UV-I 494 W/m 13,3 C 24,9 C 17,7 km/h (3 Bft) 97,56 %
11.07.2017 17:44 26,1 C 26,7 C 45 % 1011,1 hPa 0,0 l/m 9,4 km/h (2 Bft) S-SW 196 2 min 0,000 mm 1,5 UV-I 572 W/m 13,2 C 25,5 C 16,1 km/h (3 Bft) 95,74 %
11.07.2017 17:46 26,4 C 26,7 C 45 % 1011,1 hPa 0,0 l/m 9,5 km/h (2 Bft) W 273 2 min 0,000 mm 1,2 UV-I 575 W/m 13,5 C 25,8 C 12,9 km/h (3 Bft) 95,74 %
11.07.2017 17:48 26,4 C 26,7 C 45 % 1011,1 hPa 0,0 l/m 8,2 km/h (2 Bft) W-SW 242 2 min 0,000 mm 1,3 UV-I 549 W/m 13,5 C 26,0 C 14,5 km/h (3 Bft) 100,00 %
11.07.2017 17:50 26,6 C 26,7 C 46 % 1011,0 hPa 0,0 l/m 6,6 km/h (2 Bft) W-SW 257 2 min 0,000 mm 1,4 UV-I 520 W/m 14,0 C 26,6 C 14,5 km/h (3 Bft) 97,87 %
11.07.2017 17:52 26,7 C 26,7 C 45 % 1011,0 hPa 0,0 l/m 2,5 km/h (1 Bft) W-SW 246 2 min 0,000 mm 1,4 UV-I 570 W/m 13,8 C 26,7 C 6,4 km/h (2 Bft) 97,87 %
11.07.2017 17:54 26,8 C 26,7 C 45 % 1011,1 hPa 0,0 l/m 6,2 km/h (2 Bft) N-NW 342 2 min 0,000 mm 1,4 UV-I 502 W/m 13,9 C 26,8 C 12,9 km/h (3 Bft) 97,87 %
11.07.2017 17:56 26,7 C 26,7 C 44 % 1011,0 hPa 0,0 l/m 6,2 km/h (2 Bft) N 360 2 min 0,000 mm 1,4 UV-I 459 W/m 13,4 C 26,7 C 14,5 km/h (3 Bft) 98,11 %
11.07.2017 17:58 26,6 C 26,7 C 44 % 1010,9 hPa 0,0 l/m 4,9 km/h (1 Bft) NW 306 2 min 0,000 mm 1,3 UV-I 448 W/m 13,3 C 26,6 C 8,0 km/h (2 Bft) 100,00 %
11.07.2017 18:00 26,6 C 26,7 C 45 % 1010,9 hPa 0,0 l/m 3,8 km/h (1 Bft) O 95 2 min 0,000 mm 1,3 UV-I 447 W/m 13,7 C 26,6 C 9,7 km/h (2 Bft) 95,74 %
11.07.2017 18:02 26,7 C 26,7 C 45 % 1010,9 hPa 0,0 l/m 3,2 km/h (1 Bft) N 355 2 min 0,305 mm 1,3 UV-I 448 W/m 13,8 C 26,7 C 6,4 km/h (2 Bft) 97,87 %
11.07.2017 18:04 26,8 C 26,7 C 43 % 1010,9 hPa 0,0 l/m 7,2 km/h (2 Bft) NW 317 2 min 0,000 mm 1,2 UV-I 449 W/m 13,2 C 26,6 C 17,7 km/h (3 Bft) 100,00 %
11.07.2017 18:06 26,7 C 26,7 C 42 % 1010,9 hPa 0,0 l/m 10,4 km/h (2 Bft) W-SW 244 2 min 0,000 mm 1,2 UV-I 439 W/m 12,7 C 26,0 C 20,9 km/h (4 Bft) 95,74 %
11.07.2017 18:08 26,7 C 26,7 C 42 % 1010,9 hPa 0,0 l/m 7,7 km/h (2 Bft) W-SW 242 2 min 0,000 mm 1,2 UV-I 432 W/m 12,7 C 26,4 C 14,5 km/h (3 Bft) 100,00 %
11.07.2017 18:10 26,6 C 26,7 C 43 % 1010,9 hPa 0,0 l/m 4,9 km/h (1 Bft) W-SW 248 2 min 0,000 mm 1,0 UV-I 440 W/m 13,0 C 26,6 C 9,7 km/h (2 Bft) 97,87 %
11.07.2017 18:12 26,5 C 26,7 C 44 % 1010,9 hPa 0,0 l/m 3,7 km/h (1 Bft) SW 226 2 min 0,000 mm 1,1 UV-I 423 W/m 13,2 C 26,5 C 9,7 km/h (2 Bft) 100,00 %
11.07.2017 18:14 26,5 C 26,7 C 44 % 1010,9 hPa 0,0 l/m 7,2 km/h (2 Bft) W-NW 287 2 min 0,000 mm 1,1 UV-I 414 W/m 13,2 C 26,3 C 17,7 km/h (3 Bft) 95,74 %
11.07.2017 18:16 26,6 C 26,7 C 44 % 1010,9 hPa 0,0 l/m 6,2 km/h (2 Bft) W 266 2 min 0,000 mm 1,0 UV-I 395 W/m 13,3 C 26,6 C 14,5 km/h (3 Bft) 97,87 %
11.07.2017 18:18 26,7 C 26,7 C 45 % 1010,9 hPa 0,0 l/m 2,9 km/h (1 Bft) W-NW 292 2 min 0,000 mm 1,0 UV-I 386 W/m 13,8 C 26,7 C 8,0 km/h (2 Bft) 100,00 %
11.07.2017 18:20 26,7 C 26,7 C 43 % 1010,9 hPa 0,0 l/m 6,4 km/h (2 Bft) NO 46 2 min 0,000 mm 1,0 UV-I 383 W/m 13,1 C 26,7 C 12,9 km/h (3 Bft) 98,00 %
11.07.2017 18:22 26,7 C 26,7 C 44 % 1010,8 hPa 0,0 l/m 4,8 km/h (1 Bft) NW 304 2 min 0,000 mm 1,0 UV-I 383 W/m 13,4 C 26,7 C 8,0 km/h (2 Bft) 100,00 %
11.07.2017 18:24 26,5 C 26,7 C 43 % 1010,9 hPa 0,0 l/m 4,0 km/h (1 Bft) NW 306 2 min 0,000 mm 1,0 UV-I 384 W/m 12,9 C 26,5 C 8,0 km/h (2 Bft) 97,87 %
11.07.2017 18:26 26,4 C 26,7 C 44 % 1010,9 hPa 0,0 l/m 3,3 km/h (1 Bft) W 273 2 min 0,000 mm 0,9 UV-I 384 W/m 13,1 C 26,4 C 6,4 km/h (2 Bft) 98,00 %
11.07.2017 18:28 26,3 C 26,7 C 42 % 1011,0 hPa 0,0 l/m 5,0 km/h (1 Bft) W-NW 296 2 min 0,000 mm 0,8 UV-I 299 W/m 12,3 C 26,3 C 9,7 km/h (2 Bft) 97,87 %
11.07.2017 18:30 26,2 C 26,7 C 45 % 1011,0 hPa 0,0 l/m 5,9 km/h (2 Bft) W 272 2 min 0,000 mm 0,9 UV-I 266 W/m 13,3 C 26,2 C 14,5 km/h (3 Bft) 97,87 %
11.07.2017 18:32 26,2 C 26,7 C 43 % 1011,0 hPa 0,0 l/m 7,9 km/h (2 Bft) W-SW 238 2 min 0,000 mm 0,9 UV-I 392 W/m 12,6 C 25,9 C 14,5 km/h (3 Bft) 100,00 %
11.07.2017 18:34 26,2 C 26,7 C 44 % 1011,0 hPa 0,0 l/m 8,9 km/h (2 Bft) W-SW 243 2 min 0,000 mm 0,8 UV-I 378 W/m 13,0 C 25,7 C 14,5 km/h (3 Bft) 97,87 %
11.07.2017 18:36 26,3 C 26,7 C 44 % 1011,1 hPa 0,0 l/m 5,2 km/h (1 Bft) W 269 2 min 0,000 mm 0,8 UV-I 363 W/m 13,1 C 26,3 C 11,3 km/h (2 Bft) 97,87 %
11.07.2017 18:38 26,5 C 26,7 C 43 % 1011,2 hPa 0,0 l/m 5,6 km/h (1 Bft) NW 310 2 min 0,000 mm 0,7 UV-I 338 W/m 12,9 C 26,5 C 12,9 km/h (3 Bft) 100,00 %
11.07.2017 18:40 26,4 C 26,7 C 43 % 1011,2 hPa 0,0 l/m 3,3 km/h (1 Bft) W-SW 249 0 min 0,000 mm 0,7 UV-I 168 W/m 12,8 C 26,4 C 11,3 km/h (2 Bft) 95,74 %
11.07.2017 18:42 26,4 C 26,7 C 45 % 1011,2 hPa 0,0 l/m 2,4 km/h (1 Bft) W-NW 302 2 min 0,000 mm 0,7 UV-I 281 W/m 13,5 C 26,4 C 6,4 km/h (2 Bft) 97,87 %
11.07.2017 18:44 26,4 C 26,7 C 44 % 1011,2 hPa 0,0 l/m 4,7 km/h (1 Bft) N-NW 330 2 min 0,000 mm 0,7 UV-I 381 W/m 13,1 C 26,4 C 9,7 km/h (2 Bft) 95,74 %
11.07.2017 18:46 26,3 C 26,7 C 43 % 1011,2 hPa 0,0 l/m 5,4 km/h (1 Bft) SW 235 2 min 0,000 mm 0,7 UV-I 373 W/m 12,7 C 26,3 C 12,9 km/h (3 Bft) 97,22 %
11.07.2017 18:48 26,4 C 26,7 C 43 % 1011,2 hPa 0,0 l/m 9,0 km/h (2 Bft) W-SW 250 2 min 0,000 mm 0,7 UV-I 350 W/m 12,8 C 25,9 C 14,5 km/h (3 Bft) 97,87 %
11.07.2017 18:50 26,3 C 26,7 C 44 % 1011,2 hPa 0,0 l/m 7,6 km/h (2 Bft) W-SW 248 2 min 0,000 mm 0,6 UV-I 226 W/m 13,1 C 26,0 C 16,1 km/h (3 Bft) 94,00 %
11.07.2017 18:53 25,9 C 26,7 C 44 % 1011,3 hPa 0,0 l/m 5,1 km/h (1 Bft) W-NW 291 0 min 0,000 mm 0,6 UV-I 166 W/m 12,7 C 25,9 C 11,3 km/h (2 Bft) 95,71 %
11.07.2017 18:54 25,8 C 26,7 C 45 % 1011,3 hPa 0,0 l/m 9,7 km/h (2 Bft) W 267 0 min 0,000 mm 0,5 UV-I 146 W/m 13,0 C 25,1 C 14,5 km/h (3 Bft) 95,83 %
11.07.2017 18:56 25,7 C 26,7 C 45 % 1011,2 hPa 0,0 l/m 6,7 km/h (2 Bft) W-SW 256 0 min 0,000 mm 0,5 UV-I 134 W/m 12,9 C 25,6 C 12,9 km/h (3 Bft) 93,62 %
11.07.2017 18:58 25,5 C 26,7 C 46 % 1011,3 hPa 0,0 l/m 7,6 km/h (2 Bft) W-NW 298 0 min 0,000 mm 0,3 UV-I 129 W/m 13,0 C 25,2 C 12,9 km/h (3 Bft) 100,00 %
11.07.2017 19:00 25,3 C 26,7 C 46 % 1011,3 hPa 0,0 l/m 3,2 km/h (1 Bft) W-NW 283 0 min 0,000 mm 0,0 UV-I 128 W/m 12,8 C 25,3 C 8,0 km/h (2 Bft) 95,74 %
11.07.2017 19:02 25,2 C 26,7 C 47 % 1011,3 hPa 0,0 l/m 4,3 km/h (1 Bft) SW 236 0 min 0,254 mm 0,0 UV-I 134 W/m 13,1 C 25,2 C 8,0 km/h (2 Bft) 96,00 %
11.07.2017 19:04 25,1 C 26,7 C 47 % 1011,3 hPa 0,0 l/m 5,6 km/h (1 Bft) W-NW 289 0 min 0,000 mm 0,0 UV-I 137 W/m 13,0 C 25,1 C 12,9 km/h (3 Bft) 100,00 %
11.07.2017 19:06 25,0 C 26,7 C 46 % 1011,3 hPa 0,0 l/m 5,6 km/h (1 Bft) SW 232 0 min 0,000 mm 0,0 UV-I 119 W/m 12,6 C 25,0 C 12,9 km/h (3 Bft) 97,87 %
11.07.2017 19:08 24,9 C 26,7 C 47 % 1011,4 hPa 0,0 l/m 3,0 km/h (1 Bft) W 263 0 min 0,000 mm 0,0 UV-I 133 W/m 12,8 C 24,9 C 4,8 km/h (1 Bft) 91,49 %
11.07.2017 19:10 24,9 C 26,7 C 47 % 1011,4 hPa 0,0 l/m 3,4 km/h (1 Bft) W 267 0 min 0,000 mm 0,0 UV-I 128 W/m 12,8 C 24,9 C 9,7 km/h (2 Bft) 95,74 %
11.07.2017 19:12 24,9 C 26,7 C 47 % 1011,4 hPa 0,0 l/m 4,0 km/h (1 Bft) NW 310 0 min 0,000 mm 0,0 UV-I 120 W/m 12,8 C 24,9 C 9,7 km/h (2 Bft) 92,00 %
11.07.2017 19:14 24,8 C 26,7 C 48 % 1011,4 hPa 0,0 l/m 4,5 km/h (1 Bft) W 259 0 min 0,000 mm 0,0 UV-I 114 W/m 13,0 C 24,8 C 8,0 km/h (2 Bft) 95,83 %
11.07.2017 19:16 24,9 C 26,7 C 48 % 1011,5 hPa 0,0 l/m 3,3 km/h (1 Bft) W 273 0 min 0,000 mm 0,0 UV-I 104 W/m 13,1 C 24,9 C 6,4 km/h (2 Bft) 93,62 %
11.07.2017 19:18 24,8 C 26,7 C 47 % 1011,5 hPa 0,0 l/m 4,2 km/h (1 Bft) W-SW 249 0 min 0,000 mm 0,0 UV-I 97 W/m 12,7 C 24,8 C 8,0 km/h (2 Bft) 91,49 %
11.07.2017 19:20 24,8 C 26,7 C 48 % 1011,5 hPa 0,0 l/m 5,7 km/h (1 Bft) SW 234 0 min 0,000 mm 0,0 UV-I 92 W/m 13,0 C 24,8 C 12,9 km/h (3 Bft) 95,74 %
11.07.2017 19:22 24,8 C 26,7 C 48 % 1011,5 hPa 0,0 l/m 7,5 km/h (2 Bft) W-SW 246 0 min 0,000 mm 0,0 UV-I 95 W/m 13,0 C 24,5 C 12,9 km/h (3 Bft) 91,49 %
11.07.2017 19:24 24,8 C 26,7 C 48 % 1011,5 hPa 0,0 l/m 5,1 km/h (1 Bft) W 276 0 min 0,000 mm 0,0 UV-I 98 W/m 13,0 C 24,8 C 9,7 km/h (2 Bft) 95,92 %
11.07.2017 19:26 24,8 C 26,7 C 49 % 1011,5 hPa 0,0 l/m 3,6 km/h (1 Bft) W-SW 251 2 min 0,000 mm 0,0 UV-I 127 W/m 13,3 C 24,8 C 6,4 km/h (2 Bft) 93,62 %
11.07.2017 19:28 24,8 C 26,7 C 48 % 1011,5 hPa 0,0 l/m 1,1 km/h (1 Bft) W-SW 251 0 min 0,000 mm 0,0 UV-I 112 W/m 13,0 C 24,8 C 3,2 km/h (1 Bft) 93,62 %
11.07.2017 19:30 24,8 C 26,7 C 47 % 1011,4 hPa 0,0 l/m 4,6 km/h (1 Bft) W 275 0 min 0,000 mm 0,0 UV-I 113 W/m 12,7 C 24,8 C 11,3 km/h (2 Bft) 95,74 %
11.07.2017 19:32 24,8 C 26,7 C 48 % 1011,4 hPa 0,0 l/m 1,2 km/h (1 Bft) W 275 2 min 0,000 mm 0,0 UV-I 118 W/m 13,0 C 24,8 C 3,2 km/h (1 Bft) 93,62 %
11.07.2017 19:34 24,8 C 26,7 C 47 % 1011,4 hPa 0,0 l/m 3,0 km/h (1 Bft) W 266 0 min 0,000 mm 0,0 UV-I 114 W/m 12,7 C 24,8 C 6,4 km/h (2 Bft) 93,62 %
11.07.2017 19:36 24,8 C 26,7 C 47 % 1011,5 hPa 0,0 l/m 2,6 km/h (1 Bft) W 266 0 min 0,000 mm 0,0 UV-I 109 W/m 12,7 C 24,8 C 4,8 km/h (1 Bft) 93,62 %
11.07.2017 19:38 24,8 C 26,7 C 49 % 1011,5 hPa 0,0 l/m 3,6 km/h (1 Bft) W 260 0 min 0,000 mm 0,0 UV-I 100 W/m 13,3 C 24,8 C 6,4 km/h (2 Bft) 93,62 %
11.07.2017 19:40 24,8 C 26,7 C 48 % 1011,5 hPa 0,0 l/m 5,0 km/h (1 Bft) W 277 0 min 0,000 mm 0,0 UV-I 84 W/m 13,0 C 24,8 C 11,3 km/h (2 Bft) 93,62 %
11.07.2017 19:42 24,8 C 26,7 C 48 % 1011,5 hPa 0,0 l/m 6,1 km/h (2 Bft) W 280 0 min 0,000 mm 0,0 UV-I 68 W/m 13,0 C 24,8 C 11,3 km/h (2 Bft) 97,87 %
11.07.2017 19:44 24,7 C 26,7 C 48 % 1011,6 hPa 0,0 l/m 3,8 km/h (1 Bft) W 278 0 min 0,000 mm 0,0 UV-I 61 W/m 12,9 C 24,7 C 4,8 km/h (1 Bft) 97,37 %
11.07.2017 19:46 24,7 C 26,7 C 49 % 1011,6 hPa 0,0 l/m 4,2 km/h (1 Bft) W 265 0 min 0,000 mm 0,0 UV-I 49 W/m 13,3 C 24,7 C 6,4 km/h (2 Bft) 97,87 %
11.07.2017 19:48 24,7 C 26,7 C 48 % 1011,6 hPa 0,0 l/m 3,3 km/h (1 Bft) W 266 0 min 0,000 mm 0,0 UV-I 40 W/m 12,9 C 24,7 C 6,4 km/h (2 Bft) 95,74 %
11.07.2017 19:50 24,6 C 26,7 C 48 % 1011,7 hPa 0,0 l/m 5,4 km/h (1 Bft) W 259 0 min 0,000 mm 0,0 UV-I 35 W/m 12,8 C 24,6 C 11,3 km/h (2 Bft) 95,74 %
11.07.2017 19:52 24,6 C 26,7 C 49 % 1011,7 hPa 0,0 l/m 5,4 km/h (1 Bft) W-SW 257 0 min 0,000 mm 0,0 UV-I 31 W/m 13,2 C 24,6 C 9,7 km/h (2 Bft) 95,74 %
11.07.2017 19:54 24,5 C 26,7 C 49 % 1011,7 hPa 0,0 l/m 4,0 km/h (1 Bft) W-SW 258 0 min 0,000 mm 0,0 UV-I 28 W/m 13,1 C 24,5 C 4,8 km/h (1 Bft) 95,74 %
11.07.2017 19:56 24,5 C 26,7 C 49 % 1011,8 hPa 0,0 l/m 3,4 km/h (1 Bft) W-SW 258 0 min 0,000 mm 0,0 UV-I 26 W/m 13,1 C 24,5 C 4,8 km/h (1 Bft) 95,74 %
11.07.2017 19:58 24,4 C 26,7 C 50 % 1011,9 hPa 0,0 l/m 2,9 km/h (1 Bft) W-SW 258 0 min 0,000 mm 0,0 UV-I 26 W/m 13,3 C 24,4 C 4,8 km/h (1 Bft) 96,00 %
11.07.2017 20:00 24,3 C 26,7 C 50 % 1011,9 hPa 0,0 l/m 4,3 km/h (1 Bft) W-NW 283 0 min 0,000 mm 0,0 UV-I 26 W/m 13,2 C 24,3 C 9,7 km/h (2 Bft) 95,74 %
11.07.2017 20:02 24,3 C 26,7 C 51 % 1011,9 hPa 0,0 l/m 4,3 km/h (1 Bft) W 265 0 min 0,101 mm 0,0 UV-I 28 W/m 13,5 C 24,3 C 6,4 km/h (2 Bft) 93,75 %
11.07.2017 20:04 24,3 C 26,7 C 50 % 1011,8 hPa 0,0 l/m 5,5 km/h (1 Bft) W 266 0 min 0,000 mm 0,0 UV-I 31 W/m 13,2 C 24,3 C 9,7 km/h (2 Bft) 95,74 %
11.07.2017 20:06 24,2 C 26,7 C 49 % 1011,8 hPa 0,0 l/m 6,0 km/h (2 Bft) W 265 0 min 0,000 mm 0,0 UV-I 34 W/m 12,8 C 24,2 C 11,3 km/h (2 Bft) 98,00 %
11.07.2017 20:08 24,2 C 26,7 C 49 % 1011,7 hPa 0,0 l/m 5,1 km/h (1 Bft) W 262 0 min 0,000 mm 0,0 UV-I 35 W/m 12,8 C 24,2 C 9,7 km/h (2 Bft) 95,74 %
11.07.2017 20:10 24,2 C 26,7 C 49 % 1011,8 hPa 0,0 l/m 5,0 km/h (1 Bft) W 263 0 min 0,000 mm 0,0 UV-I 34 W/m 12,8 C 24,2 C 9,7 km/h (2 Bft) 95,74 %
11.07.2017 20:12 24,1 C 26,7 C 49 % 1011,8 hPa 0,0 l/m 5,0 km/h (1 Bft) W 272 0 min 0,000 mm 0,0 UV-I 30 W/m 12,7 C 24,1 C 8,0 km/h (2 Bft) 97,87 %
11.07.2017 20:14 24,1 C 26,7 C 49 % 1011,8 hPa 0,0 l/m 3,7 km/h (1 Bft) W 267 0 min 0,000 mm 0,0 UV-I 27 W/m 12,7 C 24,1 C 6,4 km/h (2 Bft) 95,74 %
11.07.2017 20:16 24,1 C 26,7 C 49 % 1011,8 hPa 0,0 l/m 4,8 km/h (1 Bft) W-SW 245 0 min 0,000 mm 0,0 UV-I 25 W/m 12,7 C 24,1 C 9,7 km/h (2 Bft) 97,14 %
11.07.2017 20:18 24,1 C 26,7 C 49 % 1011,8 hPa 0,0 l/m 5,7 km/h (1 Bft) W-SW 253 0 min 0,000 mm 0,0 UV-I 22 W/m 12,7 C 24,1 C 11,3 km/h (2 Bft) 100,00 %
11.07.2017 20:20 24,0 C 26,7 C 49 % 1011,9 hPa 0,0 l/m 5,6 km/h (1 Bft) W-SW 241 0 min 0,000 mm 0,0 UV-I 20 W/m 12,6 C 24,0 C 8,0 km/h (2 Bft) 95,74 %
11.07.2017 20:22 23,9 C 26,7 C 49 % 1011,9 hPa 0,0 l/m 6,2 km/h (2 Bft) W 259 0 min 0,000 mm 0,0 UV-I 19 W/m 12,5 C 23,9 C 9,7 km/h (2 Bft) 100,00 %
11.07.2017 20:24 23,9 C 26,7 C 50 % 1011,9 hPa 0,0 l/m 5,1 km/h (1 Bft) W 265 0 min 0,000 mm 0,0 UV-I 19 W/m 12,8 C 23,9 C 8,0 km/h (2 Bft) 94,00 %
11.07.2017 20:26 23,9 C 26,7 C 50 % 1011,9 hPa 0,0 l/m 5,2 km/h (1 Bft) W-NW 285 0 min 0,000 mm 0,0 UV-I 19 W/m 12,8 C 23,9 C 9,7 km/h (2 Bft) 97,87 %
11.07.2017 20:28 23,8 C 26,7 C 49 % 1011,8 hPa 0,0 l/m 4,1 km/h (1 Bft) W-NW 284 0 min 0,000 mm 0,0 UV-I 19 W/m 12,4 C 23,8 C 6,4 km/h (2 Bft) 97,87 %
11.07.2017 20:30 23,8 C 26,1 C 49 % 1011,8 hPa 0,0 l/m 3,5 km/h (1 Bft) W-NW 284 0 min 0,000 mm 0,0 UV-I 18 W/m 12,4 C 23,8 C 6,4 km/h (2 Bft) 97,87 %
11.07.2017 20:32 23,8 C 26,1 C 50 % 1011,8 hPa 0,0 l/m 4,6 km/h (1 Bft) W 270 0 min 0,000 mm 0,0 UV-I 18 W/m 12,7 C 23,8 C 6,4 km/h (2 Bft) 95,74 %
11.07.2017 20:34 23,8 C 26,1 C 49 % 1011,9 hPa 0,0 l/m 4,2 km/h (1 Bft) W 269 0 min 0,000 mm 0,0 UV-I 18 W/m 12,4 C 23,8 C 6,4 km/h (2 Bft) 95,74 %
11.07.2017 20:36 23,7 C 26,1 C 50 % 1011,9 hPa 0,0 l/m 4,3 km/h (1 Bft) W-SW 255 0 min 0,000 mm 0,0 UV-I 15 W/m 12,6 C 23,7 C 6,4 km/h (2 Bft) 97,87 %
11.07.2017 20:38 23,7 C 26,1 C 50 % 1012,0 hPa 0,0 l/m 3,7 km/h (1 Bft) W-SW 250 0 min 0,000 mm 0,0 UV-I 13 W/m 12,6 C 23,7 C 6,4 km/h (2 Bft) 96,00 %
11.07.2017 20:40 23,7 C 26,1 C 50 % 1012,0 hPa 0,0 l/m 5,3 km/h (1 Bft) W-SW 252 0 min 0,000 mm 0,0 UV-I 11 W/m 12,6 C 23,7 C 9,7 km/h (2 Bft) 98,00 %
11.07.2017 20:42 23,7 C 26,1 C 50 % 1012,0 hPa 0,0 l/m 5,4 km/h (1 Bft) SW 235 0 min 0,000 mm 0,0 UV-I 10 W/m 12,6 C 23,7 C 8,0 km/h (2 Bft) 88,89 %
11.07.2017 20:44 23,6 C 26,1 C 50 % 1012,0 hPa 0,0 l/m 5,2 km/h (1 Bft) W 265 0 min 0,000 mm 0,0 UV-I 7 W/m 12,6 C 23,6 C 9,7 km/h (2 Bft) 100,00 %
11.07.2017 20:46 23,6 C 26,1 C 51 % 1012,1 hPa 0,0 l/m 4,1 km/h (1 Bft) W-SW 257 0 min 0,000 mm 0,0 UV-I 7 W/m 12,9 C 23,6 C 6,4 km/h (2 Bft) 97,87 %
11.07.2017 20:48 23,5 C 26,1 C 51 % 1012,0 hPa 0,0 l/m 3,6 km/h (1 Bft) W-SW 257 0 min 0,000 mm 0,0 UV-I 7 W/m 12,8 C 23,5 C 6,4 km/h (2 Bft) 100,00 %
11.07.2017 20:50 23,4 C 26,1 C 51 % 1012,0 hPa 0,0 l/m 3,6 km/h (1 Bft) W-SW 257 0 min 0,000 mm 0,0 UV-I 7 W/m 12,7 C 23,4 C 4,8 km/h (1 Bft) 98,00 %
11.07.2017 20:52 23,4 C 26,1 C 51 % 1012,0 hPa 0,0 l/m 4,1 km/h (1 Bft) SW 227 0 min 0,000 mm 0,0 UV-I 7 W/m 12,7 C 23,4 C 8,0 km/h (2 Bft) 95,74 %
11.07.2017 20:54 23,3 C 26,1 C 52 % 1012,0 hPa 0,0 l/m 4,2 km/h (1 Bft) W-SW 238 0 min 0,000 mm 0,0 UV-I 7 W/m 12,9 C 23,3 C 6,4 km/h (2 Bft) 95,74 %
11.07.2017 20:56 23,3 C 26,1 C 53 % 1012,0 hPa 0,0 l/m 4,1 km/h (1 Bft) W-SW 244 0 min 0,000 mm 0,0 UV-I 7 W/m 13,2 C 23,3 C 6,4 km/h (2 Bft) 97,87 %
11.07.2017 20:58 23,2 C 26,1 C 53 % 1012,0 hPa 0,0 l/m 2,6 km/h (1 Bft) W-SW 244 0 min 0,000 mm 0,0 UV-I 7 W/m 13,1 C 23,2 C 4,8 km/h (1 Bft) 95,74 %
11.07.2017 21:00 23,2 C 26,1 C 53 % 1011,9 hPa 0,0 l/m 3,0 km/h (1 Bft) W-SW 244 0 min 0,000 mm 0,0 UV-I 7 W/m 13,1 C 23,2 C 4,8 km/h (1 Bft) 96,00 %
11.07.2017 21:02 23,1 C 26,1 C 53 % 1011,9 hPa 0,0 l/m 3,7 km/h (1 Bft) W-SW 244 0 min 0,051 mm 0,0 UV-I 7 W/m 13,0 C 23,1 C 6,4 km/h (2 Bft) 95,74 %
11.07.2017 21:04 23,1 C 26,1 C 54 % 1012,0 hPa 0,0 l/m 4,4 km/h (1 Bft) W-SW 244 0 min 0,000 mm 0,0 UV-I 7 W/m 13,3 C 23,1 C 6,4 km/h (2 Bft) 93,62 %
11.07.2017 21:06 23,0 C 26,1 C 54 % 1012,1 hPa 0,0 l/m 3,8 km/h (1 Bft) W-SW 244 0 min 0,000 mm 0,0 UV-I 7 W/m 13,2 C 23,0 C 6,4 km/h (2 Bft) 93,62 %
11.07.2017 21:08 22,9 C 26,1 C 54 % 1012,1 hPa 0,0 l/m 3,5 km/h (1 Bft) W-SW 244 0 min 0,000 mm 0,0 UV-I 7 W/m 13,1 C 22,9 C 4,8 km/h (1 Bft) 93,62 %
11.07.2017 21:10 22,8 C 26,1 C 54 % 1012,1 hPa 0,0 l/m 2,8 km/h (1 Bft) W-SW 244 0 min 0,000 mm 0,0 UV-I 5 W/m 13,0 C 22,8 C 4,8 km/h (1 Bft) 93,62 %
11.07.2017 21:12 22,8 C 26,1 C 54 % 1012,1 hPa 0,0 l/m 3,6 km/h (1 Bft) W-SW 244 0 min 0,000 mm 0,0 UV-I 5 W/m 13,0 C 22,8 C 4,8 km/h (1 Bft) 95,74 %
11.07.2017 21:14 22,8 C 26,1 C 55 % 1012,1 hPa 0,0 l/m 2,5 km/h (1 Bft) W-SW 244 0 min 0,000 mm 0,0 UV-I 2 W/m 13,3 C 22,8 C 3,2 km/h (1 Bft) 97,87 %
11.07.2017 21:16 22,7 C 26,1 C 55 % 1012,1 hPa 0,0 l/m 3,2 km/h (1 Bft) W-SW 244 0 min 0,000 mm 0,0 UV-I 0 W/m 13,2 C 22,7 C 6,4 km/h (2 Bft) 95,74 %
11.07.2017 21:18 22,7 C 26,1 C 55 % 1012,1 hPa 0,0 l/m 4,1 km/h (1 Bft) W-SW 244 0 min 0,000 mm 0,0 UV-I 0 W/m 13,2 C 22,7 C 6,4 km/h (2 Bft) 95,74 %
11.07.2017 21:20 22,7 C 26,1 C 55 % 1012,2 hPa 0,0 l/m 4,1 km/h (1 Bft) W-SW 244 0 min 0,000 mm 0,0 UV-I 0 W/m 13,2 C 22,7 C 4,8 km/h (1 Bft) 94,44 %
11.07.2017 21:22 22,6 C 26,1 C 56 % 1012,2 hPa 0,0 l/m 3,5 km/h (1 Bft) W-SW 244 0 min 0,000 mm 0,0 UV-I 0 W/m 13,4 C 22,6 C 4,8 km/h (1 Bft) 94,00 %
11.07.2017 21:24 22,6 C 26,1 C 56 % 1012,2 hPa 0,0 l/m 3,8 km/h (1 Bft) W-SW 244 0 min 0,000 mm 0,0 UV-I 0 W/m 13,4 C 22,6 C 6,4 km/h (2 Bft) 93,62 %
11.07.2017 21:26 22,5 C 26,1 C 57 % 1012,2 hPa 0,0 l/m 4,1 km/h (1 Bft) W-SW 244 0 min 0,000 mm 0,0 UV-I 0 W/m 13,5 C 22,5 C 6,4 km/h (2 Bft) 95,74 %
11.07.2017 21:28 22,4 C 26,1 C 57 % 1012,2 hPa 0,0 l/m 5,1 km/h (1 Bft) W-SW 244 0 min 0,000 mm 0,0 UV-I 0 W/m 13,5 C 22,4 C 6,4 km/h (2 Bft) 97,87 %
11.07.2017 21:30 22,4 C 26,1 C 57 % 1012,2 hPa 0,0 l/m 4,8 km/h (1 Bft) W-SW 244 0 min 0,000 mm 0,0 UV-I 0 W/m 13,5 C 22,4 C 6,4 km/h (2 Bft) 91,49 %
11.07.2017 21:32 22,4 C 26,1 C 57 % 1012,2 hPa 0,0 l/m 4,6 km/h (1 Bft) W-SW 243 0 min 0,000 mm 0,0 UV-I 0 W/m 13,5 C 22,4 C 6,4 km/h (2 Bft) 95,74 %
11.07.2017 21:34 22,3 C 26,1 C 58 % 1012,2 hPa 0,0 l/m 4,4 km/h (1 Bft) W-SW 244 0 min 0,000 mm 0,0 UV-I 0 W/m 13,6 C 22,3 C 6,4 km/h (2 Bft) 93,62 %
11.07.2017 21:36 22,3 C 26,1 C 57 % 1012,2 hPa 0,0 l/m 3,7 km/h (1 Bft) W-SW 244 0 min 0,000 mm 0,0 UV-I 0 W/m 13,4 C 22,3 C 6,4 km/h (2 Bft) 98,00 %
11.07.2017 21:38 22,2 C 26,1 C 58 % 1012,2 hPa 0,0 l/m 3,3 km/h (1 Bft) W-SW 243 0 min 0,000 mm 0,0 UV-I 0 W/m 13,5 C 22,2 C 4,8 km/h (1 Bft) 95,74 %
11.07.2017 21:40 22,2 C 26,1 C 59 % 1012,3 hPa 0,0 l/m 3,3 km/h (1 Bft) W-SW 243 0 min 0,000 mm 0,0 UV-I 0 W/m 13,8 C 22,2 C 4,8 km/h (1 Bft) 95,74 %
11.07.2017 21:42 22,2 C 26,1 C 59 % 1012,3 hPa 0,0 l/m 2,8 km/h (1 Bft) W-SW 243 0 min 0,000 mm 0,0 UV-I 0 W/m 13,8 C 22,2 C 4,8 km/h (1 Bft) 95,74 %
11.07.2017 21:44 22,1 C 26,1 C 59 % 1012,3 hPa 0,0 l/m 2,8 km/h (1 Bft) W-SW 243 0 min 0,000 mm 0,0 UV-I 0 W/m 13,7 C 22,1 C 4,8 km/h (1 Bft) 95,74 %
11.07.2017 21:46 22,1 C 26,1 C 61 % 1012,3 hPa 0,0 l/m 3,8 km/h (1 Bft) W-SW 243 0 min 0,000 mm 0,0 UV-I 0 W/m 14,2 C 22,1 C 6,4 km/h (2 Bft) 97,87 %
11.07.2017 21:48 22,0 C 26,1 C 60 % 1012,3 hPa 0,0 l/m 1,5 km/h (1 Bft) W-SW 243 0 min 0,000 mm 0,0 UV-I 0 W/m 13,9 C 22,0 C 3,2 km/h (1 Bft) 97,87 %
11.07.2017 21:50 21,9 C 26,1 C 61 % 1012,4 hPa 0,0 l/m 2,4 km/h (1 Bft) W-SW 243 0 min 0,000 mm 0,0 UV-I 0 W/m 14,0 C 21,9 C 6,4 km/h (2 Bft) 95,74 %
11.07.2017 21:52 21,9 C 26,1 C 61 % 1012,5 hPa 0,0 l/m 2,0 km/h (1 Bft) W-SW 242 0 min 0,000 mm 0,0 UV-I 0 W/m 14,0 C 21,9 C 4,8 km/h (1 Bft) 93,62 %
11.07.2017 21:54 21,8 C 26,1 C 61 % 1012,6 hPa 0,0 l/m 1,5 km/h (1 Bft) SW 216 0 min 0,000 mm 0,0 UV-I 0 W/m 13,9 C 21,8 C 4,8 km/h (1 Bft) 98,00 %
11.07.2017 21:56 21,8 C 26,1 C 60 % 1012,6 hPa 0,0 l/m 2,0 km/h (1 Bft) SW 215 0 min 0,000 mm 0,0 UV-I 0 W/m 13,7 C 21,8 C 3,2 km/h (1 Bft) 91,49 %
11.07.2017 21:58 21,8 C 26,1 C 60 % 1012,7 hPa 0,0 l/m 2,0 km/h (1 Bft) SW 215 0 min 0,000 mm 0,0 UV-I 0 W/m 13,7 C 21,8 C 3,2 km/h (1 Bft) 100,00 %
11.07.2017 22:00 21,7 C 26,1 C 61 % 1012,7 hPa 0,0 l/m 5,5 km/h (1 Bft) S 191 0 min 0,026 mm 0,0 UV-I 0 W/m 13,8 C 21,7 C 12,9 km/h (3 Bft) 100,00 %
11.07.2017 22:02 21,7 C 26,1 C 62 % 1012,7 hPa 0,0 l/m 5,0 km/h (1 Bft) S 190 0 min 0,000 mm 0,0 UV-I 0 W/m 14,1 C 21,7 C 8,0 km/h (2 Bft) 97,87 %
11.07.2017 22:04 21,7 C 26,1 C 63 % 1012,7 hPa 0,0 l/m 4,8 km/h (1 Bft) S 180 0 min 0,000 mm 0,0 UV-I 0 W/m 14,3 C 21,7 C 9,7 km/h (2 Bft) 100,00 %
11.07.2017 22:06 21,7 C 26,1 C 64 % 1012,7 hPa 0,0 l/m 4,8 km/h (1 Bft) SW 223 0 min 0,000 mm 0,0 UV-I 0 W/m 14,6 C 21,7 C 6,4 km/h (2 Bft) 100,00 %
11.07.2017 22:08 21,6 C 26,1 C 65 % 1012,6 hPa 0,0 l/m 6,2 km/h (2 Bft) S-SW 209 0 min 0,000 mm 0,0 UV-I 0 W/m 14,7 C 21,6 C 9,7 km/h (2 Bft) 100,00 %
11.07.2017 22:10 21,5 C 26,1 C 66 % 1012,7 hPa 0,0 l/m 4,9 km/h (1 Bft) S-SW 207 0 min 0,000 mm 0,0 UV-I 0 W/m 14,9 C 21,5 C 9,7 km/h (2 Bft) 98,11 %
11.07.2017 22:12 21,4 C 26,1 C 67 % 1012,7 hPa 0,0 l/m 4,5 km/h (1 Bft) S 179 0 min 0,000 mm 0,0 UV-I 0 W/m 15,0 C 21,4 C 9,7 km/h (2 Bft) 98,00 %
11.07.2017 22:14 21,3 C 26,1 C 67 % 1012,7 hPa 0,0 l/m 6,4 km/h (2 Bft) S-SO 161 0 min 0,000 mm 0,0 UV-I 0 W/m 14,9 C 21,3 C 16,1 km/h (3 Bft) 97,22 %
11.07.2017 22:16 21,3 C 26,1 C 67 % 1012,7 hPa 0,0 l/m 6,3 km/h (2 Bft) S-SO 162 0 min 0,000 mm 0,0 UV-I 0 W/m 14,9 C 21,3 C 9,7 km/h (2 Bft) 98,11 %
11.07.2017 22:18 21,3 C 26,1 C 67 % 1012,7 hPa 0,0 l/m 6,0 km/h (2 Bft) S-SO 158 0 min 0,000 mm 0,0 UV-I 0 W/m 14,9 C 21,3 C 11,3 km/h (2 Bft) 97,56 %
11.07.2017 22:20 21,3 C 26,1 C 68 % 1012,8 hPa 0,0 l/m 5,7 km/h (1 Bft) S-SO 163 0 min 0,000 mm 0,0 UV-I 0 W/m 15,1 C 21,3 C 11,3 km/h (2 Bft) 97,73 %
11.07.2017 22:22 21,2 C 26,1 C 68 % 1012,8 hPa 0,0 l/m 7,4 km/h (2 Bft) S 185 0 min 0,000 mm 0,0 UV-I 0 W/m 15,1 C 20,8 C 11,3 km/h (2 Bft) 98,21 %
11.07.2017 22:24 21,2 C 26,1 C 68 % 1012,8 hPa 0,0 l/m 6,1 km/h (2 Bft) S 191 0 min 0,000 mm 0,0 UV-I 0 W/m 15,1 C 21,2 C 9,7 km/h (2 Bft) 97,73 %
11.07.2017 22:26 21,2 C 26,1 C 68 % 1012,8 hPa 0,0 l/m 4,8 km/h (1 Bft) S 188 0 min 0,000 mm 0,0 UV-I 0 W/m 15,1 C 21,2 C 8,0 km/h (2 Bft) 94,00 %
11.07.2017 22:28 21,1 C 26,1 C 68 % 1012,8 hPa 0,0 l/m 5,2 km/h (1 Bft) S-SO 161 0 min 0,000 mm 0,0 UV-I 0 W/m 15,0 C 21,1 C 9,7 km/h (2 Bft) 98,11 %
11.07.2017 22:30 21,1 C 26,1 C 69 % 1012,9 hPa 0,0 l/m 7,5 km/h (2 Bft) S 182 0 min 0,000 mm 0,0 UV-I 0 W/m 15,2 C 20,7 C 12,9 km/h (3 Bft) 97,14 %
11.07.2017 22:32 20,9 C 26,1 C 69 % 1012,8 hPa 0,0 l/m 4,5 km/h (1 Bft) S-SO 167 0 min 0,000 mm 0,0 UV-I 0 W/m 15,0 C 20,9 C 8,0 km/h (2 Bft) 97,56 %
11.07.2017 22:34 20,9 C 26,1 C 70 % 1012,8 hPa 0,0 l/m 7,6 km/h (2 Bft) S-SW 194 0 min 0,000 mm 0,0 UV-I 0 W/m 15,2 C 20,4 C 16,1 km/h (3 Bft) 98,31 %
11.07.2017 22:36 20,8 C 26,1 C 70 % 1012,8 hPa 0,0 l/m 8,0 km/h (2 Bft) S-SO 160 0 min 0,000 mm 0,0 UV-I 0 W/m 15,1 C 20,2 C 14,5 km/h (3 Bft) 95,12 %
11.07.2017 22:38 20,8 C 26,1 C 70 % 1012,8 hPa 0,0 l/m 7,5 km/h (2 Bft) S 171 0 min 0,000 mm 0,0 UV-I 0 W/m 15,1 C 20,4 C 14,5 km/h (3 Bft) 98,11 %
11.07.2017 22:40 20,8 C 26,1 C 70 % 1012,9 hPa 0,0 l/m 9,3 km/h (2 Bft) S 177 0 min 0,000 mm 0,0 UV-I 0 W/m 15,1 C 19,7 C 16,1 km/h (3 Bft) 97,56 %
11.07.2017 22:42 20,8 C 26,1 C 70 % 1012,8 hPa 0,0 l/m 9,8 km/h (2 Bft) S-SW 196 0 min 0,000 mm 0,0 UV-I 0 W/m 15,1 C 19,6 C 14,5 km/h (3 Bft) 96,00 %
11.07.2017 22:44 20,8 C 26,1 C 70 % 1012,9 hPa 0,0 l/m 7,5 km/h (2 Bft) S 186 0 min 0,000 mm 0,0 UV-I 0 W/m 15,1 C 20,4 C 14,5 km/h (3 Bft) 100,00 %
11.07.2017 22:46 20,7 C 26,1 C 71 % 1012,9 hPa 0,0 l/m 7,3 km/h (2 Bft) S-SW 197 0 min 0,000 mm 0,0 UV-I 0 W/m 15,2 C 20,4 C 14,5 km/h (3 Bft) 100,00 %
11.07.2017 22:48 20,7 C 26,1 C 71 % 1013,0 hPa 0,0 l/m 6,4 km/h (2 Bft) S-SW 205 0 min 0,000 mm 0,0 UV-I 0 W/m 15,2 C 20,7 C 9,7 km/h (2 Bft) 96,23 %
11.07.2017 22:50 20,7 C 26,1 C 71 % 1013,1 hPa 0,0 l/m 4,2 km/h (1 Bft) S 190 0 min 0,000 mm 0,0 UV-I 0 W/m 15,2 C 20,7 C 8,0 km/h (2 Bft) 95,12 %
11.07.2017 22:52 20,7 C 26,1 C 71 % 1013,0 hPa 0,0 l/m 4,9 km/h (1 Bft) S-SW 207 0 min 0,000 mm 0,0 UV-I 0 W/m 15,2 C 20,7 C 9,7 km/h (2 Bft) 97,44 %
11.07.2017 22:54 20,7 C 26,1 C 71 % 1013,0 hPa 0,0 l/m 6,8 km/h (2 Bft) S-SW 207 0 min 0,000 mm 0,0 UV-I 0 W/m 15,2 C 20,5 C 9,7 km/h (2 Bft) 98,00 %
11.07.2017 22:56 20,6 C 26,1 C 72 % 1013,0 hPa 0,0 l/m 5,4 km/h (1 Bft) W-SW 239 0 min 0,000 mm 0,0 UV-I 0 W/m 15,4 C 20,6 C 8,0 km/h (2 Bft) 98,00 %
11.07.2017 22:58 20,6 C 26,1 C 72 % 1013,0 hPa 0,0 l/m 5,7 km/h (1 Bft) SW 216 0 min 0,000 mm 0,0 UV-I 0 W/m 15,4 C 20,6 C 9,7 km/h (2 Bft) 95,74 %
11.07.2017 23:00 20,6 C 26,1 C 72 % 1013,0 hPa 0,0 l/m 5,3 km/h (1 Bft) S 183 0 min 0,025 mm 0,0 UV-I 0 W/m 15,4 C 20,6 C 8,0 km/h (2 Bft) 96,00 %
11.07.2017 23:02 20,6 C 26,1 C 72 % 1013,0 hPa 0,0 l/m 3,9 km/h (1 Bft) S-SW 205 0 min 0,000 mm 0,0 UV-I 0 W/m 15,4 C 20,6 C 8,0 km/h (2 Bft) 93,62 %
11.07.2017 23:04 20,5 C 26,1 C 73 % 1013,0 hPa 0,0 l/m 4,7 km/h (1 Bft) SW 217 0 min 0,000 mm 0,0 UV-I 0 W/m 15,5 C 20,5 C 6,4 km/h (2 Bft) 94,00 %
11.07.2017 23:06 20,5 C 26,1 C 73 % 1013,0 hPa 0,0 l/m 5,4 km/h (1 Bft) S-SW 207 0 min 0,000 mm 0,0 UV-I 0 W/m 15,5 C 20,5 C 8,0 km/h (2 Bft) 93,62 %
11.07.2017 23:08 20,4 C 26,1 C 73 % 1013,1 hPa 0,0 l/m 5,6 km/h (1 Bft) S 178 0 min 0,000 mm 0,0 UV-I 0 W/m 15,4 C 20,4 C 11,3 km/h (2 Bft) 92,68 %
11.07.2017 23:10 20,4 C 26,1 C 73 % 1013,0 hPa 0,0 l/m 6,3 km/h (2 Bft) S-SW 204 0 min 0,000 mm 0,0 UV-I 0 W/m 15,4 C 20,4 C 9,7 km/h (2 Bft) 96,00 %
11.07.2017 23:12 20,4 C 26,1 C 73 % 1013,0 hPa 0,0 l/m 8,1 km/h (2 Bft) SW 217 0 min 0,000 mm 0,0 UV-I 0 W/m 15,4 C 19,7 C 12,9 km/h (3 Bft) 89,36 %
11.07.2017 23:14 20,4 C 26,1 C 73 % 1013,1 hPa 0,0 l/m 7,1 km/h (2 Bft) SW 229 0 min 0,000 mm 0,0 UV-I 0 W/m 15,4 C 20,1 C 9,7 km/h (2 Bft) 96,00 %
11.07.2017 23:16 20,4 C 26,1 C 73 % 1013,1 hPa 0,0 l/m 5,6 km/h (1 Bft) SW 223 0 min 0,000 mm 0,0 UV-I 0 W/m 15,4 C 20,4 C 8,0 km/h (2 Bft) 95,74 %
11.07.2017 23:18 20,4 C 26,1 C 73 % 1013,1 hPa 0,0 l/m 5,5 km/h (1 Bft) SW 225 0 min 0,000 mm 0,0 UV-I 0 W/m 15,4 C 20,4 C 6,4 km/h (2 Bft) 91,49 %
11.07.2017 23:20 20,4 C 26,1 C 74 % 1013,1 hPa 0,0 l/m 5,8 km/h (2 Bft) SW 234 0 min 0,000 mm 0,0 UV-I 0 W/m 15,6 C 20,4 C 8,0 km/h (2 Bft) 92,11 %
11.07.2017 23:22 20,4 C 26,1 C 74 % 1013,1 hPa 0,0 l/m 4,5 km/h (1 Bft) SW 234 0 min 0,000 mm 0,0 UV-I 0 W/m 15,6 C 20,4 C 6,4 km/h (2 Bft) 90,24 %
11.07.2017 23:24 20,4 C 26,1 C 74 % 1013,1 hPa 0,0 l/m 4,8 km/h (1 Bft) SW 234 0 min 0,000 mm 0,0 UV-I 0 W/m 15,6 C 20,4 C 8,0 km/h (2 Bft) 94,64 %
11.07.2017 23:26 20,4 C 26,1 C 74 % 1013,1 hPa 0,0 l/m 4,4 km/h (1 Bft) SW 234 0 min 0,000 mm 0,0 UV-I 0 W/m 15,6 C 20,4 C 6,4 km/h (2 Bft) 92,00 %
11.07.2017 23:28 20,4 C 26,1 C 74 % 1013,1 hPa 0,0 l/m 4,2 km/h (1 Bft) S-SW 202 0 min 0,000 mm 0,0 UV-I 0 W/m 15,6 C 20,4 C 8,0 km/h (2 Bft) 92,00 %
11.07.2017 23:30 20,4 C 26,1 C 74 % 1013,1 hPa 0,0 l/m 4,9 km/h (1 Bft) SW 234 0 min 0,000 mm 0,0 UV-I 0 W/m 15,6 C 20,4 C 8,0 km/h (2 Bft) 94,87 %
11.07.2017 23:32 20,3 C 26,1 C 74 % 1013,1 hPa 0,0 l/m 5,3 km/h (1 Bft) SW 234 0 min 0,000 mm 0,0 UV-I 0 W/m 15,5 C 20,3 C 8,0 km/h (2 Bft) 95,92 %
11.07.2017 23:34 20,3 C 26,1 C 74 % 1013,1 hPa 0,0 l/m 4,6 km/h (1 Bft) SW 224 0 min 0,000 mm 0,0 UV-I 0 W/m 15,5 C 20,3 C 8,0 km/h (2 Bft) 93,75 %
11.07.2017 23:36 20,3 C 26,1 C 74 % 1013,1 hPa 0,0 l/m 4,7 km/h (1 Bft) SW 226 0 min 0,000 mm 0,0 UV-I 0 W/m 15,5 C 20,3 C 6,4 km/h (2 Bft) 94,00 %
11.07.2017 23:38 20,3 C 26,1 C 74 % 1013,1 hPa 0,0 l/m 5,4 km/h (1 Bft) SW 228 0 min 0,000 mm 0,0 UV-I 0 W/m 15,5 C 20,3 C 8,0 km/h (2 Bft) 95,45 %
11.07.2017 23:40 20,3 C 26,1 C 74 % 1013,1 hPa 0,0 l/m 3,7 km/h (1 Bft) SW 227 0 min 0,000 mm 0,0 UV-I 0 W/m 15,5 C 20,3 C 6,4 km/h (2 Bft) 95,74 %
11.07.2017 23:42 20,3 C 26,1 C 74 % 1013,1 hPa 0,0 l/m 5,2 km/h (1 Bft) SW 227 0 min 0,000 mm 0,0 UV-I 0 W/m 15,5 C 20,3 C 8,0 km/h (2 Bft) 96,00 %
11.07.2017 23:44 20,3 C 26,1 C 74 % 1013,1 hPa 0,0 l/m 6,0 km/h (2 Bft) S-SW 212 0 min 0,000 mm 0,0 UV-I 0 W/m 15,5 C 20,3 C 9,7 km/h (2 Bft) 92,11 %
11.07.2017 23:46 20,3 C 26,1 C 74 % 1013,1 hPa 0,0 l/m 4,8 km/h (1 Bft) S-SW 212 0 min 0,000 mm 0,0 UV-I 0 W/m 15,5 C 20,3 C 6,4 km/h (2 Bft) 94,64 %
11.07.2017 23:48 20,3 C 26,1 C 75 % 1013,1 hPa 0,0 l/m 5,2 km/h (1 Bft) S-SW 212 0 min 0,000 mm 0,0 UV-I 0 W/m 15,7 C 20,3 C 6,4 km/h (2 Bft) 95,45 %
11.07.2017 23:50 20,2 C 26,1 C 75 % 1013,1 hPa 0,0 l/m 4,9 km/h (1 Bft) S-SW 212 0 min 0,000 mm 0,0 UV-I 0 W/m 15,6 C 20,2 C 6,4 km/h (2 Bft) 97,56 %
11.07.2017 23:52 20,2 C 26,1 C 75 % 1013,2 hPa 0,0 l/m 5,6 km/h (1 Bft) S-SW 212 0 min 0,000 mm 0,0 UV-I 0 W/m 15,6 C 20,2 C 8,0 km/h (2 Bft) 96,00 %
11.07.2017 23:54 20,2 C 26,1 C 75 % 1013,2 hPa 0,0 l/m 5,1 km/h (1 Bft) SW 215 0 min 0,000 mm 0,0 UV-I 0 W/m 15,6 C 20,2 C 6,4 km/h (2 Bft) 92,45 %
11.07.2017 23:56 20,2 C 26,1 C 75 % 1013,3 hPa 0,0 l/m 5,7 km/h (1 Bft) W-SW 242 0 min 0,000 mm 0,0 UV-I 0 W/m 15,6 C 20,2 C 8,0 km/h (2 Bft) 100,00 %
11.07.2017 23:58 20,1 C 26,1 C 75 % 1013,3 hPa 0,0 l/m 5,8 km/h (2 Bft) W-SW 238 0 min 0,000 mm 0,0 UV-I 0 W/m 15,5 C 20,1 C 8,0 km/h (2 Bft) 94,64 %
_ Min-Zeit 05:56 05:32 16:34 00:28 - 01:22 - - - - - - 18:28 05:00 02:50 08:04
Minimum _ 17,1 C 25,0 C 41 % 1009,9 hPa - 1,1 km/h (1 Bft) - - - - - - 12,3 C 13,0 C 3,2 km/h (1 Bft) 86,84 %
_ Max-Zeit 16:28 16:28 03:20 23:56 00:24 10:34 - - 07:32 15:02 13:26 12:22 03:20 16:34 10:12 01:16
Maximum _ 27,4 C 26,7 C 96 % 1013,3 hPa 0,2 l/m 27,9 km/h
SW (4 Bft)
- - 2 min 0,584 mm 6,9 UV-I 1078 W/m 17,1 C 27,2 C 40,2 km/h
W-SW (6 Bft)
100,00 %
Durchschnitt _ 21,6 C 25,9 C 68 % 1011,8 hPa #0,6 l/m 9,0 km/h (2 Bft) W-SW - #8:02 h #5,080 mm 3,2 UV-I 418 W/m 14,9 C 20,8 C 14,9 km/h (3 Bft) 96,16 %